<?xml version="1.0" encoding="UTF-8" standalone="yes"?>
<gpx
 xmlns="http://www.topografix.com/GPX/1/1"
 creator="OziExplorer Version 3956f - http://www.oziexplorer.com"
 version="1.1"
 xmlns:xsi="http://www.w3.org/2001/XMLSchema-instance"
 xsi:schemaLocation="http://www.topografix.com/GPX/1/1 http://www.topografix.com/GPX/1/1/gpx.xsd">
<metadata>
 <time>2024-11-18T07:22:31Z</time>
 <bounds minlat="31.261150" minlon="35.229910" maxlat="31.331760" maxlon="35.347890"/>
</metadata>
<wpt lat="31.3032700" lon="35.3372900">
 <time>2024-11-18T09:15:23.919Z</time>
 <name>Na Mesada</name>
 <sym>Flag, Red</sym>
</wpt>
<wpt lat="31.3317400" lon="35.2897000">
 <time>2024-11-18T09:15:24.004Z</time>
 <name>Tatspit</name>
 <sym>Flag, Red</sym>
</wpt>
<wpt lat="31.3292800" lon="35.2895700">
 <time>2024-11-18T09:15:24.035Z</time>
 <name>VlevoNaTatspit</name>
 <sym>Flag, Red</sym>
</wpt>
<wpt lat="31.3063200" lon="35.2685700">
 <time>2024-11-18T09:15:24.040Z</time>
 <name>KfarNokdim</name>
 <sym>Flag, Red</sym>
</wpt>
<wpt lat="31.2614800" lon="35.2391900">
 <time>2024-11-18T09:15:24.073Z</time>
 <name>Start</name>
 <sym>Bike Trail</sym>
</wpt>
<wpt lat="31.3185700" lon="35.3478900">
 <time>2024-11-18T09:15:24.094Z</time>
 <name>Finish</name>
 <sym>Flag, Blue</sym>
</wpt>
<wpt lat="31.3268400" lon="35.3467700">
 <time>2024-11-18T09:15:24.098Z</time>
 <name>Tatspit</name>
 <sym>Flag, Red</sym>
</wpt>
<trk>
 <name>Arad-Mesada_SinKKL_41km450m</name>
 <desc>Arad-Mesada_SinKKL_41km450m</desc>
<trkseg>
<trkpt lat="31.2616900" lon="35.2391500">
<ele>570.809998</ele>
<time>2024-11-18T09:15:24.098Z</time>
</trkpt>
<trkpt lat="31.2617200" lon="35.2391300">
<ele>570.559998</ele>
<time>2024-11-18T09:15:24.098Z</time>
</trkpt>
<trkpt lat="31.2618800" lon="35.2390500">
<ele>569.119995</ele>
<time>2024-11-18T09:15:24.098Z</time>
</trkpt>
<trkpt lat="31.2619000" lon="35.2389900">
<ele>569.119995</ele>
<time>2024-11-18T09:15:24.098Z</time>
</trkpt>
<trkpt lat="31.2620100" lon="35.2386900">
<ele>566.479980</ele>
<time>2024-11-18T09:15:24.098Z</time>
</trkpt>
<trkpt lat="31.2620000" lon="35.2385500">
<ele>565.580017</ele>
<time>2024-11-18T09:15:24.098Z</time>
</trkpt>
<trkpt lat="31.2618600" lon="35.2382900">
<ele>567.839966</ele>
<time>2024-11-18T09:15:24.098Z</time>
</trkpt>
<trkpt lat="31.2616400" lon="35.2380000">
<ele>573.940002</ele>
<time>2024-11-18T09:15:24.098Z</time>
</trkpt>
<trkpt lat="31.2613900" lon="35.2376300">
<ele>581.229980</ele>
<time>2024-11-18T09:15:24.098Z</time>
</trkpt>
<trkpt lat="31.2611500" lon="35.2372300">
<ele>581.599976</ele>
<time>2024-11-18T09:15:24.098Z</time>
</trkpt>
<trkpt lat="31.2611700" lon="35.2367500">
<ele>572.830017</ele>
<time>2024-11-18T09:15:24.098Z</time>
</trkpt>
<trkpt lat="31.2613100" lon="35.2363300">
<ele>566.469971</ele>
<time>2024-11-18T09:15:24.098Z</time>
</trkpt>
<trkpt lat="31.2615100" lon="35.2359800">
<ele>568.829956</ele>
<time>2024-11-18T09:15:24.098Z</time>
</trkpt>
<trkpt lat="31.2618800" lon="35.2358500">
<ele>570.920044</ele>
<time>2024-11-18T09:15:24.098Z</time>
</trkpt>
<trkpt lat="31.2620300" lon="35.2355800">
<ele>572.169983</ele>
<time>2024-11-18T09:15:24.098Z</time>
</trkpt>
<trkpt lat="31.2622700" lon="35.2353400">
<ele>570.119995</ele>
<time>2024-11-18T09:15:24.098Z</time>
</trkpt>
<trkpt lat="31.2628300" lon="35.2350900">
<ele>573.109985</ele>
<time>2024-11-18T09:15:24.098Z</time>
</trkpt>
<trkpt lat="31.2633300" lon="35.2349900">
<ele>574.140015</ele>
<time>2024-11-18T09:15:24.098Z</time>
</trkpt>
<trkpt lat="31.2633000" lon="35.2346800">
<ele>578.029968</ele>
<time>2024-11-18T09:15:24.098Z</time>
</trkpt>
<trkpt lat="31.2634000" lon="35.2338500">
<ele>577.559998</ele>
<time>2024-11-18T09:15:24.098Z</time>
</trkpt>
<trkpt lat="31.2633600" lon="35.2337000">
<ele>577.000000</ele>
<time>2024-11-18T09:15:24.098Z</time>
</trkpt>
<trkpt lat="31.2630500" lon="35.2332700">
<ele>581.320007</ele>
<time>2024-11-18T09:15:24.098Z</time>
</trkpt>
<trkpt lat="31.2630300" lon="35.2330100">
<ele>581.910034</ele>
<time>2024-11-18T09:15:24.098Z</time>
</trkpt>
<trkpt lat="31.2630300" lon="35.2329200">
<ele>580.989990</ele>
<time>2024-11-18T09:15:24.098Z</time>
</trkpt>
<trkpt lat="31.2631200" lon="35.2327900">
<ele>576.320007</ele>
<time>2024-11-18T09:15:24.098Z</time>
</trkpt>
<trkpt lat="31.2632800" lon="35.2326800">
<ele>570.940002</ele>
<time>2024-11-18T09:15:24.098Z</time>
</trkpt>
<trkpt lat="31.2636400" lon="35.2324900">
<ele>557.109985</ele>
<time>2024-11-18T09:15:24.098Z</time>
</trkpt>
<trkpt lat="31.2640300" lon="35.2324400">
<ele>558.940002</ele>
<time>2024-11-18T09:15:24.098Z</time>
</trkpt>
<trkpt lat="31.2644200" lon="35.2326500">
<ele>560.830017</ele>
<time>2024-11-18T09:15:24.098Z</time>
</trkpt>
<trkpt lat="31.2647700" lon="35.2327600">
<ele>559.679993</ele>
<time>2024-11-18T09:15:24.098Z</time>
</trkpt>
<trkpt lat="31.2648500" lon="35.2329300">
<ele>559.880005</ele>
<time>2024-11-18T09:15:24.098Z</time>
</trkpt>
<trkpt lat="31.2650600" lon="35.2331900">
<ele>556.390015</ele>
<time>2024-11-18T09:15:24.098Z</time>
</trkpt>
<trkpt lat="31.2651400" lon="35.2332300">
<ele>553.080017</ele>
<time>2024-11-18T09:15:24.098Z</time>
</trkpt>
<trkpt lat="31.2651900" lon="35.2331600">
<ele>552.030029</ele>
<time>2024-11-18T09:15:24.098Z</time>
</trkpt>
<trkpt lat="31.2652100" lon="35.2329800">
<ele>552.510010</ele>
<time>2024-11-18T09:15:24.098Z</time>
</trkpt>
<trkpt lat="31.2652900" lon="35.2325700">
<ele>548.369995</ele>
<time>2024-11-18T09:15:24.098Z</time>
</trkpt>
<trkpt lat="31.2653500" lon="35.2325600">
<ele>546.399963</ele>
<time>2024-11-18T09:15:24.098Z</time>
</trkpt>
<trkpt lat="31.2653000" lon="35.2328400">
<ele>549.840027</ele>
<time>2024-11-18T09:15:24.098Z</time>
</trkpt>
<trkpt lat="31.2653200" lon="35.2329700">
<ele>548.320007</ele>
<time>2024-11-18T09:15:24.098Z</time>
</trkpt>
<trkpt lat="31.2653800" lon="35.2332100">
<ele>543.590027</ele>
<time>2024-11-18T09:15:24.098Z</time>
</trkpt>
<trkpt lat="31.2654200" lon="35.2334200">
<ele>540.399963</ele>
<time>2024-11-18T09:15:24.098Z</time>
</trkpt>
<trkpt lat="31.2654700" lon="35.2333100">
<ele>538.830017</ele>
<time>2024-11-18T09:15:24.098Z</time>
</trkpt>
<trkpt lat="31.2654200" lon="35.2329800">
<ele>543.520020</ele>
<time>2024-11-18T09:15:24.098Z</time>
</trkpt>
<trkpt lat="31.2654300" lon="35.2327700">
<ele>544.929993</ele>
<time>2024-11-18T09:15:24.098Z</time>
</trkpt>
<trkpt lat="31.2655300" lon="35.2324800">
<ele>540.859985</ele>
<time>2024-11-18T09:15:24.098Z</time>
</trkpt>
<trkpt lat="31.2655200" lon="35.2329000">
<ele>539.820007</ele>
<time>2024-11-18T09:15:24.098Z</time>
</trkpt>
<trkpt lat="31.2655700" lon="35.2330400">
<ele>535.529968</ele>
<time>2024-11-18T09:15:24.098Z</time>
</trkpt>
<trkpt lat="31.2656700" lon="35.2333000">
<ele>532.659973</ele>
<time>2024-11-18T09:15:24.098Z</time>
</trkpt>
<trkpt lat="31.2656500" lon="35.2335900">
<ele>532.989990</ele>
<time>2024-11-18T09:15:24.098Z</time>
</trkpt>
<trkpt lat="31.2655200" lon="35.2338000">
<ele>535.210022</ele>
<time>2024-11-18T09:15:24.098Z</time>
</trkpt>
<trkpt lat="31.2656800" lon="35.2337300">
<ele>531.119995</ele>
<time>2024-11-18T09:15:24.098Z</time>
</trkpt>
<trkpt lat="31.2657200" lon="35.2336100">
<ele>531.450012</ele>
<time>2024-11-18T09:15:24.098Z</time>
</trkpt>
<trkpt lat="31.2657800" lon="35.2333300">
<ele>530.890015</ele>
<time>2024-11-18T09:15:24.098Z</time>
</trkpt>
<trkpt lat="31.2657500" lon="35.2330400">
<ele>526.929993</ele>
<time>2024-11-18T09:15:24.098Z</time>
</trkpt>
<trkpt lat="31.2657100" lon="35.2327500">
<ele>530.330017</ele>
<time>2024-11-18T09:15:24.098Z</time>
</trkpt>
<trkpt lat="31.2657500" lon="35.2327200">
<ele>528.270020</ele>
<time>2024-11-18T09:15:24.098Z</time>
</trkpt>
<trkpt lat="31.2657500" lon="35.2327200">
<ele>528.270020</ele>
<time>2024-11-18T09:15:24.098Z</time>
</trkpt>
<trkpt lat="31.2657500" lon="35.2327200">
<ele>528.270020</ele>
<time>2024-11-18T09:15:24.098Z</time>
</trkpt>
<trkpt lat="31.2657900" lon="35.2326800">
<ele>526.590027</ele>
<time>2024-11-18T09:15:24.098Z</time>
</trkpt>
<trkpt lat="31.2659000" lon="35.2326000">
<ele>524.250000</ele>
<time>2024-11-18T09:15:24.098Z</time>
</trkpt>
<trkpt lat="31.2664100" lon="35.2323200">
<ele>520.230042</ele>
<time>2024-11-18T09:15:24.098Z</time>
</trkpt>
<trkpt lat="31.2671900" lon="35.2319100">
<ele>508.880005</ele>
<time>2024-11-18T09:15:24.098Z</time>
</trkpt>
<trkpt lat="31.2673300" lon="35.2317300">
<ele>510.940002</ele>
<time>2024-11-18T09:15:24.098Z</time>
</trkpt>
<trkpt lat="31.2673200" lon="35.2315700">
<ele>513.409973</ele>
<time>2024-11-18T09:15:24.098Z</time>
</trkpt>
<trkpt lat="31.2671700" lon="35.2312800">
<ele>516.659973</ele>
<time>2024-11-18T09:15:24.098Z</time>
</trkpt>
<trkpt lat="31.2669800" lon="35.2312000">
<ele>519.960022</ele>
<time>2024-11-18T09:15:24.098Z</time>
</trkpt>
<trkpt lat="31.2668600" lon="35.2311600">
<ele>520.910034</ele>
<time>2024-11-18T09:15:24.098Z</time>
</trkpt>
<trkpt lat="31.2665300" lon="35.2313800">
<ele>523.950012</ele>
<time>2024-11-18T09:15:24.098Z</time>
</trkpt>
<trkpt lat="31.2664900" lon="35.2313600">
<ele>524.170044</ele>
<time>2024-11-18T09:15:24.098Z</time>
</trkpt>
<trkpt lat="31.2664100" lon="35.2313100">
<ele>524.559998</ele>
<time>2024-11-18T09:15:24.098Z</time>
</trkpt>
<trkpt lat="31.2664100" lon="35.2312700">
<ele>524.419983</ele>
<time>2024-11-18T09:15:24.098Z</time>
</trkpt>
<trkpt lat="31.2665300" lon="35.2311200">
<ele>523.019958</ele>
<time>2024-11-18T09:15:24.098Z</time>
</trkpt>
<trkpt lat="31.2668300" lon="35.2308600">
<ele>517.950012</ele>
<time>2024-11-18T09:15:24.098Z</time>
</trkpt>
<trkpt lat="31.2670500" lon="35.2306500">
<ele>516.529968</ele>
<time>2024-11-18T09:15:24.098Z</time>
</trkpt>
<trkpt lat="31.2672000" lon="35.2305800">
<ele>516.830017</ele>
<time>2024-11-18T09:15:24.098Z</time>
</trkpt>
<trkpt lat="31.2673000" lon="35.2303000">
<ele>517.280029</ele>
<time>2024-11-18T09:15:24.098Z</time>
</trkpt>
<trkpt lat="31.2673700" lon="35.2299100">
<ele>518.299988</ele>
<time>2024-11-18T09:15:24.098Z</time>
</trkpt>
<trkpt lat="31.2674400" lon="35.2299200">
<ele>518.119995</ele>
<time>2024-11-18T09:15:24.098Z</time>
</trkpt>
<trkpt lat="31.2674700" lon="35.2300800">
<ele>517.969971</ele>
<time>2024-11-18T09:15:24.098Z</time>
</trkpt>
<trkpt lat="31.2674600" lon="35.2304700">
<ele>517.859985</ele>
<time>2024-11-18T09:15:24.098Z</time>
</trkpt>
<trkpt lat="31.2676300" lon="35.2306300">
<ele>516.599976</ele>
<time>2024-11-18T09:15:24.098Z</time>
</trkpt>
<trkpt lat="31.2677800" lon="35.2307300">
<ele>514.450012</ele>
<time>2024-11-18T09:15:24.098Z</time>
</trkpt>
<trkpt lat="31.2679000" lon="35.2307800">
<ele>511.190002</ele>
<time>2024-11-18T09:15:24.098Z</time>
</trkpt>
<trkpt lat="31.2680300" lon="35.2306100">
<ele>514.239990</ele>
<time>2024-11-18T09:15:24.098Z</time>
</trkpt>
<trkpt lat="31.2683500" lon="35.2303900">
<ele>516.840027</ele>
<time>2024-11-18T09:15:24.098Z</time>
</trkpt>
<trkpt lat="31.2685200" lon="35.2304000">
<ele>517.459961</ele>
<time>2024-11-18T09:15:24.098Z</time>
</trkpt>
<trkpt lat="31.2688300" lon="35.2303900">
<ele>525.299988</ele>
<time>2024-11-18T09:15:24.098Z</time>
</trkpt>
<trkpt lat="31.2692100" lon="35.2305900">
<ele>528.599976</ele>
<time>2024-11-18T09:15:24.098Z</time>
</trkpt>
<trkpt lat="31.2693300" lon="35.2305100">
<ele>529.789978</ele>
<time>2024-11-18T09:15:24.098Z</time>
</trkpt>
<trkpt lat="31.2695200" lon="35.2303000">
<ele>532.789978</ele>
<time>2024-11-18T09:15:24.098Z</time>
</trkpt>
<trkpt lat="31.2698200" lon="35.2301300">
<ele>534.750000</ele>
<time>2024-11-18T09:15:24.098Z</time>
</trkpt>
<trkpt lat="31.2700400" lon="35.2302100">
<ele>533.710022</ele>
<time>2024-11-18T09:15:24.098Z</time>
</trkpt>
<trkpt lat="31.2702300" lon="35.2304700">
<ele>536.039978</ele>
<time>2024-11-18T09:15:24.098Z</time>
</trkpt>
<trkpt lat="31.2704500" lon="35.2307500">
<ele>535.760010</ele>
<time>2024-11-18T09:15:24.098Z</time>
</trkpt>
<trkpt lat="31.2705800" lon="35.2308200">
<ele>535.000000</ele>
<time>2024-11-18T09:15:24.098Z</time>
</trkpt>
<trkpt lat="31.2705900" lon="35.2309400">
<ele>534.660034</ele>
<time>2024-11-18T09:15:24.098Z</time>
</trkpt>
<trkpt lat="31.2705400" lon="35.2309900">
<ele>534.520020</ele>
<time>2024-11-18T09:15:24.098Z</time>
</trkpt>
<trkpt lat="31.2704000" lon="35.2310200">
<ele>535.070007</ele>
<time>2024-11-18T09:15:24.098Z</time>
</trkpt>
<trkpt lat="31.2698300" lon="35.2309600">
<ele>537.279968</ele>
<time>2024-11-18T09:15:24.098Z</time>
</trkpt>
<trkpt lat="31.2696600" lon="35.2312500">
<ele>536.599976</ele>
<time>2024-11-18T09:15:24.098Z</time>
</trkpt>
<trkpt lat="31.2695800" lon="35.2314200">
<ele>535.299988</ele>
<time>2024-11-18T09:15:24.098Z</time>
</trkpt>
<trkpt lat="31.2689800" lon="35.2317300">
<ele>534.289978</ele>
<time>2024-11-18T09:15:24.098Z</time>
</trkpt>
<trkpt lat="31.2689600" lon="35.2320600">
<ele>532.169983</ele>
<time>2024-11-18T09:15:24.098Z</time>
</trkpt>
<trkpt lat="31.2690000" lon="35.2321000">
<ele>531.880005</ele>
<time>2024-11-18T09:15:24.098Z</time>
</trkpt>
<trkpt lat="31.2690000" lon="35.2321000">
<ele>531.880005</ele>
<time>2024-11-18T09:15:24.098Z</time>
</trkpt>
<trkpt lat="31.2690000" lon="35.2321000">
<ele>531.880005</ele>
<time>2024-11-18T09:15:24.098Z</time>
</trkpt>
<trkpt lat="31.2692200" lon="35.2322800">
<ele>531.500000</ele>
<time>2024-11-18T09:15:24.098Z</time>
</trkpt>
<trkpt lat="31.2694900" lon="35.2324200">
<ele>535.609985</ele>
<time>2024-11-18T09:15:24.098Z</time>
</trkpt>
<trkpt lat="31.2696800" lon="35.2326200">
<ele>538.989990</ele>
<time>2024-11-18T09:15:24.098Z</time>
</trkpt>
<trkpt lat="31.2697100" lon="35.2328400">
<ele>542.229980</ele>
<time>2024-11-18T09:15:24.098Z</time>
</trkpt>
<trkpt lat="31.2693900" lon="35.2334100">
<ele>547.369995</ele>
<time>2024-11-18T09:15:24.098Z</time>
</trkpt>
<trkpt lat="31.2692100" lon="35.2336700">
<ele>548.579956</ele>
<time>2024-11-18T09:15:24.098Z</time>
</trkpt>
<trkpt lat="31.2690600" lon="35.2338300">
<ele>548.709961</ele>
<time>2024-11-18T09:15:24.098Z</time>
</trkpt>
<trkpt lat="31.2688000" lon="35.2342000">
<ele>549.840027</ele>
<time>2024-11-18T09:15:24.098Z</time>
</trkpt>
<trkpt lat="31.2683000" lon="35.2344700">
<ele>552.859985</ele>
<time>2024-11-18T09:15:24.098Z</time>
</trkpt>
<trkpt lat="31.2681400" lon="35.2348300">
<ele>554.460022</ele>
<time>2024-11-18T09:15:24.098Z</time>
</trkpt>
<trkpt lat="31.2680100" lon="35.2350300">
<ele>552.470032</ele>
<time>2024-11-18T09:15:24.098Z</time>
</trkpt>
<trkpt lat="31.2676700" lon="35.2355700">
<ele>543.200012</ele>
<time>2024-11-18T09:15:24.098Z</time>
</trkpt>
<trkpt lat="31.2675300" lon="35.2362700">
<ele>539.440002</ele>
<time>2024-11-18T09:15:24.098Z</time>
</trkpt>
<trkpt lat="31.2676900" lon="35.2363700">
<ele>538.929993</ele>
<time>2024-11-18T09:15:24.098Z</time>
</trkpt>
<trkpt lat="31.2679300" lon="35.2364400">
<ele>540.130005</ele>
<time>2024-11-18T09:15:24.098Z</time>
</trkpt>
<trkpt lat="31.2682600" lon="35.2362500">
<ele>550.209961</ele>
<time>2024-11-18T09:15:24.098Z</time>
</trkpt>
<trkpt lat="31.2687300" lon="35.2362500">
<ele>547.570007</ele>
<time>2024-11-18T09:15:24.098Z</time>
</trkpt>
<trkpt lat="31.2689000" lon="35.2361500">
<ele>547.309998</ele>
<time>2024-11-18T09:15:24.098Z</time>
</trkpt>
<trkpt lat="31.2690700" lon="35.2359200">
<ele>545.549988</ele>
<time>2024-11-18T09:15:24.098Z</time>
</trkpt>
<trkpt lat="31.2692100" lon="35.2358100">
<ele>544.919983</ele>
<time>2024-11-18T09:15:24.098Z</time>
</trkpt>
<trkpt lat="31.2693600" lon="35.2357400">
<ele>544.420044</ele>
<time>2024-11-18T09:15:24.098Z</time>
</trkpt>
<trkpt lat="31.2695600" lon="35.2355700">
<ele>548.530029</ele>
<time>2024-11-18T09:15:24.098Z</time>
</trkpt>
<trkpt lat="31.2700100" lon="35.2354100">
<ele>542.159973</ele>
<time>2024-11-18T09:15:24.098Z</time>
</trkpt>
<trkpt lat="31.2702400" lon="35.2352200">
<ele>546.419983</ele>
<time>2024-11-18T09:15:24.098Z</time>
</trkpt>
<trkpt lat="31.2704000" lon="35.2350300">
<ele>547.640015</ele>
<time>2024-11-18T09:15:24.098Z</time>
</trkpt>
<trkpt lat="31.2705800" lon="35.2346600">
<ele>549.980042</ele>
<time>2024-11-18T09:15:24.098Z</time>
</trkpt>
<trkpt lat="31.2707500" lon="35.2344500">
<ele>553.619995</ele>
<time>2024-11-18T09:15:24.098Z</time>
</trkpt>
<trkpt lat="31.2708700" lon="35.2345500">
<ele>552.609985</ele>
<time>2024-11-18T09:15:24.098Z</time>
</trkpt>
<trkpt lat="31.2712400" lon="35.2348900">
<ele>551.229980</ele>
<time>2024-11-18T09:15:24.098Z</time>
</trkpt>
<trkpt lat="31.2714700" lon="35.2350600">
<ele>550.079956</ele>
<time>2024-11-18T09:15:24.098Z</time>
</trkpt>
<trkpt lat="31.2715800" lon="35.2352200">
<ele>552.500000</ele>
<time>2024-11-18T09:15:24.098Z</time>
</trkpt>
<trkpt lat="31.2717200" lon="35.2353800">
<ele>553.559998</ele>
<time>2024-11-18T09:15:24.098Z</time>
</trkpt>
<trkpt lat="31.2717500" lon="35.2354600">
<ele>553.419983</ele>
<time>2024-11-18T09:15:24.098Z</time>
</trkpt>
<trkpt lat="31.2715600" lon="35.2356600">
<ele>553.200012</ele>
<time>2024-11-18T09:15:24.098Z</time>
</trkpt>
<trkpt lat="31.2713900" lon="35.2359600">
<ele>556.839966</ele>
<time>2024-11-18T09:15:24.098Z</time>
</trkpt>
<trkpt lat="31.2711600" lon="35.2363300">
<ele>557.890015</ele>
<time>2024-11-18T09:15:24.098Z</time>
</trkpt>
<trkpt lat="31.2709600" lon="35.2365900">
<ele>556.539978</ele>
<time>2024-11-18T09:15:24.098Z</time>
</trkpt>
<trkpt lat="31.2707300" lon="35.2369400">
<ele>556.090027</ele>
<time>2024-11-18T09:15:24.098Z</time>
</trkpt>
<trkpt lat="31.2705700" lon="35.2370700">
<ele>553.260010</ele>
<time>2024-11-18T09:15:24.098Z</time>
</trkpt>
<trkpt lat="31.2704400" lon="35.2372100">
<ele>550.109985</ele>
<time>2024-11-18T09:15:24.098Z</time>
</trkpt>
<trkpt lat="31.2703900" lon="35.2374300">
<ele>545.230042</ele>
<time>2024-11-18T09:15:24.098Z</time>
</trkpt>
<trkpt lat="31.2704900" lon="35.2375900">
<ele>544.679993</ele>
<time>2024-11-18T09:15:24.098Z</time>
</trkpt>
<trkpt lat="31.2705700" lon="35.2375500">
<ele>546.619995</ele>
<time>2024-11-18T09:15:24.098Z</time>
</trkpt>
<trkpt lat="31.2705700" lon="35.2375500">
<ele>546.619995</ele>
<time>2024-11-18T09:15:24.098Z</time>
</trkpt>
<trkpt lat="31.2705700" lon="35.2375500">
<ele>546.619995</ele>
<time>2024-11-18T09:15:24.098Z</time>
</trkpt>
<trkpt lat="31.2707300" lon="35.2374600">
<ele>552.080017</ele>
<time>2024-11-18T09:15:24.098Z</time>
</trkpt>
<trkpt lat="31.2710200" lon="35.2375700">
<ele>554.750000</ele>
<time>2024-11-18T09:15:24.098Z</time>
</trkpt>
<trkpt lat="31.2712600" lon="35.2374500">
<ele>555.710022</ele>
<time>2024-11-18T09:15:24.098Z</time>
</trkpt>
<trkpt lat="31.2715700" lon="35.2372100">
<ele>550.789978</ele>
<time>2024-11-18T09:15:24.098Z</time>
</trkpt>
<trkpt lat="31.2717200" lon="35.2370400">
<ele>549.440002</ele>
<time>2024-11-18T09:15:24.098Z</time>
</trkpt>
<trkpt lat="31.2718700" lon="35.2368700">
<ele>551.929993</ele>
<time>2024-11-18T09:15:24.098Z</time>
</trkpt>
<trkpt lat="31.2719600" lon="35.2367700">
<ele>555.700012</ele>
<time>2024-11-18T09:15:24.098Z</time>
</trkpt>
<trkpt lat="31.2723000" lon="35.2365000">
<ele>561.089966</ele>
<time>2024-11-18T09:15:24.098Z</time>
</trkpt>
<trkpt lat="31.2724800" lon="35.2363900">
<ele>560.330017</ele>
<time>2024-11-18T09:15:24.098Z</time>
</trkpt>
<trkpt lat="31.2726500" lon="35.2359800">
<ele>562.820007</ele>
<time>2024-11-18T09:15:24.098Z</time>
</trkpt>
<trkpt lat="31.2728900" lon="35.2357800">
<ele>559.650024</ele>
<time>2024-11-18T09:15:24.098Z</time>
</trkpt>
<trkpt lat="31.2730200" lon="35.2356400">
<ele>559.539978</ele>
<time>2024-11-18T09:15:24.098Z</time>
</trkpt>
<trkpt lat="31.2731500" lon="35.2354700">
<ele>561.520020</ele>
<time>2024-11-18T09:15:24.098Z</time>
</trkpt>
<trkpt lat="31.2732500" lon="35.2354600">
<ele>561.830017</ele>
<time>2024-11-18T09:15:24.098Z</time>
</trkpt>
<trkpt lat="31.2734600" lon="35.2354100">
<ele>562.350037</ele>
<time>2024-11-18T09:15:24.098Z</time>
</trkpt>
<trkpt lat="31.2736200" lon="35.2352900">
<ele>563.850037</ele>
<time>2024-11-18T09:15:24.098Z</time>
</trkpt>
<trkpt lat="31.2737800" lon="35.2350200">
<ele>569.410034</ele>
<time>2024-11-18T09:15:24.098Z</time>
</trkpt>
<trkpt lat="31.2738500" lon="35.2347400">
<ele>573.830017</ele>
<time>2024-11-18T09:15:24.098Z</time>
</trkpt>
<trkpt lat="31.2740000" lon="35.2346400">
<ele>573.500000</ele>
<time>2024-11-18T09:15:24.098Z</time>
</trkpt>
<trkpt lat="31.2744900" lon="35.2345700">
<ele>571.880005</ele>
<time>2024-11-18T09:15:24.098Z</time>
</trkpt>
<trkpt lat="31.2746700" lon="35.2348600">
<ele>569.830017</ele>
<time>2024-11-18T09:15:24.098Z</time>
</trkpt>
<trkpt lat="31.2747600" lon="35.2349600">
<ele>568.099976</ele>
<time>2024-11-18T09:15:24.098Z</time>
</trkpt>
<trkpt lat="31.2751900" lon="35.2352100">
<ele>567.190002</ele>
<time>2024-11-18T09:15:24.098Z</time>
</trkpt>
<trkpt lat="31.2753900" lon="35.2351600">
<ele>569.989990</ele>
<time>2024-11-18T09:15:24.098Z</time>
</trkpt>
<trkpt lat="31.2755600" lon="35.2351800">
<ele>572.469971</ele>
<time>2024-11-18T09:15:24.098Z</time>
</trkpt>
<trkpt lat="31.2758300" lon="35.2352800">
<ele>570.929993</ele>
<time>2024-11-18T09:15:24.098Z</time>
</trkpt>
<trkpt lat="31.2759700" lon="35.2352100">
<ele>573.210022</ele>
<time>2024-11-18T09:15:24.098Z</time>
</trkpt>
<trkpt lat="31.2761100" lon="35.2351100">
<ele>575.410034</ele>
<time>2024-11-18T09:15:24.098Z</time>
</trkpt>
<trkpt lat="31.2763500" lon="35.2348400">
<ele>576.330017</ele>
<time>2024-11-18T09:15:24.098Z</time>
</trkpt>
<trkpt lat="31.2766000" lon="35.2346500">
<ele>574.710022</ele>
<time>2024-11-18T09:15:24.098Z</time>
</trkpt>
<trkpt lat="31.2768100" lon="35.2344700">
<ele>577.390015</ele>
<time>2024-11-18T09:15:24.098Z</time>
</trkpt>
<trkpt lat="31.2769100" lon="35.2344100">
<ele>578.059998</ele>
<time>2024-11-18T09:15:24.098Z</time>
</trkpt>
<trkpt lat="31.2770000" lon="35.2350100">
<ele>577.210022</ele>
<time>2024-11-18T09:15:24.098Z</time>
</trkpt>
<trkpt lat="31.2769600" lon="35.2357100">
<ele>577.479980</ele>
<time>2024-11-18T09:15:24.098Z</time>
</trkpt>
<trkpt lat="31.2769500" lon="35.2359700">
<ele>577.500000</ele>
<time>2024-11-18T09:15:24.098Z</time>
</trkpt>
<trkpt lat="31.2770000" lon="35.2363100">
<ele>577.429993</ele>
<time>2024-11-18T09:15:24.098Z</time>
</trkpt>
<trkpt lat="31.2772100" lon="35.2364400">
<ele>573.820007</ele>
<time>2024-11-18T09:15:24.098Z</time>
</trkpt>
<trkpt lat="31.2777400" lon="35.2364400">
<ele>575.309998</ele>
<time>2024-11-18T09:15:24.098Z</time>
</trkpt>
<trkpt lat="31.2782800" lon="35.2367800">
<ele>578.489990</ele>
<time>2024-11-18T09:15:24.098Z</time>
</trkpt>
<trkpt lat="31.2785500" lon="35.2367800">
<ele>572.590027</ele>
<time>2024-11-18T09:15:24.098Z</time>
</trkpt>
<trkpt lat="31.2787000" lon="35.2365400">
<ele>571.369995</ele>
<time>2024-11-18T09:15:24.098Z</time>
</trkpt>
<trkpt lat="31.2788400" lon="35.2359300">
<ele>571.250000</ele>
<time>2024-11-18T09:15:24.098Z</time>
</trkpt>
<trkpt lat="31.2791200" lon="35.2353600">
<ele>579.200012</ele>
<time>2024-11-18T09:15:24.098Z</time>
</trkpt>
<trkpt lat="31.2794800" lon="35.2352100">
<ele>581.220032</ele>
<time>2024-11-18T09:15:24.098Z</time>
</trkpt>
<trkpt lat="31.2798800" lon="35.2354100">
<ele>583.000000</ele>
<time>2024-11-18T09:15:24.098Z</time>
</trkpt>
<trkpt lat="31.2800700" lon="35.2358300">
<ele>584.549988</ele>
<time>2024-11-18T09:15:24.098Z</time>
</trkpt>
<trkpt lat="31.2801700" lon="35.2364100">
<ele>577.770020</ele>
<time>2024-11-18T09:15:24.098Z</time>
</trkpt>
<trkpt lat="31.2803900" lon="35.2368200">
<ele>577.619995</ele>
<time>2024-11-18T09:15:24.098Z</time>
</trkpt>
<trkpt lat="31.2804200" lon="35.2371600">
<ele>575.830017</ele>
<time>2024-11-18T09:15:24.098Z</time>
</trkpt>
<trkpt lat="31.2804400" lon="35.2377000">
<ele>576.739990</ele>
<time>2024-11-18T09:15:24.098Z</time>
</trkpt>
<trkpt lat="31.2803200" lon="35.2381200">
<ele>574.330017</ele>
<time>2024-11-18T09:15:24.098Z</time>
</trkpt>
<trkpt lat="31.2804300" lon="35.2383000">
<ele>575.459961</ele>
<time>2024-11-18T09:15:24.098Z</time>
</trkpt>
<trkpt lat="31.2805700" lon="35.2383500">
<ele>577.609985</ele>
<time>2024-11-18T09:15:24.098Z</time>
</trkpt>
<trkpt lat="31.2806400" lon="35.2384100">
<ele>575.789978</ele>
<time>2024-11-18T09:15:24.098Z</time>
</trkpt>
<trkpt lat="31.2807200" lon="35.2384700">
<ele>573.570007</ele>
<time>2024-11-18T09:15:24.098Z</time>
</trkpt>
<trkpt lat="31.2807600" lon="35.2387400">
<ele>570.239990</ele>
<time>2024-11-18T09:15:24.098Z</time>
</trkpt>
<trkpt lat="31.2806200" lon="35.2393000">
<ele>572.659973</ele>
<time>2024-11-18T09:15:24.098Z</time>
</trkpt>
<trkpt lat="31.2806600" lon="35.2396300">
<ele>575.130005</ele>
<time>2024-11-18T09:15:24.098Z</time>
</trkpt>
<trkpt lat="31.2807800" lon="35.2398400">
<ele>577.000000</ele>
<time>2024-11-18T09:15:24.098Z</time>
</trkpt>
<trkpt lat="31.2809600" lon="35.2399900">
<ele>579.299988</ele>
<time>2024-11-18T09:15:24.098Z</time>
</trkpt>
<trkpt lat="31.2810300" lon="35.2400200">
<ele>579.630005</ele>
<time>2024-11-18T09:15:24.098Z</time>
</trkpt>
<trkpt lat="31.2810500" lon="35.2399500">
<ele>578.919983</ele>
<time>2024-11-18T09:15:24.098Z</time>
</trkpt>
<trkpt lat="31.2808900" lon="35.2398400">
<ele>576.780029</ele>
<time>2024-11-18T09:15:24.098Z</time>
</trkpt>
<trkpt lat="31.2807500" lon="35.2396100">
<ele>574.109985</ele>
<time>2024-11-18T09:15:24.098Z</time>
</trkpt>
<trkpt lat="31.2808400" lon="35.2392800">
<ele>569.750000</ele>
<time>2024-11-18T09:15:24.098Z</time>
</trkpt>
<trkpt lat="31.2811100" lon="35.2389000">
<ele>566.960022</ele>
<time>2024-11-18T09:15:24.098Z</time>
</trkpt>
<trkpt lat="31.2813800" lon="35.2387400">
<ele>560.640015</ele>
<time>2024-11-18T09:15:24.098Z</time>
</trkpt>
<trkpt lat="31.2814900" lon="35.2386100">
<ele>558.919983</ele>
<time>2024-11-18T09:15:24.098Z</time>
</trkpt>
<trkpt lat="31.2815500" lon="35.2385300">
<ele>559.090027</ele>
<time>2024-11-18T09:15:24.098Z</time>
</trkpt>
<trkpt lat="31.2817000" lon="35.2383200">
<ele>558.929993</ele>
<time>2024-11-18T09:15:24.098Z</time>
</trkpt>
<trkpt lat="31.2819400" lon="35.2385300">
<ele>554.220032</ele>
<time>2024-11-18T09:15:24.098Z</time>
</trkpt>
<trkpt lat="31.2821500" lon="35.2390100">
<ele>549.730042</ele>
<time>2024-11-18T09:15:24.098Z</time>
</trkpt>
<trkpt lat="31.2822400" lon="35.2392100">
<ele>548.039978</ele>
<time>2024-11-18T09:15:24.098Z</time>
</trkpt>
<trkpt lat="31.2827000" lon="35.2394900">
<ele>544.859985</ele>
<time>2024-11-18T09:15:24.098Z</time>
</trkpt>
<trkpt lat="31.2830400" lon="35.2398600">
<ele>543.549988</ele>
<time>2024-11-18T09:15:24.098Z</time>
</trkpt>
<trkpt lat="31.2830100" lon="35.2399900">
<ele>541.489990</ele>
<time>2024-11-18T09:15:24.098Z</time>
</trkpt>
<trkpt lat="31.2830100" lon="35.2401000">
<ele>540.669983</ele>
<time>2024-11-18T09:15:24.098Z</time>
</trkpt>
<trkpt lat="31.2830900" lon="35.2404000">
<ele>538.380005</ele>
<time>2024-11-18T09:15:24.098Z</time>
</trkpt>
<trkpt lat="31.2832000" lon="35.2408000">
<ele>537.799988</ele>
<time>2024-11-18T09:15:24.098Z</time>
</trkpt>
<trkpt lat="31.2834500" lon="35.2414200">
<ele>539.219971</ele>
<time>2024-11-18T09:15:24.098Z</time>
</trkpt>
<trkpt lat="31.2834800" lon="35.2416400">
<ele>540.809998</ele>
<time>2024-11-18T09:15:24.098Z</time>
</trkpt>
<trkpt lat="31.2834900" lon="35.2419700">
<ele>540.910034</ele>
<time>2024-11-18T09:15:24.098Z</time>
</trkpt>
<trkpt lat="31.2834800" lon="35.2422100">
<ele>540.039978</ele>
<time>2024-11-18T09:15:24.098Z</time>
</trkpt>
<trkpt lat="31.2835000" lon="35.2423400">
<ele>539.660034</ele>
<time>2024-11-18T09:15:24.098Z</time>
</trkpt>
<trkpt lat="31.2836100" lon="35.2426000">
<ele>537.650024</ele>
<time>2024-11-18T09:15:24.098Z</time>
</trkpt>
<trkpt lat="31.2836100" lon="35.2427300">
<ele>537.190002</ele>
<time>2024-11-18T09:15:24.098Z</time>
</trkpt>
<trkpt lat="31.2836000" lon="35.2428900">
<ele>537.599976</ele>
<time>2024-11-18T09:15:24.098Z</time>
</trkpt>
<trkpt lat="31.2836300" lon="35.2432000">
<ele>539.070007</ele>
<time>2024-11-18T09:15:24.098Z</time>
</trkpt>
<trkpt lat="31.2835800" lon="35.2437200">
<ele>544.970032</ele>
<time>2024-11-18T09:15:24.098Z</time>
</trkpt>
<trkpt lat="31.2836000" lon="35.2438500">
<ele>546.570007</ele>
<time>2024-11-18T09:15:24.098Z</time>
</trkpt>
<trkpt lat="31.2836900" lon="35.2440700">
<ele>547.630005</ele>
<time>2024-11-18T09:15:24.098Z</time>
</trkpt>
<trkpt lat="31.2837700" lon="35.2442100">
<ele>547.609985</ele>
<time>2024-11-18T09:15:24.098Z</time>
</trkpt>
<trkpt lat="31.2839500" lon="35.2444400">
<ele>546.399963</ele>
<time>2024-11-18T09:15:24.098Z</time>
</trkpt>
<trkpt lat="31.2840000" lon="35.2445300">
<ele>545.320007</ele>
<time>2024-11-18T09:15:24.098Z</time>
</trkpt>
<trkpt lat="31.2840000" lon="35.2445300">
<ele>545.320007</ele>
<time>2024-11-18T09:15:24.098Z</time>
</trkpt>
<trkpt lat="31.2840000" lon="35.2445300">
<ele>545.320007</ele>
<time>2024-11-18T09:15:24.098Z</time>
</trkpt>
<trkpt lat="31.2840500" lon="35.2446300">
<ele>544.330017</ele>
<time>2024-11-18T09:15:24.098Z</time>
</trkpt>
<trkpt lat="31.2840900" lon="35.2447100">
<ele>543.619995</ele>
<time>2024-11-18T09:15:24.098Z</time>
</trkpt>
<trkpt lat="31.2841000" lon="35.2448000">
<ele>543.510010</ele>
<time>2024-11-18T09:15:24.098Z</time>
</trkpt>
<trkpt lat="31.2841100" lon="35.2450100">
<ele>543.470032</ele>
<time>2024-11-18T09:15:24.098Z</time>
</trkpt>
<trkpt lat="31.2840900" lon="35.2453100">
<ele>545.440002</ele>
<time>2024-11-18T09:15:24.098Z</time>
</trkpt>
<trkpt lat="31.2841900" lon="35.2459600">
<ele>551.440002</ele>
<time>2024-11-18T09:15:24.098Z</time>
</trkpt>
<trkpt lat="31.2842200" lon="35.2460900">
<ele>552.909973</ele>
<time>2024-11-18T09:15:24.098Z</time>
</trkpt>
<trkpt lat="31.2844900" lon="35.2466700">
<ele>551.169983</ele>
<time>2024-11-18T09:15:24.098Z</time>
</trkpt>
<trkpt lat="31.2845100" lon="35.2467900">
<ele>549.409973</ele>
<time>2024-11-18T09:15:24.098Z</time>
</trkpt>
<trkpt lat="31.2845000" lon="35.2469100">
<ele>548.869995</ele>
<time>2024-11-18T09:15:24.098Z</time>
</trkpt>
<trkpt lat="31.2844900" lon="35.2469900">
<ele>548.869995</ele>
<time>2024-11-18T09:15:24.098Z</time>
</trkpt>
<trkpt lat="31.2844900" lon="35.2471300">
<ele>548.360046</ele>
<time>2024-11-18T09:15:24.098Z</time>
</trkpt>
<trkpt lat="31.2844900" lon="35.2474300">
<ele>548.520020</ele>
<time>2024-11-18T09:15:24.098Z</time>
</trkpt>
<trkpt lat="31.2846400" lon="35.2475600">
<ele>544.609985</ele>
<time>2024-11-18T09:15:24.098Z</time>
</trkpt>
<trkpt lat="31.2847600" lon="35.2478100">
<ele>542.419983</ele>
<time>2024-11-18T09:15:24.098Z</time>
</trkpt>
<trkpt lat="31.2845000" lon="35.2480000">
<ele>546.559998</ele>
<time>2024-11-18T09:15:24.098Z</time>
</trkpt>
<trkpt lat="31.2839800" lon="35.2480400">
<ele>541.169983</ele>
<time>2024-11-18T09:15:24.098Z</time>
</trkpt>
<trkpt lat="31.2835400" lon="35.2478600">
<ele>533.820007</ele>
<time>2024-11-18T09:15:24.098Z</time>
</trkpt>
<trkpt lat="31.2832700" lon="35.2479500">
<ele>525.500000</ele>
<time>2024-11-18T09:15:24.098Z</time>
</trkpt>
<trkpt lat="31.2834900" lon="35.2482100">
<ele>527.880005</ele>
<time>2024-11-18T09:15:24.098Z</time>
</trkpt>
<trkpt lat="31.2833800" lon="35.2484800">
<ele>525.530029</ele>
<time>2024-11-18T09:15:24.098Z</time>
</trkpt>
<trkpt lat="31.2838300" lon="35.2494500">
<ele>518.250000</ele>
<time>2024-11-18T09:15:24.098Z</time>
</trkpt>
<trkpt lat="31.2841400" lon="35.2494900">
<ele>515.190002</ele>
<time>2024-11-18T09:15:24.098Z</time>
</trkpt>
<trkpt lat="31.2845700" lon="35.2493600">
<ele>510.959991</ele>
<time>2024-11-18T09:15:24.098Z</time>
</trkpt>
<trkpt lat="31.2855300" lon="35.2489200">
<ele>502.259979</ele>
<time>2024-11-18T09:15:24.098Z</time>
</trkpt>
<trkpt lat="31.2855300" lon="35.2490300">
<ele>500.559998</ele>
<time>2024-11-18T09:15:24.098Z</time>
</trkpt>
<trkpt lat="31.2852600" lon="35.2492000">
<ele>502.290009</ele>
<time>2024-11-18T09:15:24.098Z</time>
</trkpt>
<trkpt lat="31.2850500" lon="35.2494300">
<ele>498.000000</ele>
<time>2024-11-18T09:15:24.098Z</time>
</trkpt>
<trkpt lat="31.2849500" lon="35.2498200">
<ele>494.769989</ele>
<time>2024-11-18T09:15:24.098Z</time>
</trkpt>
<trkpt lat="31.2849600" lon="35.2501000">
<ele>491.989990</ele>
<time>2024-11-18T09:15:24.098Z</time>
</trkpt>
<trkpt lat="31.2851200" lon="35.2502100">
<ele>491.790009</ele>
<time>2024-11-18T09:15:24.098Z</time>
</trkpt>
<trkpt lat="31.2854500" lon="35.2501800">
<ele>489.070007</ele>
<time>2024-11-18T09:15:24.098Z</time>
</trkpt>
<trkpt lat="31.2856900" lon="35.2502000">
<ele>485.000000</ele>
<time>2024-11-18T09:15:24.098Z</time>
</trkpt>
<trkpt lat="31.2859100" lon="35.2502000">
<ele>480.989990</ele>
<time>2024-11-18T09:15:24.098Z</time>
</trkpt>
<trkpt lat="31.2862300" lon="35.2502400">
<ele>476.980011</ele>
<time>2024-11-18T09:15:24.098Z</time>
</trkpt>
<trkpt lat="31.2866400" lon="35.2501200">
<ele>470.270020</ele>
<time>2024-11-18T09:15:24.098Z</time>
</trkpt>
<trkpt lat="31.2870200" lon="35.2500600">
<ele>470.539978</ele>
<time>2024-11-18T09:15:24.098Z</time>
</trkpt>
<trkpt lat="31.2871700" lon="35.2501200">
<ele>475.070007</ele>
<time>2024-11-18T09:15:24.098Z</time>
</trkpt>
<trkpt lat="31.2875400" lon="35.2503400">
<ele>470.130005</ele>
<time>2024-11-18T09:15:24.098Z</time>
</trkpt>
<trkpt lat="31.2876600" lon="35.2504500">
<ele>469.729980</ele>
<time>2024-11-18T09:15:24.098Z</time>
</trkpt>
<trkpt lat="31.2877800" lon="35.2506000">
<ele>469.989990</ele>
<time>2024-11-18T09:15:24.098Z</time>
</trkpt>
<trkpt lat="31.2878100" lon="35.2510500">
<ele>475.880005</ele>
<time>2024-11-18T09:15:24.098Z</time>
</trkpt>
<trkpt lat="31.2879300" lon="35.2511200">
<ele>473.050018</ele>
<time>2024-11-18T09:15:24.098Z</time>
</trkpt>
<trkpt lat="31.2881700" lon="35.2509000">
<ele>472.490021</ele>
<time>2024-11-18T09:15:24.098Z</time>
</trkpt>
<trkpt lat="31.2883100" lon="35.2509400">
<ele>472.059998</ele>
<time>2024-11-18T09:15:24.098Z</time>
</trkpt>
<trkpt lat="31.2884200" lon="35.2510700">
<ele>469.910004</ele>
<time>2024-11-18T09:15:24.098Z</time>
</trkpt>
<trkpt lat="31.2886600" lon="35.2511600">
<ele>469.469971</ele>
<time>2024-11-18T09:15:24.098Z</time>
</trkpt>
<trkpt lat="31.2889200" lon="35.2513000">
<ele>467.660004</ele>
<time>2024-11-18T09:15:24.098Z</time>
</trkpt>
<trkpt lat="31.2892000" lon="35.2513900">
<ele>463.510010</ele>
<time>2024-11-18T09:15:24.098Z</time>
</trkpt>
<trkpt lat="31.2896400" lon="35.2514300">
<ele>457.439972</ele>
<time>2024-11-18T09:15:24.098Z</time>
</trkpt>
<trkpt lat="31.2899300" lon="35.2514000">
<ele>455.410004</ele>
<time>2024-11-18T09:15:24.098Z</time>
</trkpt>
<trkpt lat="31.2900400" lon="35.2514200">
<ele>454.420013</ele>
<time>2024-11-18T09:15:24.098Z</time>
</trkpt>
<trkpt lat="31.2902300" lon="35.2514900">
<ele>451.410004</ele>
<time>2024-11-18T09:15:24.098Z</time>
</trkpt>
<trkpt lat="31.2903500" lon="35.2514700">
<ele>451.399994</ele>
<time>2024-11-18T09:15:24.098Z</time>
</trkpt>
<trkpt lat="31.2905600" lon="35.2514100">
<ele>452.709991</ele>
<time>2024-11-18T09:15:24.098Z</time>
</trkpt>
<trkpt lat="31.2908300" lon="35.2514200">
<ele>453.539978</ele>
<time>2024-11-18T09:15:24.098Z</time>
</trkpt>
<trkpt lat="31.2911100" lon="35.2513300">
<ele>451.650024</ele>
<time>2024-11-18T09:15:24.098Z</time>
</trkpt>
<trkpt lat="31.2912300" lon="35.2513200">
<ele>451.209991</ele>
<time>2024-11-18T09:15:24.098Z</time>
</trkpt>
<trkpt lat="31.2914500" lon="35.2513300">
<ele>450.089996</ele>
<time>2024-11-18T09:15:24.098Z</time>
</trkpt>
<trkpt lat="31.2915700" lon="35.2513200">
<ele>449.040009</ele>
<time>2024-11-18T09:15:24.098Z</time>
</trkpt>
<trkpt lat="31.2916600" lon="35.2513400">
<ele>448.520020</ele>
<time>2024-11-18T09:15:24.098Z</time>
</trkpt>
<trkpt lat="31.2917300" lon="35.2514000">
<ele>447.429993</ele>
<time>2024-11-18T09:15:24.098Z</time>
</trkpt>
<trkpt lat="31.2915300" lon="35.2517800">
<ele>453.360016</ele>
<time>2024-11-18T09:15:24.098Z</time>
</trkpt>
<trkpt lat="31.2917200" lon="35.2524100">
<ele>454.369995</ele>
<time>2024-11-18T09:15:24.098Z</time>
</trkpt>
<trkpt lat="31.2918200" lon="35.2526300">
<ele>449.139984</ele>
<time>2024-11-18T09:15:24.098Z</time>
</trkpt>
<trkpt lat="31.2918200" lon="35.2526300">
<ele>449.139984</ele>
<time>2024-11-18T09:15:24.098Z</time>
</trkpt>
<trkpt lat="31.2920400" lon="35.2530800">
<ele>435.070007</ele>
<time>2024-11-18T09:15:24.098Z</time>
</trkpt>
<trkpt lat="31.2925300" lon="35.2531900">
<ele>424.200012</ele>
<time>2024-11-18T09:15:24.098Z</time>
</trkpt>
<trkpt lat="31.2927400" lon="35.2530800">
<ele>422.619995</ele>
<time>2024-11-18T09:15:24.098Z</time>
</trkpt>
<trkpt lat="31.2929300" lon="35.2531200">
<ele>422.690002</ele>
<time>2024-11-18T09:15:24.098Z</time>
</trkpt>
<trkpt lat="31.2932500" lon="35.2532000">
<ele>422.089996</ele>
<time>2024-11-18T09:15:24.098Z</time>
</trkpt>
<trkpt lat="31.2933900" lon="35.2531100">
<ele>423.339996</ele>
<time>2024-11-18T09:15:24.098Z</time>
</trkpt>
<trkpt lat="31.2937700" lon="35.2530500">
<ele>425.389984</ele>
<time>2024-11-18T09:15:24.098Z</time>
</trkpt>
<trkpt lat="31.2939600" lon="35.2531500">
<ele>422.979980</ele>
<time>2024-11-18T09:15:24.098Z</time>
</trkpt>
<trkpt lat="31.2942700" lon="35.2535500">
<ele>415.929993</ele>
<time>2024-11-18T09:15:24.098Z</time>
</trkpt>
<trkpt lat="31.2944100" lon="35.2536100">
<ele>415.659973</ele>
<time>2024-11-18T09:15:24.098Z</time>
</trkpt>
<trkpt lat="31.2946500" lon="35.2536400">
<ele>415.929993</ele>
<time>2024-11-18T09:15:24.098Z</time>
</trkpt>
<trkpt lat="31.2947900" lon="35.2535200">
<ele>417.820007</ele>
<time>2024-11-18T09:15:24.098Z</time>
</trkpt>
<trkpt lat="31.2948500" lon="35.2534200">
<ele>418.829987</ele>
<time>2024-11-18T09:15:24.098Z</time>
</trkpt>
<trkpt lat="31.2949700" lon="35.2533100">
<ele>419.859985</ele>
<time>2024-11-18T09:15:24.098Z</time>
</trkpt>
<trkpt lat="31.2949900" lon="35.2534300">
<ele>417.679993</ele>
<time>2024-11-18T09:15:24.098Z</time>
</trkpt>
<trkpt lat="31.2949900" lon="35.2537000">
<ele>414.369995</ele>
<time>2024-11-18T09:15:24.098Z</time>
</trkpt>
<trkpt lat="31.2949700" lon="35.2540600">
<ele>410.210022</ele>
<time>2024-11-18T09:15:24.098Z</time>
</trkpt>
<trkpt lat="31.2950400" lon="35.2541800">
<ele>409.100006</ele>
<time>2024-11-18T09:15:24.098Z</time>
</trkpt>
<trkpt lat="31.2951700" lon="35.2542300">
<ele>409.309998</ele>
<time>2024-11-18T09:15:24.098Z</time>
</trkpt>
<trkpt lat="31.2955100" lon="35.2543200">
<ele>407.119995</ele>
<time>2024-11-18T09:15:24.098Z</time>
</trkpt>
<trkpt lat="31.2959800" lon="35.2548400">
<ele>395.170013</ele>
<time>2024-11-18T09:15:24.098Z</time>
</trkpt>
<trkpt lat="31.2961900" lon="35.2553100">
<ele>398.209991</ele>
<time>2024-11-18T09:15:24.098Z</time>
</trkpt>
<trkpt lat="31.2963600" lon="35.2555000">
<ele>397.820007</ele>
<time>2024-11-18T09:15:24.098Z</time>
</trkpt>
<trkpt lat="31.2963800" lon="35.2555800">
<ele>398.130005</ele>
<time>2024-11-18T09:15:24.098Z</time>
</trkpt>
<trkpt lat="31.2964100" lon="35.2557700">
<ele>397.240021</ele>
<time>2024-11-18T09:15:24.098Z</time>
</trkpt>
<trkpt lat="31.2964000" lon="35.2559100">
<ele>397.570007</ele>
<time>2024-11-18T09:15:24.098Z</time>
</trkpt>
<trkpt lat="31.2963800" lon="35.2560400">
<ele>398.189972</ele>
<time>2024-11-18T09:15:24.098Z</time>
</trkpt>
<trkpt lat="31.2963700" lon="35.2561400">
<ele>397.889984</ele>
<time>2024-11-18T09:15:24.098Z</time>
</trkpt>
<trkpt lat="31.2963800" lon="35.2562900">
<ele>394.970001</ele>
<time>2024-11-18T09:15:24.098Z</time>
</trkpt>
<trkpt lat="31.2963700" lon="35.2564400">
<ele>392.660004</ele>
<time>2024-11-18T09:15:24.098Z</time>
</trkpt>
<trkpt lat="31.2963300" lon="35.2566500">
<ele>390.310028</ele>
<time>2024-11-18T09:15:24.098Z</time>
</trkpt>
<trkpt lat="31.2962700" lon="35.2569300">
<ele>386.809998</ele>
<time>2024-11-18T09:15:24.098Z</time>
</trkpt>
<trkpt lat="31.2962800" lon="35.2577200">
<ele>380.989990</ele>
<time>2024-11-18T09:15:24.098Z</time>
</trkpt>
<trkpt lat="31.2961200" lon="35.2583700">
<ele>368.179993</ele>
<time>2024-11-18T09:15:24.098Z</time>
</trkpt>
<trkpt lat="31.2960200" lon="35.2593000">
<ele>369.350006</ele>
<time>2024-11-18T09:15:24.098Z</time>
</trkpt>
<trkpt lat="31.2960300" lon="35.2594000">
<ele>369.440002</ele>
<time>2024-11-18T09:15:24.098Z</time>
</trkpt>
<trkpt lat="31.2960300" lon="35.2594000">
<ele>369.440002</ele>
<time>2024-11-18T09:15:24.098Z</time>
</trkpt>
<trkpt lat="31.2960300" lon="35.2594000">
<ele>369.440002</ele>
<time>2024-11-18T09:15:24.098Z</time>
</trkpt>
<trkpt lat="31.2960300" lon="35.2594000">
<ele>369.440002</ele>
<time>2024-11-18T09:15:24.098Z</time>
</trkpt>
<trkpt lat="31.2961700" lon="35.2592500">
<ele>370.000000</ele>
<time>2024-11-18T09:15:24.098Z</time>
</trkpt>
<trkpt lat="31.2970100" lon="35.2577000">
<ele>362.610016</ele>
<time>2024-11-18T09:15:24.098Z</time>
</trkpt>
<trkpt lat="31.2971000" lon="35.2576300">
<ele>360.589996</ele>
<time>2024-11-18T09:15:24.098Z</time>
</trkpt>
<trkpt lat="31.2972400" lon="35.2577000">
<ele>355.360016</ele>
<time>2024-11-18T09:15:24.098Z</time>
</trkpt>
<trkpt lat="31.2974000" lon="35.2578900">
<ele>353.309998</ele>
<time>2024-11-18T09:15:24.098Z</time>
</trkpt>
<trkpt lat="31.2977300" lon="35.2584200">
<ele>346.770020</ele>
<time>2024-11-18T09:15:24.098Z</time>
</trkpt>
<trkpt lat="31.2977900" lon="35.2586400">
<ele>344.290009</ele>
<time>2024-11-18T09:15:24.098Z</time>
</trkpt>
<trkpt lat="31.2979500" lon="35.2599000">
<ele>336.140015</ele>
<time>2024-11-18T09:15:24.098Z</time>
</trkpt>
<trkpt lat="31.2979500" lon="35.2600600">
<ele>336.509979</ele>
<time>2024-11-18T09:15:24.098Z</time>
</trkpt>
<trkpt lat="31.2979100" lon="35.2602600">
<ele>338.359985</ele>
<time>2024-11-18T09:15:24.098Z</time>
</trkpt>
<trkpt lat="31.2978700" lon="35.2603900">
<ele>338.800018</ele>
<time>2024-11-18T09:15:24.098Z</time>
</trkpt>
<trkpt lat="31.2978500" lon="35.2605300">
<ele>338.779999</ele>
<time>2024-11-18T09:15:24.098Z</time>
</trkpt>
<trkpt lat="31.2978700" lon="35.2607000">
<ele>340.040009</ele>
<time>2024-11-18T09:15:24.098Z</time>
</trkpt>
<trkpt lat="31.2978600" lon="35.2609500">
<ele>341.360016</ele>
<time>2024-11-18T09:15:24.098Z</time>
</trkpt>
<trkpt lat="31.2978700" lon="35.2612600">
<ele>340.029999</ele>
<time>2024-11-18T09:15:24.098Z</time>
</trkpt>
<trkpt lat="31.2980900" lon="35.2615300">
<ele>337.040009</ele>
<time>2024-11-18T09:15:24.098Z</time>
</trkpt>
<trkpt lat="31.2981600" lon="35.2618100">
<ele>333.529999</ele>
<time>2024-11-18T09:15:24.098Z</time>
</trkpt>
<trkpt lat="31.2982200" lon="35.2621700">
<ele>331.889984</ele>
<time>2024-11-18T09:15:24.098Z</time>
</trkpt>
<trkpt lat="31.2982900" lon="35.2624400">
<ele>332.410004</ele>
<time>2024-11-18T09:15:24.098Z</time>
</trkpt>
<trkpt lat="31.2983900" lon="35.2626800">
<ele>331.490021</ele>
<time>2024-11-18T09:15:24.098Z</time>
</trkpt>
<trkpt lat="31.2984700" lon="35.2629900">
<ele>329.860016</ele>
<time>2024-11-18T09:15:24.098Z</time>
</trkpt>
<trkpt lat="31.2985100" lon="35.2632500">
<ele>327.259979</ele>
<time>2024-11-18T09:15:24.098Z</time>
</trkpt>
<trkpt lat="31.2985400" lon="35.2637100">
<ele>321.290009</ele>
<time>2024-11-18T09:15:24.098Z</time>
</trkpt>
<trkpt lat="31.2985700" lon="35.2645400">
<ele>318.789978</ele>
<time>2024-11-18T09:15:24.098Z</time>
</trkpt>
<trkpt lat="31.2986700" lon="35.2653600">
<ele>314.260010</ele>
<time>2024-11-18T09:15:24.098Z</time>
</trkpt>
<trkpt lat="31.2987500" lon="35.2657100">
<ele>309.889984</ele>
<time>2024-11-18T09:15:24.098Z</time>
</trkpt>
<trkpt lat="31.2988100" lon="35.2659300">
<ele>307.769989</ele>
<time>2024-11-18T09:15:24.098Z</time>
</trkpt>
<trkpt lat="31.2988300" lon="35.2660500">
<ele>306.699982</ele>
<time>2024-11-18T09:15:24.098Z</time>
</trkpt>
<trkpt lat="31.2987900" lon="35.2664400">
<ele>307.029999</ele>
<time>2024-11-18T09:15:24.098Z</time>
</trkpt>
<trkpt lat="31.2987800" lon="35.2668200">
<ele>310.889984</ele>
<time>2024-11-18T09:15:24.098Z</time>
</trkpt>
<trkpt lat="31.2987600" lon="35.2669300">
<ele>311.820007</ele>
<time>2024-11-18T09:15:24.098Z</time>
</trkpt>
<trkpt lat="31.2986600" lon="35.2672000">
<ele>313.410004</ele>
<time>2024-11-18T09:15:24.098Z</time>
</trkpt>
<trkpt lat="31.2985500" lon="35.2673600">
<ele>312.399994</ele>
<time>2024-11-18T09:15:24.098Z</time>
</trkpt>
<trkpt lat="31.2985700" lon="35.2674400">
<ele>312.559998</ele>
<time>2024-11-18T09:15:24.098Z</time>
</trkpt>
<trkpt lat="31.2986500" lon="35.2675700">
<ele>311.690002</ele>
<time>2024-11-18T09:15:24.098Z</time>
</trkpt>
<trkpt lat="31.2986900" lon="35.2676300">
<ele>310.489990</ele>
<time>2024-11-18T09:15:24.098Z</time>
</trkpt>
<trkpt lat="31.2987000" lon="35.2676900">
<ele>309.929993</ele>
<time>2024-11-18T09:15:24.098Z</time>
</trkpt>
<trkpt lat="31.2989700" lon="35.2681700">
<ele>307.480011</ele>
<time>2024-11-18T09:15:24.098Z</time>
</trkpt>
<trkpt lat="31.2991600" lon="35.2684300">
<ele>307.390015</ele>
<time>2024-11-18T09:15:24.098Z</time>
</trkpt>
<trkpt lat="31.2993100" lon="35.2683200">
<ele>305.820007</ele>
<time>2024-11-18T09:15:24.098Z</time>
</trkpt>
<trkpt lat="31.2993400" lon="35.2682300">
<ele>304.639984</ele>
<time>2024-11-18T09:15:24.098Z</time>
</trkpt>
<trkpt lat="31.2994500" lon="35.2678900">
<ele>300.160004</ele>
<time>2024-11-18T09:15:24.098Z</time>
</trkpt>
<trkpt lat="31.2994800" lon="35.2678100">
<ele>298.980011</ele>
<time>2024-11-18T09:15:24.098Z</time>
</trkpt>
<trkpt lat="31.2995200" lon="35.2677500">
<ele>298.160004</ele>
<time>2024-11-18T09:15:24.098Z</time>
</trkpt>
<trkpt lat="31.2995700" lon="35.2676900">
<ele>297.500000</ele>
<time>2024-11-18T09:15:24.098Z</time>
</trkpt>
<trkpt lat="31.2996100" lon="35.2676400">
<ele>296.919983</ele>
<time>2024-11-18T09:15:24.098Z</time>
</trkpt>
<trkpt lat="31.2996600" lon="35.2675900">
<ele>296.149994</ele>
<time>2024-11-18T09:15:24.098Z</time>
</trkpt>
<trkpt lat="31.2997000" lon="35.2675500">
<ele>295.489990</ele>
<time>2024-11-18T09:15:24.098Z</time>
</trkpt>
<trkpt lat="31.2997600" lon="35.2675200">
<ele>295.589996</ele>
<time>2024-11-18T09:15:24.098Z</time>
</trkpt>
<trkpt lat="31.2998100" lon="35.2674900">
<ele>296.380005</ele>
<time>2024-11-18T09:15:24.098Z</time>
</trkpt>
<trkpt lat="31.2998700" lon="35.2674800">
<ele>297.380005</ele>
<time>2024-11-18T09:15:24.098Z</time>
</trkpt>
<trkpt lat="31.2999500" lon="35.2675000">
<ele>298.279999</ele>
<time>2024-11-18T09:15:24.098Z</time>
</trkpt>
<trkpt lat="31.3000000" lon="35.2675700">
<ele>298.500000</ele>
<time>2024-11-18T09:15:24.098Z</time>
</trkpt>
<trkpt lat="31.3000600" lon="35.2676400">
<ele>300.480011</ele>
<time>2024-11-18T09:15:24.098Z</time>
</trkpt>
<trkpt lat="31.3001600" lon="35.2677100">
<ele>304.260010</ele>
<time>2024-11-18T09:15:24.098Z</time>
</trkpt>
<trkpt lat="31.3002300" lon="35.2677300">
<ele>307.140015</ele>
<time>2024-11-18T09:15:24.098Z</time>
</trkpt>
<trkpt lat="31.3004400" lon="35.2678500">
<ele>310.119995</ele>
<time>2024-11-18T09:15:24.098Z</time>
</trkpt>
<trkpt lat="31.3005000" lon="35.2678800">
<ele>310.589996</ele>
<time>2024-11-18T09:15:24.098Z</time>
</trkpt>
<trkpt lat="31.3008500" lon="35.2680300">
<ele>307.989990</ele>
<time>2024-11-18T09:15:24.098Z</time>
</trkpt>
<trkpt lat="31.3012600" lon="35.2681100">
<ele>302.100006</ele>
<time>2024-11-18T09:15:24.098Z</time>
</trkpt>
<trkpt lat="31.3013900" lon="35.2681500">
<ele>299.000000</ele>
<time>2024-11-18T09:15:24.098Z</time>
</trkpt>
<trkpt lat="31.3019600" lon="35.2681700">
<ele>305.489990</ele>
<time>2024-11-18T09:15:24.098Z</time>
</trkpt>
<trkpt lat="31.3021200" lon="35.2681200">
<ele>303.480011</ele>
<time>2024-11-18T09:15:24.098Z</time>
</trkpt>
<trkpt lat="31.3023100" lon="35.2679500">
<ele>301.920013</ele>
<time>2024-11-18T09:15:24.098Z</time>
</trkpt>
<trkpt lat="31.3023500" lon="35.2679100">
<ele>301.470001</ele>
<time>2024-11-18T09:15:24.098Z</time>
</trkpt>
<trkpt lat="31.3025000" lon="35.2677600">
<ele>300.190002</ele>
<time>2024-11-18T09:15:24.098Z</time>
</trkpt>
<trkpt lat="31.3025500" lon="35.2677100">
<ele>301.140015</ele>
<time>2024-11-18T09:15:24.098Z</time>
</trkpt>
<trkpt lat="31.3026800" lon="35.2675400">
<ele>304.420013</ele>
<time>2024-11-18T09:15:24.098Z</time>
</trkpt>
<trkpt lat="31.3027500" lon="35.2674800">
<ele>305.839996</ele>
<time>2024-11-18T09:15:24.098Z</time>
</trkpt>
<trkpt lat="31.3028700" lon="35.2674200">
<ele>307.239990</ele>
<time>2024-11-18T09:15:24.098Z</time>
</trkpt>
<trkpt lat="31.3030500" lon="35.2673400">
<ele>309.110016</ele>
<time>2024-11-18T09:15:24.098Z</time>
</trkpt>
<trkpt lat="31.3031700" lon="35.2674900">
<ele>310.130005</ele>
<time>2024-11-18T09:15:24.098Z</time>
</trkpt>
<trkpt lat="31.3032200" lon="35.2675700">
<ele>311.010010</ele>
<time>2024-11-18T09:15:24.098Z</time>
</trkpt>
<trkpt lat="31.3032500" lon="35.2677300">
<ele>311.830017</ele>
<time>2024-11-18T09:15:24.098Z</time>
</trkpt>
<trkpt lat="31.3032800" lon="35.2677900">
<ele>312.699982</ele>
<time>2024-11-18T09:15:24.098Z</time>
</trkpt>
<trkpt lat="31.3033200" lon="35.2678900">
<ele>314.380005</ele>
<time>2024-11-18T09:15:24.098Z</time>
</trkpt>
<trkpt lat="31.3033500" lon="35.2679600">
<ele>315.369995</ele>
<time>2024-11-18T09:15:24.098Z</time>
</trkpt>
<trkpt lat="31.3034000" lon="35.2680500">
<ele>316.200012</ele>
<time>2024-11-18T09:15:24.098Z</time>
</trkpt>
<trkpt lat="31.3035100" lon="35.2681900">
<ele>316.460022</ele>
<time>2024-11-18T09:15:24.098Z</time>
</trkpt>
<trkpt lat="31.3036400" lon="35.2681500">
<ele>317.000000</ele>
<time>2024-11-18T09:15:24.098Z</time>
</trkpt>
<trkpt lat="31.3036700" lon="35.2681400">
<ele>317.000000</ele>
<time>2024-11-18T09:15:24.098Z</time>
</trkpt>
<trkpt lat="31.3038500" lon="35.2680000">
<ele>316.769989</ele>
<time>2024-11-18T09:15:24.098Z</time>
</trkpt>
<trkpt lat="31.3040000" lon="35.2679000">
<ele>315.369995</ele>
<time>2024-11-18T09:15:24.098Z</time>
</trkpt>
<trkpt lat="31.3043000" lon="35.2678000">
<ele>312.199982</ele>
<time>2024-11-18T09:15:24.098Z</time>
</trkpt>
<trkpt lat="31.3045100" lon="35.2678200">
<ele>311.750000</ele>
<time>2024-11-18T09:15:24.098Z</time>
</trkpt>
<trkpt lat="31.3052300" lon="35.2677000">
<ele>320.669983</ele>
<time>2024-11-18T09:15:24.098Z</time>
</trkpt>
<trkpt lat="31.3055200" lon="35.2677200">
<ele>320.799988</ele>
<time>2024-11-18T09:15:24.098Z</time>
</trkpt>
<trkpt lat="31.3057300" lon="35.2679600">
<ele>319.559998</ele>
<time>2024-11-18T09:15:24.098Z</time>
</trkpt>
<trkpt lat="31.3059300" lon="35.2683500">
<ele>318.290009</ele>
<time>2024-11-18T09:15:24.098Z</time>
</trkpt>
<trkpt lat="31.3059300" lon="35.2683500">
<ele>318.290009</ele>
<time>2024-11-18T09:15:24.098Z</time>
</trkpt>
<trkpt lat="31.3059300" lon="35.2683500">
<ele>318.290009</ele>
<time>2024-11-18T09:15:24.098Z</time>
</trkpt>
<trkpt lat="31.3061800" lon="35.2688200">
<ele>316.010010</ele>
<time>2024-11-18T09:15:24.098Z</time>
</trkpt>
<trkpt lat="31.3062500" lon="35.2687400">
<ele>315.040009</ele>
<time>2024-11-18T09:15:24.098Z</time>
</trkpt>
<trkpt lat="31.3062900" lon="35.2687000">
<ele>314.459991</ele>
<time>2024-11-18T09:15:24.098Z</time>
</trkpt>
<trkpt lat="31.3064300" lon="35.2688700">
<ele>311.619995</ele>
<time>2024-11-18T09:15:24.098Z</time>
</trkpt>
<trkpt lat="31.3066600" lon="35.2687900">
<ele>309.429993</ele>
<time>2024-11-18T09:15:24.098Z</time>
</trkpt>
<trkpt lat="31.3067300" lon="35.2688200">
<ele>309.019989</ele>
<time>2024-11-18T09:15:24.098Z</time>
</trkpt>
<trkpt lat="31.3067600" lon="35.2687500">
<ele>308.830017</ele>
<time>2024-11-18T09:15:24.098Z</time>
</trkpt>
<trkpt lat="31.3067400" lon="35.2684500">
<ele>308.209991</ele>
<time>2024-11-18T09:15:24.098Z</time>
</trkpt>
<trkpt lat="31.3069200" lon="35.2680800">
<ele>306.019989</ele>
<time>2024-11-18T09:15:24.098Z</time>
</trkpt>
<trkpt lat="31.3072100" lon="35.2679100">
<ele>305.609985</ele>
<time>2024-11-18T09:15:24.098Z</time>
</trkpt>
<trkpt lat="31.3072800" lon="35.2678600">
<ele>305.880005</ele>
<time>2024-11-18T09:15:24.098Z</time>
</trkpt>
<trkpt lat="31.3074700" lon="35.2679200">
<ele>305.049988</ele>
<time>2024-11-18T09:15:24.098Z</time>
</trkpt>
<trkpt lat="31.3074700" lon="35.2679200">
<ele>305.049988</ele>
<time>2024-11-18T09:15:24.098Z</time>
</trkpt>
<trkpt lat="31.3077200" lon="35.2679900">
<ele>306.170013</ele>
<time>2024-11-18T09:15:24.098Z</time>
</trkpt>
<trkpt lat="31.3077600" lon="35.2680000">
<ele>306.309998</ele>
<time>2024-11-18T09:15:24.098Z</time>
</trkpt>
<trkpt lat="31.3080000" lon="35.2681100">
<ele>310.000000</ele>
<time>2024-11-18T09:15:24.098Z</time>
</trkpt>
<trkpt lat="31.3082100" lon="35.2681100">
<ele>312.889984</ele>
<time>2024-11-18T09:15:24.098Z</time>
</trkpt>
<trkpt lat="31.3084600" lon="35.2682100">
<ele>315.520020</ele>
<time>2024-11-18T09:15:24.098Z</time>
</trkpt>
<trkpt lat="31.3086100" lon="35.2685000">
<ele>315.399994</ele>
<time>2024-11-18T09:15:24.098Z</time>
</trkpt>
<trkpt lat="31.3086600" lon="35.2688200">
<ele>312.619995</ele>
<time>2024-11-18T09:15:24.098Z</time>
</trkpt>
<trkpt lat="31.3087000" lon="35.2690200">
<ele>309.970001</ele>
<time>2024-11-18T09:15:24.098Z</time>
</trkpt>
<trkpt lat="31.3088400" lon="35.2691500">
<ele>307.440002</ele>
<time>2024-11-18T09:15:24.098Z</time>
</trkpt>
<trkpt lat="31.3090300" lon="35.2693000">
<ele>306.630005</ele>
<time>2024-11-18T09:15:24.098Z</time>
</trkpt>
<trkpt lat="31.3092000" lon="35.2693600">
<ele>306.260010</ele>
<time>2024-11-18T09:15:24.098Z</time>
</trkpt>
<trkpt lat="31.3092000" lon="35.2693600">
<ele>306.260010</ele>
<time>2024-11-18T09:15:24.098Z</time>
</trkpt>
<trkpt lat="31.3092000" lon="35.2693600">
<ele>306.260010</ele>
<time>2024-11-18T09:15:24.098Z</time>
</trkpt>
<trkpt lat="31.3092900" lon="35.2693400">
<ele>306.019989</ele>
<time>2024-11-18T09:15:24.098Z</time>
</trkpt>
<trkpt lat="31.3093600" lon="35.2693300">
<ele>305.940002</ele>
<time>2024-11-18T09:15:24.098Z</time>
</trkpt>
<trkpt lat="31.3093900" lon="35.2693100">
<ele>305.510010</ele>
<time>2024-11-18T09:15:24.098Z</time>
</trkpt>
<trkpt lat="31.3097800" lon="35.2691400">
<ele>312.020020</ele>
<time>2024-11-18T09:15:24.098Z</time>
</trkpt>
<trkpt lat="31.3101000" lon="35.2689600">
<ele>318.619995</ele>
<time>2024-11-18T09:15:24.098Z</time>
</trkpt>
<trkpt lat="31.3101900" lon="35.2688800">
<ele>320.419983</ele>
<time>2024-11-18T09:15:24.098Z</time>
</trkpt>
<trkpt lat="31.3102900" lon="35.2687700">
<ele>322.360016</ele>
<time>2024-11-18T09:15:24.098Z</time>
</trkpt>
<trkpt lat="31.3105600" lon="35.2684200">
<ele>322.679993</ele>
<time>2024-11-18T09:15:24.098Z</time>
</trkpt>
<trkpt lat="31.3106700" lon="35.2683200">
<ele>322.570007</ele>
<time>2024-11-18T09:15:24.098Z</time>
</trkpt>
<trkpt lat="31.3107900" lon="35.2682100">
<ele>321.779999</ele>
<time>2024-11-18T09:15:24.098Z</time>
</trkpt>
<trkpt lat="31.3114000" lon="35.2677400">
<ele>316.369995</ele>
<time>2024-11-18T09:15:24.098Z</time>
</trkpt>
<trkpt lat="31.3114800" lon="35.2676900">
<ele>318.949982</ele>
<time>2024-11-18T09:15:24.098Z</time>
</trkpt>
<trkpt lat="31.3116200" lon="35.2676500">
<ele>321.699982</ele>
<time>2024-11-18T09:15:24.098Z</time>
</trkpt>
<trkpt lat="31.3119800" lon="35.2676200">
<ele>324.739990</ele>
<time>2024-11-18T09:15:24.098Z</time>
</trkpt>
<trkpt lat="31.3120800" lon="35.2676300">
<ele>325.429993</ele>
<time>2024-11-18T09:15:24.098Z</time>
</trkpt>
<trkpt lat="31.3121500" lon="35.2676600">
<ele>325.339996</ele>
<time>2024-11-18T09:15:24.098Z</time>
</trkpt>
<trkpt lat="31.3122100" lon="35.2677100">
<ele>324.609985</ele>
<time>2024-11-18T09:15:24.098Z</time>
</trkpt>
<trkpt lat="31.3124600" lon="35.2679700">
<ele>322.769989</ele>
<time>2024-11-18T09:15:24.098Z</time>
</trkpt>
<trkpt lat="31.3126100" lon="35.2680600">
<ele>323.750000</ele>
<time>2024-11-18T09:15:24.098Z</time>
</trkpt>
<trkpt lat="31.3128400" lon="35.2681300">
<ele>328.580017</ele>
<time>2024-11-18T09:15:24.098Z</time>
</trkpt>
<trkpt lat="31.3129100" lon="35.2683400">
<ele>328.299988</ele>
<time>2024-11-18T09:15:24.098Z</time>
</trkpt>
<trkpt lat="31.3129700" lon="35.2684300">
<ele>328.179993</ele>
<time>2024-11-18T09:15:24.098Z</time>
</trkpt>
<trkpt lat="31.3130100" lon="35.2684900">
<ele>328.020020</ele>
<time>2024-11-18T09:15:24.098Z</time>
</trkpt>
<trkpt lat="31.3130900" lon="35.2685700">
<ele>328.280029</ele>
<time>2024-11-18T09:15:24.098Z</time>
</trkpt>
<trkpt lat="31.3132500" lon="35.2686800">
<ele>329.940002</ele>
<time>2024-11-18T09:15:24.098Z</time>
</trkpt>
<trkpt lat="31.3132500" lon="35.2686800">
<ele>329.940002</ele>
<time>2024-11-18T09:15:24.098Z</time>
</trkpt>
<trkpt lat="31.3132500" lon="35.2686800">
<ele>329.940002</ele>
<time>2024-11-18T09:15:24.098Z</time>
</trkpt>
<trkpt lat="31.3134500" lon="35.2688100">
<ele>329.359985</ele>
<time>2024-11-18T09:15:24.098Z</time>
</trkpt>
<trkpt lat="31.3138300" lon="35.2691200">
<ele>331.850006</ele>
<time>2024-11-18T09:15:24.098Z</time>
</trkpt>
<trkpt lat="31.3139400" lon="35.2691800">
<ele>332.660004</ele>
<time>2024-11-18T09:15:24.098Z</time>
</trkpt>
<trkpt lat="31.3141600" lon="35.2692500">
<ele>330.609985</ele>
<time>2024-11-18T09:15:24.098Z</time>
</trkpt>
<trkpt lat="31.3144100" lon="35.2692600">
<ele>324.190002</ele>
<time>2024-11-18T09:15:24.098Z</time>
</trkpt>
<trkpt lat="31.3145200" lon="35.2692500">
<ele>322.030029</ele>
<time>2024-11-18T09:15:24.098Z</time>
</trkpt>
<trkpt lat="31.3147600" lon="35.2691600">
<ele>319.249969</ele>
<time>2024-11-18T09:15:24.098Z</time>
</trkpt>
<trkpt lat="31.3149300" lon="35.2691200">
<ele>320.209991</ele>
<time>2024-11-18T09:15:24.098Z</time>
</trkpt>
<trkpt lat="31.3150000" lon="35.2690200">
<ele>321.059998</ele>
<time>2024-11-18T09:15:24.098Z</time>
</trkpt>
<trkpt lat="31.3150900" lon="35.2690500">
<ele>322.509979</ele>
<time>2024-11-18T09:15:24.098Z</time>
</trkpt>
<trkpt lat="31.3150900" lon="35.2692900">
<ele>321.500000</ele>
<time>2024-11-18T09:15:24.098Z</time>
</trkpt>
<trkpt lat="31.3152300" lon="35.2694000">
<ele>324.129974</ele>
<time>2024-11-18T09:15:24.098Z</time>
</trkpt>
<trkpt lat="31.3153200" lon="35.2694400">
<ele>325.029999</ele>
<time>2024-11-18T09:15:24.098Z</time>
</trkpt>
<trkpt lat="31.3154400" lon="35.2694500">
<ele>324.859985</ele>
<time>2024-11-18T09:15:24.098Z</time>
</trkpt>
<trkpt lat="31.3156700" lon="35.2694100">
<ele>324.510010</ele>
<time>2024-11-18T09:15:24.098Z</time>
</trkpt>
<trkpt lat="31.3160500" lon="35.2692900">
<ele>324.029999</ele>
<time>2024-11-18T09:15:24.098Z</time>
</trkpt>
<trkpt lat="31.3161400" lon="35.2692800">
<ele>324.340027</ele>
<time>2024-11-18T09:15:24.098Z</time>
</trkpt>
<trkpt lat="31.3163400" lon="35.2690700">
<ele>329.550018</ele>
<time>2024-11-18T09:15:24.098Z</time>
</trkpt>
<trkpt lat="31.3164000" lon="35.2693500">
<ele>329.009979</ele>
<time>2024-11-18T09:15:24.098Z</time>
</trkpt>
<trkpt lat="31.3163600" lon="35.2695100">
<ele>327.120026</ele>
<time>2024-11-18T09:15:24.098Z</time>
</trkpt>
<trkpt lat="31.3163800" lon="35.2696000">
<ele>327.230011</ele>
<time>2024-11-18T09:15:24.098Z</time>
</trkpt>
<trkpt lat="31.3163900" lon="35.2696800">
<ele>327.179993</ele>
<time>2024-11-18T09:15:24.098Z</time>
</trkpt>
<trkpt lat="31.3164200" lon="35.2697700">
<ele>326.809998</ele>
<time>2024-11-18T09:15:24.098Z</time>
</trkpt>
<trkpt lat="31.3165000" lon="35.2698400">
<ele>327.279999</ele>
<time>2024-11-18T09:15:24.098Z</time>
</trkpt>
<trkpt lat="31.3166700" lon="35.2702600">
<ele>322.419983</ele>
<time>2024-11-18T09:15:24.098Z</time>
</trkpt>
<trkpt lat="31.3169400" lon="35.2706000">
<ele>318.890015</ele>
<time>2024-11-18T09:15:24.098Z</time>
</trkpt>
<trkpt lat="31.3172200" lon="35.2705700">
<ele>311.959991</ele>
<time>2024-11-18T09:15:24.098Z</time>
</trkpt>
<trkpt lat="31.3173700" lon="35.2706000">
<ele>312.549988</ele>
<time>2024-11-18T09:15:24.098Z</time>
</trkpt>
<trkpt lat="31.3175600" lon="35.2705900">
<ele>313.869995</ele>
<time>2024-11-18T09:15:24.098Z</time>
</trkpt>
<trkpt lat="31.3176200" lon="35.2706000">
<ele>314.549988</ele>
<time>2024-11-18T09:15:24.098Z</time>
</trkpt>
<trkpt lat="31.3176900" lon="35.2706600">
<ele>315.550018</ele>
<time>2024-11-18T09:15:24.098Z</time>
</trkpt>
<trkpt lat="31.3177300" lon="35.2707700">
<ele>316.389984</ele>
<time>2024-11-18T09:15:24.098Z</time>
</trkpt>
<trkpt lat="31.3176700" lon="35.2710100">
<ele>315.449982</ele>
<time>2024-11-18T09:15:24.098Z</time>
</trkpt>
<trkpt lat="31.3176800" lon="35.2711300">
<ele>315.019989</ele>
<time>2024-11-18T09:15:24.098Z</time>
</trkpt>
<trkpt lat="31.3177200" lon="35.2712100">
<ele>315.209991</ele>
<time>2024-11-18T09:15:24.098Z</time>
</trkpt>
<trkpt lat="31.3177600" lon="35.2712500">
<ele>315.439972</ele>
<time>2024-11-18T09:15:24.098Z</time>
</trkpt>
<trkpt lat="31.3178500" lon="35.2712900">
<ele>316.110016</ele>
<time>2024-11-18T09:15:24.098Z</time>
</trkpt>
<trkpt lat="31.3179300" lon="35.2712800">
<ele>316.679993</ele>
<time>2024-11-18T09:15:24.098Z</time>
</trkpt>
<trkpt lat="31.3181700" lon="35.2711900">
<ele>318.279999</ele>
<time>2024-11-18T09:15:24.098Z</time>
</trkpt>
<trkpt lat="31.3185500" lon="35.2709800">
<ele>317.260010</ele>
<time>2024-11-18T09:15:24.098Z</time>
</trkpt>
<trkpt lat="31.3187200" lon="35.2709500">
<ele>318.119995</ele>
<time>2024-11-18T09:15:24.098Z</time>
</trkpt>
<trkpt lat="31.3187900" lon="35.2709700">
<ele>318.770020</ele>
<time>2024-11-18T09:15:24.098Z</time>
</trkpt>
<trkpt lat="31.3189400" lon="35.2710500">
<ele>320.709991</ele>
<time>2024-11-18T09:15:24.098Z</time>
</trkpt>
<trkpt lat="31.3192500" lon="35.2713200">
<ele>318.489990</ele>
<time>2024-11-18T09:15:24.098Z</time>
</trkpt>
<trkpt lat="31.3193400" lon="35.2714200">
<ele>316.059998</ele>
<time>2024-11-18T09:15:24.098Z</time>
</trkpt>
<trkpt lat="31.3194100" lon="35.2716400">
<ele>316.399994</ele>
<time>2024-11-18T09:15:24.098Z</time>
</trkpt>
<trkpt lat="31.3194500" lon="35.2717200">
<ele>315.839996</ele>
<time>2024-11-18T09:15:24.098Z</time>
</trkpt>
<trkpt lat="31.3196100" lon="35.2718900">
<ele>312.539978</ele>
<time>2024-11-18T09:15:24.098Z</time>
</trkpt>
<trkpt lat="31.3197100" lon="35.2719400">
<ele>312.020020</ele>
<time>2024-11-18T09:15:24.098Z</time>
</trkpt>
<trkpt lat="31.3200600" lon="35.2719300">
<ele>314.950012</ele>
<time>2024-11-18T09:15:24.098Z</time>
</trkpt>
<trkpt lat="31.3201500" lon="35.2719800">
<ele>317.329987</ele>
<time>2024-11-18T09:15:24.098Z</time>
</trkpt>
<trkpt lat="31.3201700" lon="35.2720900">
<ele>319.559998</ele>
<time>2024-11-18T09:15:24.098Z</time>
</trkpt>
<trkpt lat="31.3201400" lon="35.2721800">
<ele>320.749969</ele>
<time>2024-11-18T09:15:24.098Z</time>
</trkpt>
<trkpt lat="31.3202500" lon="35.2722000">
<ele>322.360016</ele>
<time>2024-11-18T09:15:24.098Z</time>
</trkpt>
<trkpt lat="31.3203700" lon="35.2721300">
<ele>322.110016</ele>
<time>2024-11-18T09:15:24.098Z</time>
</trkpt>
<trkpt lat="31.3205400" lon="35.2721600">
<ele>323.260010</ele>
<time>2024-11-18T09:15:24.098Z</time>
</trkpt>
<trkpt lat="31.3207400" lon="35.2722700">
<ele>326.050018</ele>
<time>2024-11-18T09:15:24.098Z</time>
</trkpt>
<trkpt lat="31.3209800" lon="35.2724500">
<ele>325.169983</ele>
<time>2024-11-18T09:15:24.098Z</time>
</trkpt>
<trkpt lat="31.3211000" lon="35.2725100">
<ele>322.910004</ele>
<time>2024-11-18T09:15:24.098Z</time>
</trkpt>
<trkpt lat="31.3214800" lon="35.2725200">
<ele>318.250000</ele>
<time>2024-11-18T09:15:24.098Z</time>
</trkpt>
<trkpt lat="31.3215800" lon="35.2725500">
<ele>318.699982</ele>
<time>2024-11-18T09:15:24.098Z</time>
</trkpt>
<trkpt lat="31.3217100" lon="35.2726100">
<ele>319.830017</ele>
<time>2024-11-18T09:15:24.098Z</time>
</trkpt>
<trkpt lat="31.3218900" lon="35.2727300">
<ele>321.049988</ele>
<time>2024-11-18T09:15:24.098Z</time>
</trkpt>
<trkpt lat="31.3219500" lon="35.2727200">
<ele>321.430023</ele>
<time>2024-11-18T09:15:24.098Z</time>
</trkpt>
<trkpt lat="31.3219200" lon="35.2728600">
<ele>320.589996</ele>
<time>2024-11-18T09:15:24.098Z</time>
</trkpt>
<trkpt lat="31.3219500" lon="35.2729900">
<ele>320.239990</ele>
<time>2024-11-18T09:15:24.098Z</time>
</trkpt>
<trkpt lat="31.3221100" lon="35.2731000">
<ele>319.389984</ele>
<time>2024-11-18T09:15:24.098Z</time>
</trkpt>
<trkpt lat="31.3222600" lon="35.2732100">
<ele>317.779999</ele>
<time>2024-11-18T09:15:24.098Z</time>
</trkpt>
<trkpt lat="31.3225400" lon="35.2732100">
<ele>321.760010</ele>
<time>2024-11-18T09:15:24.098Z</time>
</trkpt>
<trkpt lat="31.3226900" lon="35.2732200">
<ele>323.279999</ele>
<time>2024-11-18T09:15:24.098Z</time>
</trkpt>
<trkpt lat="31.3227400" lon="35.2734000">
<ele>322.110016</ele>
<time>2024-11-18T09:15:24.098Z</time>
</trkpt>
<trkpt lat="31.3228900" lon="35.2735400">
<ele>322.929993</ele>
<time>2024-11-18T09:15:24.098Z</time>
</trkpt>
<trkpt lat="31.3232500" lon="35.2738200">
<ele>327.269989</ele>
<time>2024-11-18T09:15:24.098Z</time>
</trkpt>
<trkpt lat="31.3239100" lon="35.2742400">
<ele>323.209991</ele>
<time>2024-11-18T09:15:24.098Z</time>
</trkpt>
<trkpt lat="31.3239200" lon="35.2742500">
<ele>323.019989</ele>
<time>2024-11-18T09:15:24.098Z</time>
</trkpt>
<trkpt lat="31.3241300" lon="35.2743600">
<ele>320.339996</ele>
<time>2024-11-18T09:15:24.098Z</time>
</trkpt>
<trkpt lat="31.3244600" lon="35.2744400">
<ele>318.980011</ele>
<time>2024-11-18T09:15:24.098Z</time>
</trkpt>
<trkpt lat="31.3245200" lon="35.2744800">
<ele>319.130005</ele>
<time>2024-11-18T09:15:24.098Z</time>
</trkpt>
<trkpt lat="31.3245500" lon="35.2745600">
<ele>319.419983</ele>
<time>2024-11-18T09:15:24.098Z</time>
</trkpt>
<trkpt lat="31.3245500" lon="35.2747200">
<ele>319.989990</ele>
<time>2024-11-18T09:15:24.098Z</time>
</trkpt>
<trkpt lat="31.3245300" lon="35.2748400">
<ele>319.149994</ele>
<time>2024-11-18T09:15:24.098Z</time>
</trkpt>
<trkpt lat="31.3244800" lon="35.2749800">
<ele>318.139984</ele>
<time>2024-11-18T09:15:24.098Z</time>
</trkpt>
<trkpt lat="31.3244000" lon="35.2751400">
<ele>316.489990</ele>
<time>2024-11-18T09:15:24.098Z</time>
</trkpt>
<trkpt lat="31.3243100" lon="35.2752700">
<ele>315.540009</ele>
<time>2024-11-18T09:15:24.098Z</time>
</trkpt>
<trkpt lat="31.3242500" lon="35.2753300">
<ele>316.209991</ele>
<time>2024-11-18T09:15:24.098Z</time>
</trkpt>
<trkpt lat="31.3242500" lon="35.2753300">
<ele>316.209991</ele>
<time>2024-11-18T09:15:24.098Z</time>
</trkpt>
<trkpt lat="31.3242500" lon="35.2753300">
<ele>316.209991</ele>
<time>2024-11-18T09:15:24.098Z</time>
</trkpt>
<trkpt lat="31.3240500" lon="35.2755200">
<ele>318.980011</ele>
<time>2024-11-18T09:15:24.098Z</time>
</trkpt>
<trkpt lat="31.3239700" lon="35.2756200">
<ele>320.339996</ele>
<time>2024-11-18T09:15:24.098Z</time>
</trkpt>
<trkpt lat="31.3244100" lon="35.2760500">
<ele>319.249969</ele>
<time>2024-11-18T09:15:24.098Z</time>
</trkpt>
<trkpt lat="31.3244300" lon="35.2763000">
<ele>319.030029</ele>
<time>2024-11-18T09:15:24.098Z</time>
</trkpt>
<trkpt lat="31.3245100" lon="35.2766400">
<ele>321.980011</ele>
<time>2024-11-18T09:15:24.098Z</time>
</trkpt>
<trkpt lat="31.3245300" lon="35.2768700">
<ele>321.569977</ele>
<time>2024-11-18T09:15:24.098Z</time>
</trkpt>
<trkpt lat="31.3247200" lon="35.2772100">
<ele>322.869995</ele>
<time>2024-11-18T09:15:24.098Z</time>
</trkpt>
<trkpt lat="31.3250000" lon="35.2772700">
<ele>314.519989</ele>
<time>2024-11-18T09:15:24.098Z</time>
</trkpt>
<trkpt lat="31.3252000" lon="35.2773300">
<ele>314.610016</ele>
<time>2024-11-18T09:15:24.098Z</time>
</trkpt>
<trkpt lat="31.3254700" lon="35.2775400">
<ele>317.020020</ele>
<time>2024-11-18T09:15:24.098Z</time>
</trkpt>
<trkpt lat="31.3255300" lon="35.2777900">
<ele>321.770020</ele>
<time>2024-11-18T09:15:24.098Z</time>
</trkpt>
<trkpt lat="31.3254200" lon="35.2781600">
<ele>324.089996</ele>
<time>2024-11-18T09:15:24.098Z</time>
</trkpt>
<trkpt lat="31.3253900" lon="35.2783500">
<ele>325.140015</ele>
<time>2024-11-18T09:15:24.098Z</time>
</trkpt>
<trkpt lat="31.3254300" lon="35.2785200">
<ele>326.709991</ele>
<time>2024-11-18T09:15:24.098Z</time>
</trkpt>
<trkpt lat="31.3253500" lon="35.2788500">
<ele>329.619995</ele>
<time>2024-11-18T09:15:24.098Z</time>
</trkpt>
<trkpt lat="31.3253400" lon="35.2791000">
<ele>330.760010</ele>
<time>2024-11-18T09:15:24.098Z</time>
</trkpt>
<trkpt lat="31.3254800" lon="35.2793600">
<ele>330.809998</ele>
<time>2024-11-18T09:15:24.098Z</time>
</trkpt>
<trkpt lat="31.3255100" lon="35.2795300">
<ele>329.449982</ele>
<time>2024-11-18T09:15:24.098Z</time>
</trkpt>
<trkpt lat="31.3254500" lon="35.2796900">
<ele>327.210022</ele>
<time>2024-11-18T09:15:24.098Z</time>
</trkpt>
<trkpt lat="31.3252700" lon="35.2798500">
<ele>326.269989</ele>
<time>2024-11-18T09:15:24.098Z</time>
</trkpt>
<trkpt lat="31.3251900" lon="35.2801200">
<ele>324.829987</ele>
<time>2024-11-18T09:15:24.098Z</time>
</trkpt>
<trkpt lat="31.3250700" lon="35.2803200">
<ele>326.180023</ele>
<time>2024-11-18T09:15:24.098Z</time>
</trkpt>
<trkpt lat="31.3249900" lon="35.2806000">
<ele>328.610016</ele>
<time>2024-11-18T09:15:24.098Z</time>
</trkpt>
<trkpt lat="31.3247200" lon="35.2809300">
<ele>333.339996</ele>
<time>2024-11-18T09:15:24.098Z</time>
</trkpt>
<trkpt lat="31.3244800" lon="35.2810200">
<ele>333.100006</ele>
<time>2024-11-18T09:15:24.098Z</time>
</trkpt>
<trkpt lat="31.3242100" lon="35.2810500">
<ele>335.210022</ele>
<time>2024-11-18T09:15:24.098Z</time>
</trkpt>
<trkpt lat="31.3239200" lon="35.2812100">
<ele>334.480011</ele>
<time>2024-11-18T09:15:24.098Z</time>
</trkpt>
<trkpt lat="31.3238300" lon="35.2816100">
<ele>334.220001</ele>
<time>2024-11-18T09:15:24.098Z</time>
</trkpt>
<trkpt lat="31.3237400" lon="35.2819900">
<ele>332.170013</ele>
<time>2024-11-18T09:15:24.098Z</time>
</trkpt>
<trkpt lat="31.3237600" lon="35.2822900">
<ele>331.950012</ele>
<time>2024-11-18T09:15:24.098Z</time>
</trkpt>
<trkpt lat="31.3238600" lon="35.2826000">
<ele>332.660004</ele>
<time>2024-11-18T09:15:24.098Z</time>
</trkpt>
<trkpt lat="31.3238600" lon="35.2827100">
<ele>332.739990</ele>
<time>2024-11-18T09:15:24.098Z</time>
</trkpt>
<trkpt lat="31.3238600" lon="35.2828800">
<ele>334.189972</ele>
<time>2024-11-18T09:15:24.098Z</time>
</trkpt>
<trkpt lat="31.3237900" lon="35.2833200">
<ele>337.820007</ele>
<time>2024-11-18T09:15:24.098Z</time>
</trkpt>
<trkpt lat="31.3239200" lon="35.2838400">
<ele>340.589996</ele>
<time>2024-11-18T09:15:24.098Z</time>
</trkpt>
<trkpt lat="31.3240200" lon="35.2841300">
<ele>339.130005</ele>
<time>2024-11-18T09:15:24.098Z</time>
</trkpt>
<trkpt lat="31.3240400" lon="35.2843700">
<ele>337.850006</ele>
<time>2024-11-18T09:15:24.098Z</time>
</trkpt>
<trkpt lat="31.3240200" lon="35.2848900">
<ele>346.149994</ele>
<time>2024-11-18T09:15:24.098Z</time>
</trkpt>
<trkpt lat="31.3239900" lon="35.2850200">
<ele>348.799988</ele>
<time>2024-11-18T09:15:24.098Z</time>
</trkpt>
<trkpt lat="31.3241000" lon="35.2852600">
<ele>349.630005</ele>
<time>2024-11-18T09:15:24.098Z</time>
</trkpt>
<trkpt lat="31.3242000" lon="35.2856600">
<ele>352.869995</ele>
<time>2024-11-18T09:15:24.098Z</time>
</trkpt>
<trkpt lat="31.3242200" lon="35.2862800">
<ele>357.309998</ele>
<time>2024-11-18T09:15:24.098Z</time>
</trkpt>
<trkpt lat="31.3242300" lon="35.2864100">
<ele>357.239990</ele>
<time>2024-11-18T09:15:24.098Z</time>
</trkpt>
<trkpt lat="31.3243000" lon="35.2866300">
<ele>357.819977</ele>
<time>2024-11-18T09:15:24.098Z</time>
</trkpt>
<trkpt lat="31.3243700" lon="35.2865600">
<ele>356.299988</ele>
<time>2024-11-18T09:15:24.098Z</time>
</trkpt>
<trkpt lat="31.3243900" lon="35.2864700">
<ele>355.370026</ele>
<time>2024-11-18T09:15:24.098Z</time>
</trkpt>
<trkpt lat="31.3244300" lon="35.2863600">
<ele>354.309998</ele>
<time>2024-11-18T09:15:24.098Z</time>
</trkpt>
<trkpt lat="31.3244700" lon="35.2863000">
<ele>354.720001</ele>
<time>2024-11-18T09:15:24.098Z</time>
</trkpt>
<trkpt lat="31.3245900" lon="35.2863000">
<ele>356.579987</ele>
<time>2024-11-18T09:15:24.098Z</time>
</trkpt>
<trkpt lat="31.3245400" lon="35.2861600">
<ele>356.480011</ele>
<time>2024-11-18T09:15:24.098Z</time>
</trkpt>
<trkpt lat="31.3245300" lon="35.2860700">
<ele>356.589996</ele>
<time>2024-11-18T09:15:24.098Z</time>
</trkpt>
<trkpt lat="31.3245700" lon="35.2858100">
<ele>357.660004</ele>
<time>2024-11-18T09:15:24.098Z</time>
</trkpt>
<trkpt lat="31.3245200" lon="35.2855600">
<ele>355.470001</ele>
<time>2024-11-18T09:15:24.098Z</time>
</trkpt>
<trkpt lat="31.3245200" lon="35.2854200">
<ele>355.450012</ele>
<time>2024-11-18T09:15:24.098Z</time>
</trkpt>
<trkpt lat="31.3246000" lon="35.2851400">
<ele>358.809998</ele>
<time>2024-11-18T09:15:24.098Z</time>
</trkpt>
<trkpt lat="31.3246400" lon="35.2850000">
<ele>361.039978</ele>
<time>2024-11-18T09:15:24.098Z</time>
</trkpt>
<trkpt lat="31.3246300" lon="35.2848400">
<ele>360.869995</ele>
<time>2024-11-18T09:15:24.098Z</time>
</trkpt>
<trkpt lat="31.3247400" lon="35.2843200">
<ele>363.810028</ele>
<time>2024-11-18T09:15:24.098Z</time>
</trkpt>
<trkpt lat="31.3247500" lon="35.2841300">
<ele>363.149994</ele>
<time>2024-11-18T09:15:24.098Z</time>
</trkpt>
<trkpt lat="31.3246100" lon="35.2835200">
<ele>358.179993</ele>
<time>2024-11-18T09:15:24.098Z</time>
</trkpt>
<trkpt lat="31.3245600" lon="35.2832300">
<ele>357.279999</ele>
<time>2024-11-18T09:15:24.098Z</time>
</trkpt>
<trkpt lat="31.3245600" lon="35.2828900">
<ele>356.339996</ele>
<time>2024-11-18T09:15:24.098Z</time>
</trkpt>
<trkpt lat="31.3245900" lon="35.2827600">
<ele>354.579987</ele>
<time>2024-11-18T09:15:24.098Z</time>
</trkpt>
<trkpt lat="31.3246800" lon="35.2827200">
<ele>351.420013</ele>
<time>2024-11-18T09:15:24.098Z</time>
</trkpt>
<trkpt lat="31.3248200" lon="35.2827100">
<ele>347.910004</ele>
<time>2024-11-18T09:15:24.098Z</time>
</trkpt>
<trkpt lat="31.3249300" lon="35.2828000">
<ele>346.949982</ele>
<time>2024-11-18T09:15:24.098Z</time>
</trkpt>
<trkpt lat="31.3250100" lon="35.2831400">
<ele>352.519989</ele>
<time>2024-11-18T09:15:24.098Z</time>
</trkpt>
<trkpt lat="31.3251100" lon="35.2834800">
<ele>358.540009</ele>
<time>2024-11-18T09:15:24.098Z</time>
</trkpt>
<trkpt lat="31.3251900" lon="35.2836100">
<ele>359.929993</ele>
<time>2024-11-18T09:15:24.098Z</time>
</trkpt>
<trkpt lat="31.3253600" lon="35.2837200">
<ele>358.279999</ele>
<time>2024-11-18T09:15:24.098Z</time>
</trkpt>
<trkpt lat="31.3255300" lon="35.2838100">
<ele>355.049988</ele>
<time>2024-11-18T09:15:24.098Z</time>
</trkpt>
<trkpt lat="31.3256000" lon="35.2839000">
<ele>354.210022</ele>
<time>2024-11-18T09:15:24.098Z</time>
</trkpt>
<trkpt lat="31.3253800" lon="35.2839100">
<ele>359.630005</ele>
<time>2024-11-18T09:15:24.098Z</time>
</trkpt>
<trkpt lat="31.3252100" lon="35.2839800">
<ele>363.139984</ele>
<time>2024-11-18T09:15:24.098Z</time>
</trkpt>
<trkpt lat="31.3251500" lon="35.2841100">
<ele>364.509979</ele>
<time>2024-11-18T09:15:24.098Z</time>
</trkpt>
<trkpt lat="31.3251300" lon="35.2843800">
<ele>367.010010</ele>
<time>2024-11-18T09:15:24.098Z</time>
</trkpt>
<trkpt lat="31.3251200" lon="35.2846100">
<ele>368.479980</ele>
<time>2024-11-18T09:15:24.098Z</time>
</trkpt>
<trkpt lat="31.3251900" lon="35.2851000">
<ele>374.720001</ele>
<time>2024-11-18T09:15:24.098Z</time>
</trkpt>
<trkpt lat="31.3252200" lon="35.2852800">
<ele>377.339996</ele>
<time>2024-11-18T09:15:24.098Z</time>
</trkpt>
<trkpt lat="31.3254000" lon="35.2857600">
<ele>382.670013</ele>
<time>2024-11-18T09:15:24.098Z</time>
</trkpt>
<trkpt lat="31.3254800" lon="35.2860700">
<ele>385.210022</ele>
<time>2024-11-18T09:15:24.098Z</time>
</trkpt>
<trkpt lat="31.3255600" lon="35.2864400">
<ele>389.169983</ele>
<time>2024-11-18T09:15:24.098Z</time>
</trkpt>
<trkpt lat="31.3256300" lon="35.2863400">
<ele>388.599976</ele>
<time>2024-11-18T09:15:24.098Z</time>
</trkpt>
<trkpt lat="31.3256500" lon="35.2861100">
<ele>387.999969</ele>
<time>2024-11-18T09:15:24.098Z</time>
</trkpt>
<trkpt lat="31.3256800" lon="35.2860000">
<ele>387.600006</ele>
<time>2024-11-18T09:15:24.098Z</time>
</trkpt>
<trkpt lat="31.3257900" lon="35.2863300">
<ele>388.120026</ele>
<time>2024-11-18T09:15:24.098Z</time>
</trkpt>
<trkpt lat="31.3258700" lon="35.2866400">
<ele>387.079987</ele>
<time>2024-11-18T09:15:24.098Z</time>
</trkpt>
<trkpt lat="31.3259000" lon="35.2869100">
<ele>386.320007</ele>
<time>2024-11-18T09:15:24.098Z</time>
</trkpt>
<trkpt lat="31.3259600" lon="35.2871900">
<ele>386.649994</ele>
<time>2024-11-18T09:15:24.098Z</time>
</trkpt>
<trkpt lat="31.3260400" lon="35.2875400">
<ele>387.889984</ele>
<time>2024-11-18T09:15:24.098Z</time>
</trkpt>
<trkpt lat="31.3260200" lon="35.2877000">
<ele>389.660004</ele>
<time>2024-11-18T09:15:24.098Z</time>
</trkpt>
<trkpt lat="31.3259700" lon="35.2879300">
<ele>392.940002</ele>
<time>2024-11-18T09:15:24.098Z</time>
</trkpt>
<trkpt lat="31.3260100" lon="35.2881300">
<ele>395.339996</ele>
<time>2024-11-18T09:15:24.098Z</time>
</trkpt>
<trkpt lat="31.3260200" lon="35.2883600">
<ele>398.189972</ele>
<time>2024-11-18T09:15:24.098Z</time>
</trkpt>
<trkpt lat="31.3260200" lon="35.2884500">
<ele>398.839996</ele>
<time>2024-11-18T09:15:24.098Z</time>
</trkpt>
<trkpt lat="31.3260800" lon="35.2886800">
<ele>400.220001</ele>
<time>2024-11-18T09:15:24.098Z</time>
</trkpt>
<trkpt lat="31.3262900" lon="35.2889600">
<ele>401.160004</ele>
<time>2024-11-18T09:15:24.098Z</time>
</trkpt>
<trkpt lat="31.3265500" lon="35.2891400">
<ele>400.159973</ele>
<time>2024-11-18T09:15:24.098Z</time>
</trkpt>
<trkpt lat="31.3268200" lon="35.2892400">
<ele>399.000031</ele>
<time>2024-11-18T09:15:24.098Z</time>
</trkpt>
<trkpt lat="31.3271300" lon="35.2892200">
<ele>397.000000</ele>
<time>2024-11-18T09:15:24.098Z</time>
</trkpt>
<trkpt lat="31.3274300" lon="35.2892100">
<ele>400.140015</ele>
<time>2024-11-18T09:15:24.098Z</time>
</trkpt>
<trkpt lat="31.3275300" lon="35.2891900">
<ele>401.610016</ele>
<time>2024-11-18T09:15:24.098Z</time>
</trkpt>
<trkpt lat="31.3276300" lon="35.2891200">
<ele>400.929993</ele>
<time>2024-11-18T09:15:24.098Z</time>
</trkpt>
<trkpt lat="31.3277800" lon="35.2889000">
<ele>399.070007</ele>
<time>2024-11-18T09:15:24.098Z</time>
</trkpt>
<trkpt lat="31.3279500" lon="35.2888300">
<ele>398.010010</ele>
<time>2024-11-18T09:15:24.098Z</time>
</trkpt>
<trkpt lat="31.3281500" lon="35.2888400">
<ele>398.160004</ele>
<time>2024-11-18T09:15:24.098Z</time>
</trkpt>
<trkpt lat="31.3282900" lon="35.2889500">
<ele>398.470001</ele>
<time>2024-11-18T09:15:24.098Z</time>
</trkpt>
<trkpt lat="31.3283800" lon="35.2890700">
<ele>397.519989</ele>
<time>2024-11-18T09:15:24.098Z</time>
</trkpt>
<trkpt lat="31.3284900" lon="35.2892700">
<ele>396.790009</ele>
<time>2024-11-18T09:15:24.098Z</time>
</trkpt>
<trkpt lat="31.3285900" lon="35.2893700">
<ele>396.320007</ele>
<time>2024-11-18T09:15:24.098Z</time>
</trkpt>
<trkpt lat="31.3287700" lon="35.2894500">
<ele>396.019989</ele>
<time>2024-11-18T09:15:24.098Z</time>
</trkpt>
<trkpt lat="31.3291000" lon="35.2894500">
<ele>400.509979</ele>
<time>2024-11-18T09:15:24.098Z</time>
</trkpt>
<trkpt lat="31.3292500" lon="35.2895300">
<ele>402.970001</ele>
<time>2024-11-18T09:15:24.098Z</time>
</trkpt>
<trkpt lat="31.3292700" lon="35.2895900">
<ele>402.850006</ele>
<time>2024-11-18T09:15:24.098Z</time>
</trkpt>
<trkpt lat="31.3296400" lon="35.2893900">
<ele>408.570007</ele>
<time>2024-11-18T09:15:24.098Z</time>
</trkpt>
<trkpt lat="31.3303600" lon="35.2893400">
<ele>414.470001</ele>
<time>2024-11-18T09:15:24.098Z</time>
</trkpt>
<trkpt lat="31.3305500" lon="35.2894600">
<ele>413.750000</ele>
<time>2024-11-18T09:15:24.098Z</time>
</trkpt>
<trkpt lat="31.3306200" lon="35.2896300">
<ele>410.550018</ele>
<time>2024-11-18T09:15:24.098Z</time>
</trkpt>
<trkpt lat="31.3307600" lon="35.2897900">
<ele>406.079987</ele>
<time>2024-11-18T09:15:24.098Z</time>
</trkpt>
<trkpt lat="31.3312300" lon="35.2898200">
<ele>408.269989</ele>
<time>2024-11-18T09:15:24.098Z</time>
</trkpt>
<trkpt lat="31.3315000" lon="35.2896400">
<ele>411.570007</ele>
<time>2024-11-18T09:15:24.098Z</time>
</trkpt>
<trkpt lat="31.3317500" lon="35.2896900">
<ele>410.699982</ele>
<time>2024-11-18T09:15:24.098Z</time>
</trkpt>
<trkpt lat="31.3317600" lon="35.2897200">
<ele>410.949982</ele>
<time>2024-11-18T09:15:24.098Z</time>
</trkpt>
<trkpt lat="31.3317600" lon="35.2897200">
<ele>410.949982</ele>
<time>2024-11-18T09:15:24.098Z</time>
</trkpt>
<trkpt lat="31.3317600" lon="35.2897200">
<ele>410.949982</ele>
<time>2024-11-18T09:15:24.098Z</time>
</trkpt>
<trkpt lat="31.3317500" lon="35.2896900">
<ele>410.699982</ele>
<time>2024-11-18T09:15:24.098Z</time>
</trkpt>
<trkpt lat="31.3315000" lon="35.2896400">
<ele>411.570007</ele>
<time>2024-11-18T09:15:24.098Z</time>
</trkpt>
<trkpt lat="31.3312300" lon="35.2898200">
<ele>408.269989</ele>
<time>2024-11-18T09:15:24.098Z</time>
</trkpt>
<trkpt lat="31.3307600" lon="35.2897900">
<ele>406.079987</ele>
<time>2024-11-18T09:15:24.098Z</time>
</trkpt>
<trkpt lat="31.3306200" lon="35.2896300">
<ele>410.550018</ele>
<time>2024-11-18T09:15:24.098Z</time>
</trkpt>
<trkpt lat="31.3305500" lon="35.2894600">
<ele>413.750000</ele>
<time>2024-11-18T09:15:24.098Z</time>
</trkpt>
<trkpt lat="31.3303600" lon="35.2893400">
<ele>414.470001</ele>
<time>2024-11-18T09:15:24.098Z</time>
</trkpt>
<trkpt lat="31.3296400" lon="35.2893900">
<ele>408.570007</ele>
<time>2024-11-18T09:15:24.098Z</time>
</trkpt>
<trkpt lat="31.3292700" lon="35.2895900">
<ele>402.850006</ele>
<time>2024-11-18T09:15:24.098Z</time>
</trkpt>
<trkpt lat="31.3292300" lon="35.2897500">
<ele>400.159973</ele>
<time>2024-11-18T09:15:24.098Z</time>
</trkpt>
<trkpt lat="31.3291900" lon="35.2899300">
<ele>396.970001</ele>
<time>2024-11-18T09:15:24.098Z</time>
</trkpt>
<trkpt lat="31.3291100" lon="35.2900400">
<ele>394.899994</ele>
<time>2024-11-18T09:15:24.098Z</time>
</trkpt>
<trkpt lat="31.3289800" lon="35.2901100">
<ele>393.449982</ele>
<time>2024-11-18T09:15:24.098Z</time>
</trkpt>
<trkpt lat="31.3287900" lon="35.2901600">
<ele>393.350006</ele>
<time>2024-11-18T09:15:24.098Z</time>
</trkpt>
<trkpt lat="31.3286500" lon="35.2903100">
<ele>392.079987</ele>
<time>2024-11-18T09:15:24.098Z</time>
</trkpt>
<trkpt lat="31.3285600" lon="35.2903700">
<ele>391.769989</ele>
<time>2024-11-18T09:15:24.098Z</time>
</trkpt>
<trkpt lat="31.3283500" lon="35.2904300">
<ele>393.300018</ele>
<time>2024-11-18T09:15:24.098Z</time>
</trkpt>
<trkpt lat="31.3282400" lon="35.2905400">
<ele>394.959991</ele>
<time>2024-11-18T09:15:24.098Z</time>
</trkpt>
<trkpt lat="31.3281100" lon="35.2906200">
<ele>396.989990</ele>
<time>2024-11-18T09:15:24.098Z</time>
</trkpt>
<trkpt lat="31.3279900" lon="35.2906300">
<ele>397.649994</ele>
<time>2024-11-18T09:15:24.098Z</time>
</trkpt>
<trkpt lat="31.3278900" lon="35.2906200">
<ele>397.289978</ele>
<time>2024-11-18T09:15:24.098Z</time>
</trkpt>
<trkpt lat="31.3277900" lon="35.2905600">
<ele>397.070007</ele>
<time>2024-11-18T09:15:24.098Z</time>
</trkpt>
<trkpt lat="31.3277100" lon="35.2905100">
<ele>397.130005</ele>
<time>2024-11-18T09:15:24.098Z</time>
</trkpt>
<trkpt lat="31.3275800" lon="35.2903300">
<ele>398.250000</ele>
<time>2024-11-18T09:15:24.098Z</time>
</trkpt>
<trkpt lat="31.3275000" lon="35.2902600">
<ele>397.869995</ele>
<time>2024-11-18T09:15:24.098Z</time>
</trkpt>
<trkpt lat="31.3272600" lon="35.2901900">
<ele>398.140015</ele>
<time>2024-11-18T09:15:24.098Z</time>
</trkpt>
<trkpt lat="31.3271300" lon="35.2901200">
<ele>399.420013</ele>
<time>2024-11-18T09:15:24.098Z</time>
</trkpt>
<trkpt lat="31.3270000" lon="35.2900100">
<ele>400.880005</ele>
<time>2024-11-18T09:15:24.098Z</time>
</trkpt>
<trkpt lat="31.3268700" lon="35.2898500">
<ele>400.199982</ele>
<time>2024-11-18T09:15:24.098Z</time>
</trkpt>
<trkpt lat="31.3267800" lon="35.2897500">
<ele>399.219971</ele>
<time>2024-11-18T09:15:24.098Z</time>
</trkpt>
<trkpt lat="31.3266600" lon="35.2896700">
<ele>398.109985</ele>
<time>2024-11-18T09:15:24.098Z</time>
</trkpt>
<trkpt lat="31.3265200" lon="35.2896700">
<ele>396.470001</ele>
<time>2024-11-18T09:15:24.098Z</time>
</trkpt>
<trkpt lat="31.3264200" lon="35.2896600">
<ele>395.470001</ele>
<time>2024-11-18T09:15:24.098Z</time>
</trkpt>
<trkpt lat="31.3263100" lon="35.2896300">
<ele>395.759979</ele>
<time>2024-11-18T09:15:24.098Z</time>
</trkpt>
<trkpt lat="31.3261100" lon="35.2894700">
<ele>397.719971</ele>
<time>2024-11-18T09:15:24.098Z</time>
</trkpt>
<trkpt lat="31.3260100" lon="35.2893700">
<ele>398.339996</ele>
<time>2024-11-18T09:15:24.098Z</time>
</trkpt>
<trkpt lat="31.3259000" lon="35.2893500">
<ele>398.000000</ele>
<time>2024-11-18T09:15:24.098Z</time>
</trkpt>
<trkpt lat="31.3257300" lon="35.2893400">
<ele>397.150024</ele>
<time>2024-11-18T09:15:24.098Z</time>
</trkpt>
<trkpt lat="31.3255900" lon="35.2893000">
<ele>396.739990</ele>
<time>2024-11-18T09:15:24.098Z</time>
</trkpt>
<trkpt lat="31.3255300" lon="35.2892500">
<ele>397.039978</ele>
<time>2024-11-18T09:15:24.098Z</time>
</trkpt>
<trkpt lat="31.3253900" lon="35.2892300">
<ele>396.860016</ele>
<time>2024-11-18T09:15:24.098Z</time>
</trkpt>
<trkpt lat="31.3251300" lon="35.2892300">
<ele>396.130005</ele>
<time>2024-11-18T09:15:24.098Z</time>
</trkpt>
<trkpt lat="31.3250200" lon="35.2893300">
<ele>395.440002</ele>
<time>2024-11-18T09:15:24.098Z</time>
</trkpt>
<trkpt lat="31.3249400" lon="35.2894900">
<ele>394.930023</ele>
<time>2024-11-18T09:15:24.098Z</time>
</trkpt>
<trkpt lat="31.3248900" lon="35.2897700">
<ele>397.119995</ele>
<time>2024-11-18T09:15:24.098Z</time>
</trkpt>
<trkpt lat="31.3248100" lon="35.2900800">
<ele>399.980011</ele>
<time>2024-11-18T09:15:24.098Z</time>
</trkpt>
<trkpt lat="31.3248200" lon="35.2903000">
<ele>401.679993</ele>
<time>2024-11-18T09:15:24.098Z</time>
</trkpt>
<trkpt lat="31.3248000" lon="35.2904300">
<ele>401.410004</ele>
<time>2024-11-18T09:15:24.098Z</time>
</trkpt>
<trkpt lat="31.3247300" lon="35.2905800">
<ele>400.940002</ele>
<time>2024-11-18T09:15:24.098Z</time>
</trkpt>
<trkpt lat="31.3246100" lon="35.2906900">
<ele>401.910004</ele>
<time>2024-11-18T09:15:24.098Z</time>
</trkpt>
<trkpt lat="31.3245300" lon="35.2907200">
<ele>403.020020</ele>
<time>2024-11-18T09:15:24.098Z</time>
</trkpt>
<trkpt lat="31.3243400" lon="35.2907400">
<ele>405.209991</ele>
<time>2024-11-18T09:15:24.098Z</time>
</trkpt>
<trkpt lat="31.3242400" lon="35.2908100">
<ele>406.369995</ele>
<time>2024-11-18T09:15:24.098Z</time>
</trkpt>
<trkpt lat="31.3241400" lon="35.2910500">
<ele>407.170013</ele>
<time>2024-11-18T09:15:24.098Z</time>
</trkpt>
<trkpt lat="31.3240400" lon="35.2912200">
<ele>407.520020</ele>
<time>2024-11-18T09:15:24.098Z</time>
</trkpt>
<trkpt lat="31.3239200" lon="35.2913000">
<ele>408.100006</ele>
<time>2024-11-18T09:15:24.098Z</time>
</trkpt>
<trkpt lat="31.3237000" lon="35.2913200">
<ele>409.779999</ele>
<time>2024-11-18T09:15:24.098Z</time>
</trkpt>
<trkpt lat="31.3235800" lon="35.2914700">
<ele>406.979980</ele>
<time>2024-11-18T09:15:24.098Z</time>
</trkpt>
<trkpt lat="31.3234800" lon="35.2916200">
<ele>403.199982</ele>
<time>2024-11-18T09:15:24.098Z</time>
</trkpt>
<trkpt lat="31.3233300" lon="35.2917200">
<ele>403.519989</ele>
<time>2024-11-18T09:15:24.098Z</time>
</trkpt>
<trkpt lat="31.3231300" lon="35.2917900">
<ele>405.920013</ele>
<time>2024-11-18T09:15:24.098Z</time>
</trkpt>
<trkpt lat="31.3229400" lon="35.2917400">
<ele>407.430023</ele>
<time>2024-11-18T09:15:24.098Z</time>
</trkpt>
<trkpt lat="31.3228100" lon="35.2916700">
<ele>407.109985</ele>
<time>2024-11-18T09:15:24.098Z</time>
</trkpt>
<trkpt lat="31.3226900" lon="35.2916700">
<ele>406.679993</ele>
<time>2024-11-18T09:15:24.098Z</time>
</trkpt>
<trkpt lat="31.3225000" lon="35.2917800">
<ele>405.590027</ele>
<time>2024-11-18T09:15:24.098Z</time>
</trkpt>
<trkpt lat="31.3223000" lon="35.2918600">
<ele>406.899994</ele>
<time>2024-11-18T09:15:24.098Z</time>
</trkpt>
<trkpt lat="31.3220900" lon="35.2918400">
<ele>407.109985</ele>
<time>2024-11-18T09:15:24.098Z</time>
</trkpt>
<trkpt lat="31.3219200" lon="35.2917800">
<ele>407.410004</ele>
<time>2024-11-18T09:15:24.098Z</time>
</trkpt>
<trkpt lat="31.3217500" lon="35.2916700">
<ele>408.540009</ele>
<time>2024-11-18T09:15:24.098Z</time>
</trkpt>
<trkpt lat="31.3216200" lon="35.2916400">
<ele>408.470001</ele>
<time>2024-11-18T09:15:24.098Z</time>
</trkpt>
<trkpt lat="31.3215100" lon="35.2916800">
<ele>408.429993</ele>
<time>2024-11-18T09:15:24.098Z</time>
</trkpt>
<trkpt lat="31.3213600" lon="35.2916600">
<ele>408.880005</ele>
<time>2024-11-18T09:15:24.098Z</time>
</trkpt>
<trkpt lat="31.3212300" lon="35.2915700">
<ele>408.849976</ele>
<time>2024-11-18T09:15:24.098Z</time>
</trkpt>
<trkpt lat="31.3210800" lon="35.2914400">
<ele>408.500000</ele>
<time>2024-11-18T09:15:24.098Z</time>
</trkpt>
<trkpt lat="31.3209300" lon="35.2911700">
<ele>408.859985</ele>
<time>2024-11-18T09:15:24.098Z</time>
</trkpt>
<trkpt lat="31.3208200" lon="35.2910100">
<ele>408.639984</ele>
<time>2024-11-18T09:15:24.098Z</time>
</trkpt>
<trkpt lat="31.3207500" lon="35.2908500">
<ele>408.059998</ele>
<time>2024-11-18T09:15:24.098Z</time>
</trkpt>
<trkpt lat="31.3207200" lon="35.2906600">
<ele>407.380005</ele>
<time>2024-11-18T09:15:24.098Z</time>
</trkpt>
<trkpt lat="31.3207200" lon="35.2906000">
<ele>407.160004</ele>
<time>2024-11-18T09:15:24.098Z</time>
</trkpt>
<trkpt lat="31.3207400" lon="35.2903800">
<ele>406.369995</ele>
<time>2024-11-18T09:15:24.098Z</time>
</trkpt>
<trkpt lat="31.3207500" lon="35.2902600">
<ele>406.029999</ele>
<time>2024-11-18T09:15:24.098Z</time>
</trkpt>
<trkpt lat="31.3206500" lon="35.2899900">
<ele>405.670013</ele>
<time>2024-11-18T09:15:24.098Z</time>
</trkpt>
<trkpt lat="31.3206100" lon="35.2898300">
<ele>405.019989</ele>
<time>2024-11-18T09:15:24.098Z</time>
</trkpt>
<trkpt lat="31.3204900" lon="35.2897300">
<ele>402.380005</ele>
<time>2024-11-18T09:15:24.098Z</time>
</trkpt>
<trkpt lat="31.3203400" lon="35.2897400">
<ele>398.679993</ele>
<time>2024-11-18T09:15:24.098Z</time>
</trkpt>
<trkpt lat="31.3201700" lon="35.2897800">
<ele>396.560028</ele>
<time>2024-11-18T09:15:24.098Z</time>
</trkpt>
<trkpt lat="31.3200400" lon="35.2897700">
<ele>395.480011</ele>
<time>2024-11-18T09:15:24.098Z</time>
</trkpt>
<trkpt lat="31.3199100" lon="35.2897500">
<ele>394.350006</ele>
<time>2024-11-18T09:15:24.098Z</time>
</trkpt>
<trkpt lat="31.3198300" lon="35.2897400">
<ele>393.720001</ele>
<time>2024-11-18T09:15:24.098Z</time>
</trkpt>
<trkpt lat="31.3197000" lon="35.2897700">
<ele>392.660004</ele>
<time>2024-11-18T09:15:24.098Z</time>
</trkpt>
<trkpt lat="31.3195500" lon="35.2898700">
<ele>391.939972</ele>
<time>2024-11-18T09:15:24.098Z</time>
</trkpt>
<trkpt lat="31.3193800" lon="35.2899300">
<ele>392.150024</ele>
<time>2024-11-18T09:15:24.098Z</time>
</trkpt>
<trkpt lat="31.3192500" lon="35.2899300">
<ele>393.439972</ele>
<time>2024-11-18T09:15:24.098Z</time>
</trkpt>
<trkpt lat="31.3191200" lon="35.2898900">
<ele>396.099976</ele>
<time>2024-11-18T09:15:24.098Z</time>
</trkpt>
<trkpt lat="31.3190000" lon="35.2898200">
<ele>399.450012</ele>
<time>2024-11-18T09:15:24.098Z</time>
</trkpt>
<trkpt lat="31.3188900" lon="35.2897000">
<ele>403.309998</ele>
<time>2024-11-18T09:15:24.098Z</time>
</trkpt>
<trkpt lat="31.3188100" lon="35.2895200">
<ele>406.199982</ele>
<time>2024-11-18T09:15:24.098Z</time>
</trkpt>
<trkpt lat="31.3187400" lon="35.2893100">
<ele>408.470001</ele>
<time>2024-11-18T09:15:24.098Z</time>
</trkpt>
<trkpt lat="31.3186800" lon="35.2891700">
<ele>409.230011</ele>
<time>2024-11-18T09:15:24.098Z</time>
</trkpt>
<trkpt lat="31.3186000" lon="35.2891000">
<ele>409.250000</ele>
<time>2024-11-18T09:15:24.098Z</time>
</trkpt>
<trkpt lat="31.3185300" lon="35.2890500">
<ele>409.539978</ele>
<time>2024-11-18T09:15:24.098Z</time>
</trkpt>
<trkpt lat="31.3183100" lon="35.2889900">
<ele>409.839996</ele>
<time>2024-11-18T09:15:24.098Z</time>
</trkpt>
<trkpt lat="31.3181500" lon="35.2889300">
<ele>407.770020</ele>
<time>2024-11-18T09:15:24.098Z</time>
</trkpt>
<trkpt lat="31.3180300" lon="35.2888300">
<ele>407.000000</ele>
<time>2024-11-18T09:15:24.098Z</time>
</trkpt>
<trkpt lat="31.3179300" lon="35.2886800">
<ele>406.920013</ele>
<time>2024-11-18T09:15:24.098Z</time>
</trkpt>
<trkpt lat="31.3178800" lon="35.2885800">
<ele>407.019989</ele>
<time>2024-11-18T09:15:24.098Z</time>
</trkpt>
<trkpt lat="31.3178600" lon="35.2885300">
<ele>406.720001</ele>
<time>2024-11-18T09:15:24.098Z</time>
</trkpt>
<trkpt lat="31.3177400" lon="35.2884200">
<ele>405.809998</ele>
<time>2024-11-18T09:15:24.098Z</time>
</trkpt>
<trkpt lat="31.3176400" lon="35.2883800">
<ele>405.169983</ele>
<time>2024-11-18T09:15:24.098Z</time>
</trkpt>
<trkpt lat="31.3176400" lon="35.2883800">
<ele>405.169983</ele>
<time>2024-11-18T09:15:24.098Z</time>
</trkpt>
<trkpt lat="31.3176400" lon="35.2883800">
<ele>405.169983</ele>
<time>2024-11-18T09:15:24.098Z</time>
</trkpt>
<trkpt lat="31.3173700" lon="35.2883700">
<ele>404.200012</ele>
<time>2024-11-18T09:15:24.098Z</time>
</trkpt>
<trkpt lat="31.3172000" lon="35.2883400">
<ele>404.019989</ele>
<time>2024-11-18T09:15:24.098Z</time>
</trkpt>
<trkpt lat="31.3170700" lon="35.2882900">
<ele>403.289978</ele>
<time>2024-11-18T09:15:24.098Z</time>
</trkpt>
<trkpt lat="31.3169700" lon="35.2882500">
<ele>402.529999</ele>
<time>2024-11-18T09:15:24.098Z</time>
</trkpt>
<trkpt lat="31.3168600" lon="35.2882600">
<ele>402.760010</ele>
<time>2024-11-18T09:15:24.098Z</time>
</trkpt>
<trkpt lat="31.3167600" lon="35.2883500">
<ele>404.139984</ele>
<time>2024-11-18T09:15:24.098Z</time>
</trkpt>
<trkpt lat="31.3166300" lon="35.2884900">
<ele>406.179993</ele>
<time>2024-11-18T09:15:24.098Z</time>
</trkpt>
<trkpt lat="31.3164900" lon="35.2885900">
<ele>409.809998</ele>
<time>2024-11-18T09:15:24.098Z</time>
</trkpt>
<trkpt lat="31.3164100" lon="35.2886000">
<ele>411.389984</ele>
<time>2024-11-18T09:15:24.098Z</time>
</trkpt>
<trkpt lat="31.3162500" lon="35.2886200">
<ele>412.529968</ele>
<time>2024-11-18T09:15:24.098Z</time>
</trkpt>
<trkpt lat="31.3161100" lon="35.2885800">
<ele>412.539978</ele>
<time>2024-11-18T09:15:24.098Z</time>
</trkpt>
<trkpt lat="31.3160500" lon="35.2885500">
<ele>411.610016</ele>
<time>2024-11-18T09:15:24.098Z</time>
</trkpt>
<trkpt lat="31.3159500" lon="35.2885600">
<ele>410.839996</ele>
<time>2024-11-18T09:15:24.098Z</time>
</trkpt>
<trkpt lat="31.3158600" lon="35.2886300">
<ele>410.359985</ele>
<time>2024-11-18T09:15:24.098Z</time>
</trkpt>
<trkpt lat="31.3158000" lon="35.2887700">
<ele>410.259979</ele>
<time>2024-11-18T09:15:24.098Z</time>
</trkpt>
<trkpt lat="31.3157700" lon="35.2889400">
<ele>410.269989</ele>
<time>2024-11-18T09:15:24.098Z</time>
</trkpt>
<trkpt lat="31.3157400" lon="35.2890300">
<ele>409.820007</ele>
<time>2024-11-18T09:15:24.098Z</time>
</trkpt>
<trkpt lat="31.3157300" lon="35.2890700">
<ele>409.640015</ele>
<time>2024-11-18T09:15:24.098Z</time>
</trkpt>
<trkpt lat="31.3155500" lon="35.2892500">
<ele>406.979980</ele>
<time>2024-11-18T09:15:24.098Z</time>
</trkpt>
<trkpt lat="31.3154800" lon="35.2893600">
<ele>407.019989</ele>
<time>2024-11-18T09:15:24.098Z</time>
</trkpt>
<trkpt lat="31.3154600" lon="35.2896000">
<ele>408.639984</ele>
<time>2024-11-18T09:15:24.098Z</time>
</trkpt>
<trkpt lat="31.3154300" lon="35.2897800">
<ele>410.170013</ele>
<time>2024-11-18T09:15:24.098Z</time>
</trkpt>
<trkpt lat="31.3153500" lon="35.2899000">
<ele>411.179993</ele>
<time>2024-11-18T09:15:24.098Z</time>
</trkpt>
<trkpt lat="31.3152600" lon="35.2899800">
<ele>411.610016</ele>
<time>2024-11-18T09:15:24.098Z</time>
</trkpt>
<trkpt lat="31.3150700" lon="35.2900800">
<ele>410.259979</ele>
<time>2024-11-18T09:15:24.098Z</time>
</trkpt>
<trkpt lat="31.3147100" lon="35.2906700">
<ele>415.959991</ele>
<time>2024-11-18T09:15:24.098Z</time>
</trkpt>
<trkpt lat="31.3146100" lon="35.2907600">
<ele>417.060028</ele>
<time>2024-11-18T09:15:24.098Z</time>
</trkpt>
<trkpt lat="31.3145300" lon="35.2908700">
<ele>418.750000</ele>
<time>2024-11-18T09:15:24.098Z</time>
</trkpt>
<trkpt lat="31.3144600" lon="35.2910700">
<ele>421.369995</ele>
<time>2024-11-18T09:15:24.098Z</time>
</trkpt>
<trkpt lat="31.3143500" lon="35.2912300">
<ele>422.660004</ele>
<time>2024-11-18T09:15:24.098Z</time>
</trkpt>
<trkpt lat="31.3143100" lon="35.2913900">
<ele>423.990021</ele>
<time>2024-11-18T09:15:24.098Z</time>
</trkpt>
<trkpt lat="31.3143400" lon="35.2915500">
<ele>422.330017</ele>
<time>2024-11-18T09:15:24.098Z</time>
</trkpt>
<trkpt lat="31.3144800" lon="35.2916500">
<ele>420.220001</ele>
<time>2024-11-18T09:15:24.098Z</time>
</trkpt>
<trkpt lat="31.3147100" lon="35.2917000">
<ele>420.100006</ele>
<time>2024-11-18T09:15:24.098Z</time>
</trkpt>
<trkpt lat="31.3147200" lon="35.2917300">
<ele>420.220001</ele>
<time>2024-11-18T09:15:24.098Z</time>
</trkpt>
<trkpt lat="31.3147300" lon="35.2917600">
<ele>420.440002</ele>
<time>2024-11-18T09:15:24.098Z</time>
</trkpt>
<trkpt lat="31.3147500" lon="35.2917600">
<ele>420.700012</ele>
<time>2024-11-18T09:15:24.098Z</time>
</trkpt>
<trkpt lat="31.3147800" lon="35.2917500">
<ele>421.070007</ele>
<time>2024-11-18T09:15:24.098Z</time>
</trkpt>
<trkpt lat="31.3148400" lon="35.2917900">
<ele>421.949982</ele>
<time>2024-11-18T09:15:24.098Z</time>
</trkpt>
<trkpt lat="31.3149100" lon="35.2919300">
<ele>423.010010</ele>
<time>2024-11-18T09:15:24.098Z</time>
</trkpt>
<trkpt lat="31.3149700" lon="35.2920400">
<ele>424.510010</ele>
<time>2024-11-18T09:15:24.098Z</time>
</trkpt>
<trkpt lat="31.3151600" lon="35.2921800">
<ele>424.059998</ele>
<time>2024-11-18T09:15:24.098Z</time>
</trkpt>
<trkpt lat="31.3152100" lon="35.2922600">
<ele>423.659973</ele>
<time>2024-11-18T09:15:24.098Z</time>
</trkpt>
<trkpt lat="31.3152600" lon="35.2924100">
<ele>422.600006</ele>
<time>2024-11-18T09:15:24.098Z</time>
</trkpt>
<trkpt lat="31.3153200" lon="35.2925400">
<ele>420.679993</ele>
<time>2024-11-18T09:15:24.098Z</time>
</trkpt>
<trkpt lat="31.3153500" lon="35.2925900">
<ele>419.549988</ele>
<time>2024-11-18T09:15:24.098Z</time>
</trkpt>
<trkpt lat="31.3153500" lon="35.2927400">
<ele>418.070007</ele>
<time>2024-11-18T09:15:24.098Z</time>
</trkpt>
<trkpt lat="31.3153100" lon="35.2928100">
<ele>417.740021</ele>
<time>2024-11-18T09:15:24.098Z</time>
</trkpt>
<trkpt lat="31.3152200" lon="35.2929000">
<ele>417.910004</ele>
<time>2024-11-18T09:15:24.098Z</time>
</trkpt>
<trkpt lat="31.3151200" lon="35.2929200">
<ele>420.190002</ele>
<time>2024-11-18T09:15:24.098Z</time>
</trkpt>
<trkpt lat="31.3150400" lon="35.2929200">
<ele>422.360016</ele>
<time>2024-11-18T09:15:24.098Z</time>
</trkpt>
<trkpt lat="31.3148600" lon="35.2928600">
<ele>426.889984</ele>
<time>2024-11-18T09:15:24.098Z</time>
</trkpt>
<trkpt lat="31.3147400" lon="35.2928200">
<ele>429.780029</ele>
<time>2024-11-18T09:15:24.098Z</time>
</trkpt>
<trkpt lat="31.3145800" lon="35.2928500">
<ele>428.280029</ele>
<time>2024-11-18T09:15:24.098Z</time>
</trkpt>
<trkpt lat="31.3143600" lon="35.2928400">
<ele>425.710022</ele>
<time>2024-11-18T09:15:24.098Z</time>
</trkpt>
<trkpt lat="31.3142500" lon="35.2928800">
<ele>423.069977</ele>
<time>2024-11-18T09:15:24.098Z</time>
</trkpt>
<trkpt lat="31.3141100" lon="35.2929800">
<ele>420.570007</ele>
<time>2024-11-18T09:15:24.098Z</time>
</trkpt>
<trkpt lat="31.3140100" lon="35.2930800">
<ele>418.489990</ele>
<time>2024-11-18T09:15:24.098Z</time>
</trkpt>
<trkpt lat="31.3139600" lon="35.2932700">
<ele>416.080017</ele>
<time>2024-11-18T09:15:24.098Z</time>
</trkpt>
<trkpt lat="31.3139500" lon="35.2934500">
<ele>414.880005</ele>
<time>2024-11-18T09:15:24.098Z</time>
</trkpt>
<trkpt lat="31.3139600" lon="35.2936100">
<ele>414.280029</ele>
<time>2024-11-18T09:15:24.098Z</time>
</trkpt>
<trkpt lat="31.3140100" lon="35.2937500">
<ele>414.740021</ele>
<time>2024-11-18T09:15:24.098Z</time>
</trkpt>
<trkpt lat="31.3141200" lon="35.2938800">
<ele>415.549988</ele>
<time>2024-11-18T09:15:24.098Z</time>
</trkpt>
<trkpt lat="31.3142400" lon="35.2940400">
<ele>414.369995</ele>
<time>2024-11-18T09:15:24.098Z</time>
</trkpt>
<trkpt lat="31.3143300" lon="35.2941500">
<ele>413.989990</ele>
<time>2024-11-18T09:15:24.098Z</time>
</trkpt>
<trkpt lat="31.3145000" lon="35.2943000">
<ele>411.619995</ele>
<time>2024-11-18T09:15:24.098Z</time>
</trkpt>
<trkpt lat="31.3145700" lon="35.2944000">
<ele>410.279999</ele>
<time>2024-11-18T09:15:24.098Z</time>
</trkpt>
<trkpt lat="31.3147500" lon="35.2944900">
<ele>406.950012</ele>
<time>2024-11-18T09:15:24.098Z</time>
</trkpt>
<trkpt lat="31.3148500" lon="35.2945700">
<ele>404.399994</ele>
<time>2024-11-18T09:15:24.098Z</time>
</trkpt>
<trkpt lat="31.3150100" lon="35.2947400">
<ele>404.290009</ele>
<time>2024-11-18T09:15:24.098Z</time>
</trkpt>
<trkpt lat="31.3151800" lon="35.2948300">
<ele>405.540009</ele>
<time>2024-11-18T09:15:24.098Z</time>
</trkpt>
<trkpt lat="31.3152700" lon="35.2948700">
<ele>406.209991</ele>
<time>2024-11-18T09:15:24.098Z</time>
</trkpt>
<trkpt lat="31.3154600" lon="35.2949400">
<ele>406.620026</ele>
<time>2024-11-18T09:15:24.098Z</time>
</trkpt>
<trkpt lat="31.3156900" lon="35.2949900">
<ele>406.759979</ele>
<time>2024-11-18T09:15:24.098Z</time>
</trkpt>
<trkpt lat="31.3157500" lon="35.2950200">
<ele>406.790009</ele>
<time>2024-11-18T09:15:24.098Z</time>
</trkpt>
<trkpt lat="31.3158600" lon="35.2951300">
<ele>406.690002</ele>
<time>2024-11-18T09:15:24.098Z</time>
</trkpt>
<trkpt lat="31.3159300" lon="35.2952200">
<ele>405.460022</ele>
<time>2024-11-18T09:15:24.098Z</time>
</trkpt>
<trkpt lat="31.3164700" lon="35.2955300">
<ele>394.619995</ele>
<time>2024-11-18T09:15:24.098Z</time>
</trkpt>
<trkpt lat="31.3166000" lon="35.2955800">
<ele>393.109985</ele>
<time>2024-11-18T09:15:24.098Z</time>
</trkpt>
<trkpt lat="31.3167000" lon="35.2956700">
<ele>391.790009</ele>
<time>2024-11-18T09:15:24.098Z</time>
</trkpt>
<trkpt lat="31.3167500" lon="35.2957800">
<ele>391.160004</ele>
<time>2024-11-18T09:15:24.098Z</time>
</trkpt>
<trkpt lat="31.3167600" lon="35.2958300">
<ele>391.279999</ele>
<time>2024-11-18T09:15:24.098Z</time>
</trkpt>
<trkpt lat="31.3167400" lon="35.2959500">
<ele>391.670013</ele>
<time>2024-11-18T09:15:24.098Z</time>
</trkpt>
<trkpt lat="31.3167000" lon="35.2960400">
<ele>392.860016</ele>
<time>2024-11-18T09:15:24.098Z</time>
</trkpt>
<trkpt lat="31.3166100" lon="35.2961500">
<ele>393.420013</ele>
<time>2024-11-18T09:15:24.098Z</time>
</trkpt>
<trkpt lat="31.3164500" lon="35.2962400">
<ele>392.720001</ele>
<time>2024-11-18T09:15:24.098Z</time>
</trkpt>
<trkpt lat="31.3162100" lon="35.2963200">
<ele>391.989990</ele>
<time>2024-11-18T09:15:24.098Z</time>
</trkpt>
<trkpt lat="31.3160300" lon="35.2963900">
<ele>390.699982</ele>
<time>2024-11-18T09:15:24.098Z</time>
</trkpt>
<trkpt lat="31.3157700" lon="35.2964900">
<ele>389.559998</ele>
<time>2024-11-18T09:15:24.098Z</time>
</trkpt>
<trkpt lat="31.3156700" lon="35.2965500">
<ele>389.329987</ele>
<time>2024-11-18T09:15:24.098Z</time>
</trkpt>
<trkpt lat="31.3156000" lon="35.2966800">
<ele>387.950012</ele>
<time>2024-11-18T09:15:24.098Z</time>
</trkpt>
<trkpt lat="31.3154800" lon="35.2968200">
<ele>386.750000</ele>
<time>2024-11-18T09:15:24.098Z</time>
</trkpt>
<trkpt lat="31.3153600" lon="35.2968700">
<ele>385.340027</ele>
<time>2024-11-18T09:15:24.098Z</time>
</trkpt>
<trkpt lat="31.3153000" lon="35.2968400">
<ele>384.959991</ele>
<time>2024-11-18T09:15:24.098Z</time>
</trkpt>
<trkpt lat="31.3152700" lon="35.2968300">
<ele>384.799988</ele>
<time>2024-11-18T09:15:24.098Z</time>
</trkpt>
<trkpt lat="31.3152300" lon="35.2968000">
<ele>384.959991</ele>
<time>2024-11-18T09:15:24.098Z</time>
</trkpt>
<trkpt lat="31.3151400" lon="35.2968000">
<ele>384.820007</ele>
<time>2024-11-18T09:15:24.098Z</time>
</trkpt>
<trkpt lat="31.3149600" lon="35.2966800">
<ele>386.159973</ele>
<time>2024-11-18T09:15:24.098Z</time>
</trkpt>
<trkpt lat="31.3149000" lon="35.2966200">
<ele>386.309998</ele>
<time>2024-11-18T09:15:24.098Z</time>
</trkpt>
<trkpt lat="31.3146700" lon="35.2963000">
<ele>390.399994</ele>
<time>2024-11-18T09:15:24.098Z</time>
</trkpt>
<trkpt lat="31.3145600" lon="35.2961300">
<ele>391.660004</ele>
<time>2024-11-18T09:15:24.098Z</time>
</trkpt>
<trkpt lat="31.3145300" lon="35.2960600">
<ele>392.350006</ele>
<time>2024-11-18T09:15:24.098Z</time>
</trkpt>
<trkpt lat="31.3143300" lon="35.2958500">
<ele>388.059998</ele>
<time>2024-11-18T09:15:24.098Z</time>
</trkpt>
<trkpt lat="31.3142900" lon="35.2957800">
<ele>387.109985</ele>
<time>2024-11-18T09:15:24.098Z</time>
</trkpt>
<trkpt lat="31.3141500" lon="35.2955100">
<ele>386.729980</ele>
<time>2024-11-18T09:15:24.098Z</time>
</trkpt>
<trkpt lat="31.3140400" lon="35.2952600">
<ele>389.130005</ele>
<time>2024-11-18T09:15:24.098Z</time>
</trkpt>
<trkpt lat="31.3139100" lon="35.2950700">
<ele>385.130005</ele>
<time>2024-11-18T09:15:24.098Z</time>
</trkpt>
<trkpt lat="31.3138200" lon="35.2948800">
<ele>386.970032</ele>
<time>2024-11-18T09:15:24.098Z</time>
</trkpt>
<trkpt lat="31.3137800" lon="35.2947400">
<ele>390.070007</ele>
<time>2024-11-18T09:15:24.098Z</time>
</trkpt>
<trkpt lat="31.3136900" lon="35.2945700">
<ele>391.089996</ele>
<time>2024-11-18T09:15:24.098Z</time>
</trkpt>
<trkpt lat="31.3134700" lon="35.2942900">
<ele>390.329987</ele>
<time>2024-11-18T09:15:24.098Z</time>
</trkpt>
<trkpt lat="31.3134400" lon="35.2942900">
<ele>388.699982</ele>
<time>2024-11-18T09:15:24.098Z</time>
</trkpt>
<trkpt lat="31.3134300" lon="35.2942300">
<ele>389.809998</ele>
<time>2024-11-18T09:15:24.098Z</time>
</trkpt>
<trkpt lat="31.3133400" lon="35.2941700">
<ele>386.299988</ele>
<time>2024-11-18T09:15:24.098Z</time>
</trkpt>
<trkpt lat="31.3133100" lon="35.2941100">
<ele>386.279999</ele>
<time>2024-11-18T09:15:24.098Z</time>
</trkpt>
<trkpt lat="31.3133100" lon="35.2940800">
<ele>387.010010</ele>
<time>2024-11-18T09:15:24.098Z</time>
</trkpt>
<trkpt lat="31.3133300" lon="35.2940000">
<ele>390.019989</ele>
<time>2024-11-18T09:15:24.098Z</time>
</trkpt>
<trkpt lat="31.3132600" lon="35.2935700">
<ele>392.960022</ele>
<time>2024-11-18T09:15:24.098Z</time>
</trkpt>
<trkpt lat="31.3131400" lon="35.2931900">
<ele>394.220001</ele>
<time>2024-11-18T09:15:24.098Z</time>
</trkpt>
<trkpt lat="31.3130600" lon="35.2930900">
<ele>393.210022</ele>
<time>2024-11-18T09:15:24.098Z</time>
</trkpt>
<trkpt lat="31.3130000" lon="35.2930500">
<ele>391.339996</ele>
<time>2024-11-18T09:15:24.098Z</time>
</trkpt>
<trkpt lat="31.3128800" lon="35.2930400">
<ele>385.540009</ele>
<time>2024-11-18T09:15:24.098Z</time>
</trkpt>
<trkpt lat="31.3128300" lon="35.2930900">
<ele>381.639984</ele>
<time>2024-11-18T09:15:24.098Z</time>
</trkpt>
<trkpt lat="31.3127700" lon="35.2930800">
<ele>379.019989</ele>
<time>2024-11-18T09:15:24.098Z</time>
</trkpt>
<trkpt lat="31.3127400" lon="35.2930400">
<ele>379.019989</ele>
<time>2024-11-18T09:15:24.098Z</time>
</trkpt>
<trkpt lat="31.3127200" lon="35.2929700">
<ele>380.010010</ele>
<time>2024-11-18T09:15:24.098Z</time>
</trkpt>
<trkpt lat="31.3127400" lon="35.2929200">
<ele>381.989990</ele>
<time>2024-11-18T09:15:24.098Z</time>
</trkpt>
<trkpt lat="31.3128300" lon="35.2927400">
<ele>390.970001</ele>
<time>2024-11-18T09:15:24.098Z</time>
</trkpt>
<trkpt lat="31.3128100" lon="35.2926200">
<ele>394.240021</ele>
<time>2024-11-18T09:15:24.098Z</time>
</trkpt>
<trkpt lat="31.3127700" lon="35.2925600">
<ele>394.509979</ele>
<time>2024-11-18T09:15:24.098Z</time>
</trkpt>
<trkpt lat="31.3126000" lon="35.2924700">
<ele>390.390015</ele>
<time>2024-11-18T09:15:24.098Z</time>
</trkpt>
<trkpt lat="31.3125300" lon="35.2924100">
<ele>389.759979</ele>
<time>2024-11-18T09:15:24.098Z</time>
</trkpt>
<trkpt lat="31.3124700" lon="35.2923400">
<ele>390.550018</ele>
<time>2024-11-18T09:15:24.098Z</time>
</trkpt>
<trkpt lat="31.3124000" lon="35.2923300">
<ele>389.150024</ele>
<time>2024-11-18T09:15:24.098Z</time>
</trkpt>
<trkpt lat="31.3123100" lon="35.2923600">
<ele>385.420013</ele>
<time>2024-11-18T09:15:24.098Z</time>
</trkpt>
<trkpt lat="31.3121700" lon="35.2923900">
<ele>380.750000</ele>
<time>2024-11-18T09:15:24.098Z</time>
</trkpt>
<trkpt lat="31.3121200" lon="35.2923600">
<ele>381.589996</ele>
<time>2024-11-18T09:15:24.098Z</time>
</trkpt>
<trkpt lat="31.3120500" lon="35.2923600">
<ele>380.580017</ele>
<time>2024-11-18T09:15:24.098Z</time>
</trkpt>
<trkpt lat="31.3120100" lon="35.2923400">
<ele>381.119995</ele>
<time>2024-11-18T09:15:24.098Z</time>
</trkpt>
<trkpt lat="31.3118100" lon="35.2923300">
<ele>378.480011</ele>
<time>2024-11-18T09:15:24.098Z</time>
</trkpt>
<trkpt lat="31.3117400" lon="35.2923400">
<ele>376.650024</ele>
<time>2024-11-18T09:15:24.098Z</time>
</trkpt>
<trkpt lat="31.3115700" lon="35.2923500">
<ele>375.519989</ele>
<time>2024-11-18T09:15:24.098Z</time>
</trkpt>
<trkpt lat="31.3114200" lon="35.2923200">
<ele>378.230011</ele>
<time>2024-11-18T09:15:24.098Z</time>
</trkpt>
<trkpt lat="31.3113700" lon="35.2923600">
<ele>376.350006</ele>
<time>2024-11-18T09:15:24.098Z</time>
</trkpt>
<trkpt lat="31.3113500" lon="35.2924000">
<ele>374.420013</ele>
<time>2024-11-18T09:15:24.098Z</time>
</trkpt>
<trkpt lat="31.3113300" lon="35.2925500">
<ele>369.389984</ele>
<time>2024-11-18T09:15:24.098Z</time>
</trkpt>
<trkpt lat="31.3113100" lon="35.2926000">
<ele>368.690002</ele>
<time>2024-11-18T09:15:24.098Z</time>
</trkpt>
<trkpt lat="31.3112900" lon="35.2926300">
<ele>368.349976</ele>
<time>2024-11-18T09:15:24.098Z</time>
</trkpt>
<trkpt lat="31.3112000" lon="35.2926300">
<ele>368.980011</ele>
<time>2024-11-18T09:15:24.098Z</time>
</trkpt>
<trkpt lat="31.3110600" lon="35.2925600">
<ele>370.050018</ele>
<time>2024-11-18T09:15:24.098Z</time>
</trkpt>
<trkpt lat="31.3109400" lon="35.2925100">
<ele>370.209991</ele>
<time>2024-11-18T09:15:24.098Z</time>
</trkpt>
<trkpt lat="31.3108300" lon="35.2924000">
<ele>371.790009</ele>
<time>2024-11-18T09:15:24.098Z</time>
</trkpt>
<trkpt lat="31.3107600" lon="35.2923600">
<ele>372.259979</ele>
<time>2024-11-18T09:15:24.098Z</time>
</trkpt>
<trkpt lat="31.3107000" lon="35.2924000">
<ele>371.320007</ele>
<time>2024-11-18T09:15:24.098Z</time>
</trkpt>
<trkpt lat="31.3106000" lon="35.2925000">
<ele>369.160004</ele>
<time>2024-11-18T09:15:24.098Z</time>
</trkpt>
<trkpt lat="31.3105500" lon="35.2925300">
<ele>368.070007</ele>
<time>2024-11-18T09:15:24.098Z</time>
</trkpt>
<trkpt lat="31.3105000" lon="35.2925200">
<ele>368.770020</ele>
<time>2024-11-18T09:15:24.098Z</time>
</trkpt>
<trkpt lat="31.3103200" lon="35.2923700">
<ele>374.229980</ele>
<time>2024-11-18T09:15:24.098Z</time>
</trkpt>
<trkpt lat="31.3102400" lon="35.2923000">
<ele>376.559998</ele>
<time>2024-11-18T09:15:24.098Z</time>
</trkpt>
<trkpt lat="31.3101400" lon="35.2923000">
<ele>376.050018</ele>
<time>2024-11-18T09:15:24.098Z</time>
</trkpt>
<trkpt lat="31.3100900" lon="35.2923300">
<ele>375.070007</ele>
<time>2024-11-18T09:15:24.098Z</time>
</trkpt>
<trkpt lat="31.3100800" lon="35.2923500">
<ele>374.550018</ele>
<time>2024-11-18T09:15:24.098Z</time>
</trkpt>
<trkpt lat="31.3100800" lon="35.2923500">
<ele>374.550018</ele>
<time>2024-11-18T09:15:24.098Z</time>
</trkpt>
<trkpt lat="31.3100800" lon="35.2923500">
<ele>374.550018</ele>
<time>2024-11-18T09:15:24.098Z</time>
</trkpt>
<trkpt lat="31.3100500" lon="35.2923900">
<ele>373.520020</ele>
<time>2024-11-18T09:15:24.098Z</time>
</trkpt>
<trkpt lat="31.3100100" lon="35.2925400">
<ele>370.130005</ele>
<time>2024-11-18T09:15:24.098Z</time>
</trkpt>
<trkpt lat="31.3099800" lon="35.2926000">
<ele>368.630005</ele>
<time>2024-11-18T09:15:24.098Z</time>
</trkpt>
<trkpt lat="31.3099300" lon="35.2926400">
<ele>367.350006</ele>
<time>2024-11-18T09:15:24.098Z</time>
</trkpt>
<trkpt lat="31.3098700" lon="35.2926600">
<ele>366.479980</ele>
<time>2024-11-18T09:15:24.098Z</time>
</trkpt>
<trkpt lat="31.3098300" lon="35.2926300">
<ele>366.599976</ele>
<time>2024-11-18T09:15:24.098Z</time>
</trkpt>
<trkpt lat="31.3097600" lon="35.2925600">
<ele>366.809998</ele>
<time>2024-11-18T09:15:24.098Z</time>
</trkpt>
<trkpt lat="31.3096900" lon="35.2925100">
<ele>366.760010</ele>
<time>2024-11-18T09:15:24.098Z</time>
</trkpt>
<trkpt lat="31.3095700" lon="35.2925000">
<ele>366.450012</ele>
<time>2024-11-18T09:15:24.098Z</time>
</trkpt>
<trkpt lat="31.3095400" lon="35.2924900">
<ele>366.590027</ele>
<time>2024-11-18T09:15:24.098Z</time>
</trkpt>
<trkpt lat="31.3095200" lon="35.2924700">
<ele>367.050018</ele>
<time>2024-11-18T09:15:24.098Z</time>
</trkpt>
<trkpt lat="31.3095200" lon="35.2924100">
<ele>368.600006</ele>
<time>2024-11-18T09:15:24.098Z</time>
</trkpt>
<trkpt lat="31.3095100" lon="35.2921600">
<ele>373.899994</ele>
<time>2024-11-18T09:15:24.098Z</time>
</trkpt>
<trkpt lat="31.3095500" lon="35.2921200">
<ele>374.219971</ele>
<time>2024-11-18T09:15:24.098Z</time>
</trkpt>
<trkpt lat="31.3095400" lon="35.2920700">
<ele>374.630005</ele>
<time>2024-11-18T09:15:24.098Z</time>
</trkpt>
<trkpt lat="31.3095000" lon="35.2920500">
<ele>374.470032</ele>
<time>2024-11-18T09:15:24.098Z</time>
</trkpt>
<trkpt lat="31.3093700" lon="35.2920800">
<ele>371.179993</ele>
<time>2024-11-18T09:15:24.098Z</time>
</trkpt>
<trkpt lat="31.3093100" lon="35.2920700">
<ele>368.890015</ele>
<time>2024-11-18T09:15:24.098Z</time>
</trkpt>
<trkpt lat="31.3092500" lon="35.2920000">
<ele>366.440002</ele>
<time>2024-11-18T09:15:24.098Z</time>
</trkpt>
<trkpt lat="31.3091500" lon="35.2919500">
<ele>363.429993</ele>
<time>2024-11-18T09:15:24.098Z</time>
</trkpt>
<trkpt lat="31.3090900" lon="35.2919700">
<ele>364.899994</ele>
<time>2024-11-18T09:15:24.098Z</time>
</trkpt>
<trkpt lat="31.3088900" lon="35.2921100">
<ele>367.600006</ele>
<time>2024-11-18T09:15:24.098Z</time>
</trkpt>
<trkpt lat="31.3088100" lon="35.2921600">
<ele>367.050018</ele>
<time>2024-11-18T09:15:24.098Z</time>
</trkpt>
<trkpt lat="31.3086400" lon="35.2922000">
<ele>367.069977</ele>
<time>2024-11-18T09:15:24.098Z</time>
</trkpt>
<trkpt lat="31.3085600" lon="35.2922300">
<ele>367.020020</ele>
<time>2024-11-18T09:15:24.098Z</time>
</trkpt>
<trkpt lat="31.3084800" lon="35.2922700">
<ele>367.010010</ele>
<time>2024-11-18T09:15:24.098Z</time>
</trkpt>
<trkpt lat="31.3082200" lon="35.2923900">
<ele>366.230011</ele>
<time>2024-11-18T09:15:24.098Z</time>
</trkpt>
<trkpt lat="31.3080900" lon="35.2924600">
<ele>364.899994</ele>
<time>2024-11-18T09:15:24.098Z</time>
</trkpt>
<trkpt lat="31.3079600" lon="35.2925100">
<ele>363.540009</ele>
<time>2024-11-18T09:15:24.098Z</time>
</trkpt>
<trkpt lat="31.3078600" lon="35.2925800">
<ele>362.229980</ele>
<time>2024-11-18T09:15:24.098Z</time>
</trkpt>
<trkpt lat="31.3077800" lon="35.2927200">
<ele>359.850006</ele>
<time>2024-11-18T09:15:24.098Z</time>
</trkpt>
<trkpt lat="31.3077800" lon="35.2928500">
<ele>358.760010</ele>
<time>2024-11-18T09:15:24.098Z</time>
</trkpt>
<trkpt lat="31.3078100" lon="35.2931200">
<ele>357.540009</ele>
<time>2024-11-18T09:15:24.098Z</time>
</trkpt>
<trkpt lat="31.3078300" lon="35.2932100">
<ele>356.709991</ele>
<time>2024-11-18T09:15:24.098Z</time>
</trkpt>
<trkpt lat="31.3079400" lon="35.2933500">
<ele>355.959991</ele>
<time>2024-11-18T09:15:24.098Z</time>
</trkpt>
<trkpt lat="31.3079700" lon="35.2934400">
<ele>355.110016</ele>
<time>2024-11-18T09:15:24.098Z</time>
</trkpt>
<trkpt lat="31.3078700" lon="35.2935000">
<ele>353.459991</ele>
<time>2024-11-18T09:15:24.098Z</time>
</trkpt>
<trkpt lat="31.3077200" lon="35.2934000">
<ele>353.979980</ele>
<time>2024-11-18T09:15:24.098Z</time>
</trkpt>
<trkpt lat="31.3076700" lon="35.2933600">
<ele>354.339996</ele>
<time>2024-11-18T09:15:24.098Z</time>
</trkpt>
<trkpt lat="31.3075100" lon="35.2933100">
<ele>354.050018</ele>
<time>2024-11-18T09:15:24.098Z</time>
</trkpt>
<trkpt lat="31.3072900" lon="35.2929500">
<ele>351.820007</ele>
<time>2024-11-18T09:15:24.098Z</time>
</trkpt>
<trkpt lat="31.3071400" lon="35.2927500">
<ele>350.580017</ele>
<time>2024-11-18T09:15:24.098Z</time>
</trkpt>
<trkpt lat="31.3070300" lon="35.2925400">
<ele>350.739990</ele>
<time>2024-11-18T09:15:24.098Z</time>
</trkpt>
<trkpt lat="31.3070000" lon="35.2924900">
<ele>350.620026</ele>
<time>2024-11-18T09:15:24.098Z</time>
</trkpt>
<trkpt lat="31.3068700" lon="35.2924500">
<ele>350.360016</ele>
<time>2024-11-18T09:15:24.098Z</time>
</trkpt>
<trkpt lat="31.3066600" lon="35.2923500">
<ele>352.080017</ele>
<time>2024-11-18T09:15:24.098Z</time>
</trkpt>
<trkpt lat="31.3065900" lon="35.2923600">
<ele>352.009979</ele>
<time>2024-11-18T09:15:24.098Z</time>
</trkpt>
<trkpt lat="31.3062200" lon="35.2922700">
<ele>352.709991</ele>
<time>2024-11-18T09:15:24.098Z</time>
</trkpt>
<trkpt lat="31.3061700" lon="35.2923300">
<ele>353.089996</ele>
<time>2024-11-18T09:15:24.098Z</time>
</trkpt>
<trkpt lat="31.3061600" lon="35.2925000">
<ele>353.649994</ele>
<time>2024-11-18T09:15:24.098Z</time>
</trkpt>
<trkpt lat="31.3061600" lon="35.2928400">
<ele>351.600006</ele>
<time>2024-11-18T09:15:24.098Z</time>
</trkpt>
<trkpt lat="31.3061100" lon="35.2930800">
<ele>350.920013</ele>
<time>2024-11-18T09:15:24.098Z</time>
</trkpt>
<trkpt lat="31.3060700" lon="35.2931900">
<ele>350.669983</ele>
<time>2024-11-18T09:15:24.098Z</time>
</trkpt>
<trkpt lat="31.3060100" lon="35.2933900">
<ele>350.190002</ele>
<time>2024-11-18T09:15:24.098Z</time>
</trkpt>
<trkpt lat="31.3059500" lon="35.2935200">
<ele>350.169983</ele>
<time>2024-11-18T09:15:24.098Z</time>
</trkpt>
<trkpt lat="31.3058000" lon="35.2937300">
<ele>350.130005</ele>
<time>2024-11-18T09:15:24.098Z</time>
</trkpt>
<trkpt lat="31.3058400" lon="35.2938900">
<ele>352.029999</ele>
<time>2024-11-18T09:15:24.098Z</time>
</trkpt>
<trkpt lat="31.3056700" lon="35.2942200">
<ele>352.349976</ele>
<time>2024-11-18T09:15:24.098Z</time>
</trkpt>
<trkpt lat="31.3055000" lon="35.2943900">
<ele>353.580017</ele>
<time>2024-11-18T09:15:24.098Z</time>
</trkpt>
<trkpt lat="31.3053900" lon="35.2945600">
<ele>354.540009</ele>
<time>2024-11-18T09:15:24.098Z</time>
</trkpt>
<trkpt lat="31.3053800" lon="35.2947700">
<ele>356.480011</ele>
<time>2024-11-18T09:15:24.098Z</time>
</trkpt>
<trkpt lat="31.3054200" lon="35.2949700">
<ele>356.950012</ele>
<time>2024-11-18T09:15:24.098Z</time>
</trkpt>
<trkpt lat="31.3057200" lon="35.2957500">
<ele>354.869995</ele>
<time>2024-11-18T09:15:24.098Z</time>
</trkpt>
<trkpt lat="31.3060100" lon="35.2962200">
<ele>351.220001</ele>
<time>2024-11-18T09:15:24.098Z</time>
</trkpt>
<trkpt lat="31.3062100" lon="35.2968300">
<ele>348.750000</ele>
<time>2024-11-18T09:15:24.098Z</time>
</trkpt>
<trkpt lat="31.3063500" lon="35.2970500">
<ele>349.309998</ele>
<time>2024-11-18T09:15:24.098Z</time>
</trkpt>
<trkpt lat="31.3064400" lon="35.2972000">
<ele>349.229980</ele>
<time>2024-11-18T09:15:24.098Z</time>
</trkpt>
<trkpt lat="31.3064100" lon="35.2973800">
<ele>349.510010</ele>
<time>2024-11-18T09:15:24.098Z</time>
</trkpt>
<trkpt lat="31.3062700" lon="35.2976500">
<ele>350.649994</ele>
<time>2024-11-18T09:15:24.098Z</time>
</trkpt>
<trkpt lat="31.3061500" lon="35.2981200">
<ele>351.569977</ele>
<time>2024-11-18T09:15:24.098Z</time>
</trkpt>
<trkpt lat="31.3061200" lon="35.2985700">
<ele>347.480011</ele>
<time>2024-11-18T09:15:24.098Z</time>
</trkpt>
<trkpt lat="31.3060600" lon="35.2987300">
<ele>345.299988</ele>
<time>2024-11-18T09:15:24.098Z</time>
</trkpt>
<trkpt lat="31.3057100" lon="35.2986400">
<ele>347.150024</ele>
<time>2024-11-18T09:15:24.098Z</time>
</trkpt>
<trkpt lat="31.3056600" lon="35.2987200">
<ele>346.139984</ele>
<time>2024-11-18T09:15:24.098Z</time>
</trkpt>
<trkpt lat="31.3056600" lon="35.2987200">
<ele>346.139984</ele>
<time>2024-11-18T09:15:24.098Z</time>
</trkpt>
<trkpt lat="31.3056600" lon="35.2987200">
<ele>346.139984</ele>
<time>2024-11-18T09:15:24.098Z</time>
</trkpt>
<trkpt lat="31.3059200" lon="35.2991900">
<ele>341.790009</ele>
<time>2024-11-18T09:15:24.098Z</time>
</trkpt>
<trkpt lat="31.3058600" lon="35.2992800">
<ele>341.660004</ele>
<time>2024-11-18T09:15:24.098Z</time>
</trkpt>
<trkpt lat="31.3058400" lon="35.2993400">
<ele>341.979980</ele>
<time>2024-11-18T09:15:24.098Z</time>
</trkpt>
<trkpt lat="31.3057900" lon="35.2994800">
<ele>343.880005</ele>
<time>2024-11-18T09:15:24.098Z</time>
</trkpt>
<trkpt lat="31.3057300" lon="35.2996400">
<ele>345.899994</ele>
<time>2024-11-18T09:15:24.098Z</time>
</trkpt>
<trkpt lat="31.3058300" lon="35.2998100">
<ele>345.040009</ele>
<time>2024-11-18T09:15:24.098Z</time>
</trkpt>
<trkpt lat="31.3058800" lon="35.3000300">
<ele>344.830017</ele>
<time>2024-11-18T09:15:24.098Z</time>
</trkpt>
<trkpt lat="31.3059200" lon="35.3003000">
<ele>344.559998</ele>
<time>2024-11-18T09:15:24.098Z</time>
</trkpt>
<trkpt lat="31.3060600" lon="35.3006300">
<ele>340.359985</ele>
<time>2024-11-18T09:15:24.098Z</time>
</trkpt>
<trkpt lat="31.3060900" lon="35.3007400">
<ele>338.059998</ele>
<time>2024-11-18T09:15:24.098Z</time>
</trkpt>
<trkpt lat="31.3060700" lon="35.3008000">
<ele>337.430023</ele>
<time>2024-11-18T09:15:24.098Z</time>
</trkpt>
<trkpt lat="31.3061100" lon="35.3009900">
<ele>334.329987</ele>
<time>2024-11-18T09:15:24.098Z</time>
</trkpt>
<trkpt lat="31.3061100" lon="35.3012100">
<ele>331.960022</ele>
<time>2024-11-18T09:15:24.098Z</time>
</trkpt>
<trkpt lat="31.3060900" lon="35.3014700">
<ele>329.239990</ele>
<time>2024-11-18T09:15:24.098Z</time>
</trkpt>
<trkpt lat="31.3060400" lon="35.3015700">
<ele>328.589996</ele>
<time>2024-11-18T09:15:24.098Z</time>
</trkpt>
<trkpt lat="31.3059800" lon="35.3016100">
<ele>328.899994</ele>
<time>2024-11-18T09:15:24.098Z</time>
</trkpt>
<trkpt lat="31.3059300" lon="35.3016300">
<ele>329.309998</ele>
<time>2024-11-18T09:15:24.098Z</time>
</trkpt>
<trkpt lat="31.3058700" lon="35.3016100">
<ele>330.639984</ele>
<time>2024-11-18T09:15:24.098Z</time>
</trkpt>
<trkpt lat="31.3057900" lon="35.3015900">
<ele>332.190002</ele>
<time>2024-11-18T09:15:24.098Z</time>
</trkpt>
<trkpt lat="31.3057300" lon="35.3015900">
<ele>332.940002</ele>
<time>2024-11-18T09:15:24.098Z</time>
</trkpt>
<trkpt lat="31.3057000" lon="35.3016400">
<ele>332.399994</ele>
<time>2024-11-18T09:15:24.098Z</time>
</trkpt>
<trkpt lat="31.3057100" lon="35.3017600">
<ele>330.989990</ele>
<time>2024-11-18T09:15:24.098Z</time>
</trkpt>
<trkpt lat="31.3057200" lon="35.3018900">
<ele>329.839996</ele>
<time>2024-11-18T09:15:24.098Z</time>
</trkpt>
<trkpt lat="31.3057200" lon="35.3019900">
<ele>329.959991</ele>
<time>2024-11-18T09:15:24.098Z</time>
</trkpt>
<trkpt lat="31.3056900" lon="35.3020500">
<ele>330.630005</ele>
<time>2024-11-18T09:15:24.098Z</time>
</trkpt>
<trkpt lat="31.3056700" lon="35.3021000">
<ele>331.069977</ele>
<time>2024-11-18T09:15:24.098Z</time>
</trkpt>
<trkpt lat="31.3056200" lon="35.3021200">
<ele>330.989990</ele>
<time>2024-11-18T09:15:24.098Z</time>
</trkpt>
<trkpt lat="31.3055700" lon="35.3021000">
<ele>330.619995</ele>
<time>2024-11-18T09:15:24.098Z</time>
</trkpt>
<trkpt lat="31.3055100" lon="35.3020900">
<ele>330.830017</ele>
<time>2024-11-18T09:15:24.098Z</time>
</trkpt>
<trkpt lat="31.3053100" lon="35.3020400">
<ele>332.940002</ele>
<time>2024-11-18T09:15:24.098Z</time>
</trkpt>
<trkpt lat="31.3051700" lon="35.3020300">
<ele>335.100006</ele>
<time>2024-11-18T09:15:24.098Z</time>
</trkpt>
<trkpt lat="31.3050300" lon="35.3020500">
<ele>337.130005</ele>
<time>2024-11-18T09:15:24.098Z</time>
</trkpt>
<trkpt lat="31.3049200" lon="35.3021100">
<ele>339.020020</ele>
<time>2024-11-18T09:15:24.098Z</time>
</trkpt>
<trkpt lat="31.3049000" lon="35.3021500">
<ele>339.329987</ele>
<time>2024-11-18T09:15:24.098Z</time>
</trkpt>
<trkpt lat="31.3049000" lon="35.3021500">
<ele>339.329987</ele>
<time>2024-11-18T09:15:24.098Z</time>
</trkpt>
<trkpt lat="31.3049000" lon="35.3021500">
<ele>339.329987</ele>
<time>2024-11-18T09:15:24.098Z</time>
</trkpt>
<trkpt lat="31.3049000" lon="35.3022000">
<ele>339.209991</ele>
<time>2024-11-18T09:15:24.098Z</time>
</trkpt>
<trkpt lat="31.3049400" lon="35.3022600">
<ele>337.850006</ele>
<time>2024-11-18T09:15:24.098Z</time>
</trkpt>
<trkpt lat="31.3050000" lon="35.3022800">
<ele>336.580017</ele>
<time>2024-11-18T09:15:24.098Z</time>
</trkpt>
<trkpt lat="31.3051500" lon="35.3022700">
<ele>332.600006</ele>
<time>2024-11-18T09:15:24.098Z</time>
</trkpt>
<trkpt lat="31.3052600" lon="35.3022900">
<ele>329.269989</ele>
<time>2024-11-18T09:15:24.098Z</time>
</trkpt>
<trkpt lat="31.3053800" lon="35.3023200">
<ele>328.610016</ele>
<time>2024-11-18T09:15:24.098Z</time>
</trkpt>
<trkpt lat="31.3054500" lon="35.3023700">
<ele>327.959991</ele>
<time>2024-11-18T09:15:24.098Z</time>
</trkpt>
<trkpt lat="31.3054800" lon="35.3023900">
<ele>327.709991</ele>
<time>2024-11-18T09:15:24.098Z</time>
</trkpt>
<trkpt lat="31.3055900" lon="35.3024500">
<ele>328.190002</ele>
<time>2024-11-18T09:15:24.098Z</time>
</trkpt>
<trkpt lat="31.3055600" lon="35.3025500">
<ele>327.609985</ele>
<time>2024-11-18T09:15:24.098Z</time>
</trkpt>
<trkpt lat="31.3055600" lon="35.3025500">
<ele>327.609985</ele>
<time>2024-11-18T09:15:24.098Z</time>
</trkpt>
<trkpt lat="31.3055300" lon="35.3025700">
<ele>327.880005</ele>
<time>2024-11-18T09:15:24.098Z</time>
</trkpt>
<trkpt lat="31.3054700" lon="35.3025600">
<ele>327.290009</ele>
<time>2024-11-18T09:15:24.098Z</time>
</trkpt>
<trkpt lat="31.3054200" lon="35.3025700">
<ele>327.279999</ele>
<time>2024-11-18T09:15:24.098Z</time>
</trkpt>
<trkpt lat="31.3053600" lon="35.3026200">
<ele>328.140015</ele>
<time>2024-11-18T09:15:24.098Z</time>
</trkpt>
<trkpt lat="31.3053400" lon="35.3026900">
<ele>329.630005</ele>
<time>2024-11-18T09:15:24.098Z</time>
</trkpt>
<trkpt lat="31.3053200" lon="35.3027900">
<ele>331.619995</ele>
<time>2024-11-18T09:15:24.098Z</time>
</trkpt>
<trkpt lat="31.3051200" lon="35.3031500">
<ele>335.680023</ele>
<time>2024-11-18T09:15:24.098Z</time>
</trkpt>
<trkpt lat="31.3050900" lon="35.3032600">
<ele>334.820007</ele>
<time>2024-11-18T09:15:24.098Z</time>
</trkpt>
<trkpt lat="31.3050900" lon="35.3034500">
<ele>333.460022</ele>
<time>2024-11-18T09:15:24.098Z</time>
</trkpt>
<trkpt lat="31.3051100" lon="35.3035800">
<ele>332.739990</ele>
<time>2024-11-18T09:15:24.098Z</time>
</trkpt>
<trkpt lat="31.3051800" lon="35.3039500">
<ele>331.270020</ele>
<time>2024-11-18T09:15:24.098Z</time>
</trkpt>
<trkpt lat="31.3053900" lon="35.3042900">
<ele>330.470001</ele>
<time>2024-11-18T09:15:24.098Z</time>
</trkpt>
<trkpt lat="31.3056200" lon="35.3046600">
<ele>327.510010</ele>
<time>2024-11-18T09:15:24.098Z</time>
</trkpt>
<trkpt lat="31.3060800" lon="35.3051000">
<ele>319.949982</ele>
<time>2024-11-18T09:15:24.098Z</time>
</trkpt>
<trkpt lat="31.3063200" lon="35.3052700">
<ele>319.230011</ele>
<time>2024-11-18T09:15:24.098Z</time>
</trkpt>
<trkpt lat="31.3064200" lon="35.3054700">
<ele>318.260010</ele>
<time>2024-11-18T09:15:24.098Z</time>
</trkpt>
<trkpt lat="31.3065800" lon="35.3055900">
<ele>316.690002</ele>
<time>2024-11-18T09:15:24.098Z</time>
</trkpt>
<trkpt lat="31.3069100" lon="35.3056800">
<ele>316.029999</ele>
<time>2024-11-18T09:15:24.098Z</time>
</trkpt>
<trkpt lat="31.3072200" lon="35.3057200">
<ele>314.419983</ele>
<time>2024-11-18T09:15:24.098Z</time>
</trkpt>
<trkpt lat="31.3073300" lon="35.3057500">
<ele>314.690002</ele>
<time>2024-11-18T09:15:24.098Z</time>
</trkpt>
<trkpt lat="31.3075000" lon="35.3057000">
<ele>315.480011</ele>
<time>2024-11-18T09:15:24.098Z</time>
</trkpt>
<trkpt lat="31.3076000" lon="35.3056900">
<ele>314.029999</ele>
<time>2024-11-18T09:15:24.098Z</time>
</trkpt>
<trkpt lat="31.3077000" lon="35.3056400">
<ele>311.690002</ele>
<time>2024-11-18T09:15:24.098Z</time>
</trkpt>
<trkpt lat="31.3077200" lon="35.3056600">
<ele>311.670013</ele>
<time>2024-11-18T09:15:24.098Z</time>
</trkpt>
<trkpt lat="31.3077200" lon="35.3056600">
<ele>311.670013</ele>
<time>2024-11-18T09:15:24.098Z</time>
</trkpt>
<trkpt lat="31.3077200" lon="35.3056600">
<ele>311.670013</ele>
<time>2024-11-18T09:15:24.098Z</time>
</trkpt>
<trkpt lat="31.3077200" lon="35.3056600">
<ele>311.670013</ele>
<time>2024-11-18T09:15:24.098Z</time>
</trkpt>
<trkpt lat="31.3077500" lon="35.3056700">
<ele>311.350006</ele>
<time>2024-11-18T09:15:24.098Z</time>
</trkpt>
<trkpt lat="31.3077100" lon="35.3057300">
<ele>313.120026</ele>
<time>2024-11-18T09:15:24.098Z</time>
</trkpt>
<trkpt lat="31.3076200" lon="35.3057500">
<ele>314.260010</ele>
<time>2024-11-18T09:15:24.098Z</time>
</trkpt>
<trkpt lat="31.3073700" lon="35.3058500">
<ele>314.260010</ele>
<time>2024-11-18T09:15:24.098Z</time>
</trkpt>
<trkpt lat="31.3071000" lon="35.3059700">
<ele>311.109985</ele>
<time>2024-11-18T09:15:24.098Z</time>
</trkpt>
<trkpt lat="31.3070200" lon="35.3060100">
<ele>309.889984</ele>
<time>2024-11-18T09:15:24.098Z</time>
</trkpt>
<trkpt lat="31.3069300" lon="35.3061400">
<ele>306.639984</ele>
<time>2024-11-18T09:15:24.098Z</time>
</trkpt>
<trkpt lat="31.3068800" lon="35.3062600">
<ele>305.279999</ele>
<time>2024-11-18T09:15:24.098Z</time>
</trkpt>
<trkpt lat="31.3068700" lon="35.3064600">
<ele>304.260010</ele>
<time>2024-11-18T09:15:24.098Z</time>
</trkpt>
<trkpt lat="31.3069100" lon="35.3066200">
<ele>304.830017</ele>
<time>2024-11-18T09:15:24.098Z</time>
</trkpt>
<trkpt lat="31.3070500" lon="35.3067700">
<ele>305.380005</ele>
<time>2024-11-18T09:15:24.098Z</time>
</trkpt>
<trkpt lat="31.3072800" lon="35.3069400">
<ele>305.380005</ele>
<time>2024-11-18T09:15:24.098Z</time>
</trkpt>
<trkpt lat="31.3075300" lon="35.3070700">
<ele>303.190002</ele>
<time>2024-11-18T09:15:24.098Z</time>
</trkpt>
<trkpt lat="31.3076100" lon="35.3071100">
<ele>302.570007</ele>
<time>2024-11-18T09:15:24.098Z</time>
</trkpt>
<trkpt lat="31.3077600" lon="35.3072700">
<ele>300.330017</ele>
<time>2024-11-18T09:15:24.098Z</time>
</trkpt>
<trkpt lat="31.3078900" lon="35.3073300">
<ele>299.529999</ele>
<time>2024-11-18T09:15:24.098Z</time>
</trkpt>
<trkpt lat="31.3080400" lon="35.3073800">
<ele>299.769989</ele>
<time>2024-11-18T09:15:24.098Z</time>
</trkpt>
<trkpt lat="31.3082100" lon="35.3074400">
<ele>301.779999</ele>
<time>2024-11-18T09:15:24.098Z</time>
</trkpt>
<trkpt lat="31.3083900" lon="35.3075600">
<ele>302.809998</ele>
<time>2024-11-18T09:15:24.098Z</time>
</trkpt>
<trkpt lat="31.3084600" lon="35.3076300">
<ele>302.130005</ele>
<time>2024-11-18T09:15:24.098Z</time>
</trkpt>
<trkpt lat="31.3084700" lon="35.3077000">
<ele>301.360016</ele>
<time>2024-11-18T09:15:24.098Z</time>
</trkpt>
<trkpt lat="31.3084700" lon="35.3077200">
<ele>301.140015</ele>
<time>2024-11-18T09:15:24.098Z</time>
</trkpt>
<trkpt lat="31.3084500" lon="35.3079800">
<ele>300.740021</ele>
<time>2024-11-18T09:15:24.098Z</time>
</trkpt>
<trkpt lat="31.3086800" lon="35.3084000">
<ele>296.089996</ele>
<time>2024-11-18T09:15:24.098Z</time>
</trkpt>
<trkpt lat="31.3086800" lon="35.3086800">
<ele>294.579987</ele>
<time>2024-11-18T09:15:24.098Z</time>
</trkpt>
<trkpt lat="31.3087600" lon="35.3088800">
<ele>291.730011</ele>
<time>2024-11-18T09:15:24.098Z</time>
</trkpt>
<trkpt lat="31.3089400" lon="35.3091800">
<ele>288.329987</ele>
<time>2024-11-18T09:15:24.098Z</time>
</trkpt>
<trkpt lat="31.3089700" lon="35.3093900">
<ele>289.109985</ele>
<time>2024-11-18T09:15:24.098Z</time>
</trkpt>
<trkpt lat="31.3088700" lon="35.3098600">
<ele>287.380005</ele>
<time>2024-11-18T09:15:24.098Z</time>
</trkpt>
<trkpt lat="31.3087200" lon="35.3099400">
<ele>285.089996</ele>
<time>2024-11-18T09:15:24.098Z</time>
</trkpt>
<trkpt lat="31.3086100" lon="35.3100900">
<ele>282.350006</ele>
<time>2024-11-18T09:15:24.098Z</time>
</trkpt>
<trkpt lat="31.3085600" lon="35.3101400">
<ele>282.179993</ele>
<time>2024-11-18T09:15:24.098Z</time>
</trkpt>
<trkpt lat="31.3084300" lon="35.3101400">
<ele>282.649994</ele>
<time>2024-11-18T09:15:24.098Z</time>
</trkpt>
<trkpt lat="31.3082800" lon="35.3100500">
<ele>284.079987</ele>
<time>2024-11-18T09:15:24.098Z</time>
</trkpt>
<trkpt lat="31.3081700" lon="35.3099800">
<ele>286.799988</ele>
<time>2024-11-18T09:15:24.098Z</time>
</trkpt>
<trkpt lat="31.3080200" lon="35.3099200">
<ele>290.269989</ele>
<time>2024-11-18T09:15:24.098Z</time>
</trkpt>
<trkpt lat="31.3079100" lon="35.3099400">
<ele>291.399994</ele>
<time>2024-11-18T09:15:24.098Z</time>
</trkpt>
<trkpt lat="31.3078400" lon="35.3099800">
<ele>292.149994</ele>
<time>2024-11-18T09:15:24.098Z</time>
</trkpt>
<trkpt lat="31.3077400" lon="35.3101300">
<ele>295.100006</ele>
<time>2024-11-18T09:15:24.098Z</time>
</trkpt>
<trkpt lat="31.3077100" lon="35.3103500">
<ele>295.570007</ele>
<time>2024-11-18T09:15:24.098Z</time>
</trkpt>
<trkpt lat="31.3077300" lon="35.3106900">
<ele>292.160004</ele>
<time>2024-11-18T09:15:24.098Z</time>
</trkpt>
<trkpt lat="31.3077800" lon="35.3109500">
<ele>291.250000</ele>
<time>2024-11-18T09:15:24.098Z</time>
</trkpt>
<trkpt lat="31.3078100" lon="35.3111300">
<ele>288.260010</ele>
<time>2024-11-18T09:15:24.098Z</time>
</trkpt>
<trkpt lat="31.3077900" lon="35.3112100">
<ele>286.760010</ele>
<time>2024-11-18T09:15:24.098Z</time>
</trkpt>
<trkpt lat="31.3077000" lon="35.3112900">
<ele>284.199982</ele>
<time>2024-11-18T09:15:24.098Z</time>
</trkpt>
<trkpt lat="31.3076900" lon="35.3114100">
<ele>281.440002</ele>
<time>2024-11-18T09:15:24.098Z</time>
</trkpt>
<trkpt lat="31.3077800" lon="35.3117000">
<ele>274.289978</ele>
<time>2024-11-18T09:15:24.098Z</time>
</trkpt>
<trkpt lat="31.3078700" lon="35.3118200">
<ele>271.800018</ele>
<time>2024-11-18T09:15:24.098Z</time>
</trkpt>
<trkpt lat="31.3079500" lon="35.3119600">
<ele>268.369995</ele>
<time>2024-11-18T09:15:24.098Z</time>
</trkpt>
<trkpt lat="31.3079400" lon="35.3121200">
<ele>268.260010</ele>
<time>2024-11-18T09:15:24.098Z</time>
</trkpt>
<trkpt lat="31.3079400" lon="35.3122300">
<ele>268.160004</ele>
<time>2024-11-18T09:15:24.098Z</time>
</trkpt>
<trkpt lat="31.3079800" lon="35.3123800">
<ele>268.299988</ele>
<time>2024-11-18T09:15:24.098Z</time>
</trkpt>
<trkpt lat="31.3080000" lon="35.3125000">
<ele>268.399994</ele>
<time>2024-11-18T09:15:24.098Z</time>
</trkpt>
<trkpt lat="31.3079800" lon="35.3125900">
<ele>268.330017</ele>
<time>2024-11-18T09:15:24.098Z</time>
</trkpt>
<trkpt lat="31.3079900" lon="35.3126200">
<ele>268.519989</ele>
<time>2024-11-18T09:15:24.098Z</time>
</trkpt>
<trkpt lat="31.3080500" lon="35.3127100">
<ele>269.669983</ele>
<time>2024-11-18T09:15:24.098Z</time>
</trkpt>
<trkpt lat="31.3080400" lon="35.3128100">
<ele>269.380005</ele>
<time>2024-11-18T09:15:24.098Z</time>
</trkpt>
<trkpt lat="31.3080000" lon="35.3128300">
<ele>268.470001</ele>
<time>2024-11-18T09:15:24.098Z</time>
</trkpt>
<trkpt lat="31.3079400" lon="35.3127800">
<ele>267.899994</ele>
<time>2024-11-18T09:15:24.098Z</time>
</trkpt>
<trkpt lat="31.3079000" lon="35.3126600">
<ele>267.250000</ele>
<time>2024-11-18T09:15:24.098Z</time>
</trkpt>
<trkpt lat="31.3078700" lon="35.3125800">
<ele>266.899994</ele>
<time>2024-11-18T09:15:24.098Z</time>
</trkpt>
<trkpt lat="31.3078000" lon="35.3125300">
<ele>266.149994</ele>
<time>2024-11-18T09:15:24.098Z</time>
</trkpt>
<trkpt lat="31.3077300" lon="35.3124800">
<ele>265.220001</ele>
<time>2024-11-18T09:15:24.098Z</time>
</trkpt>
<trkpt lat="31.3076900" lon="35.3123600">
<ele>265.080017</ele>
<time>2024-11-18T09:15:24.098Z</time>
</trkpt>
<trkpt lat="31.3076400" lon="35.3123100">
<ele>264.540009</ele>
<time>2024-11-18T09:15:24.098Z</time>
</trkpt>
<trkpt lat="31.3075400" lon="35.3123300">
<ele>262.859985</ele>
<time>2024-11-18T09:15:24.098Z</time>
</trkpt>
<trkpt lat="31.3075100" lon="35.3123800">
<ele>262.029999</ele>
<time>2024-11-18T09:15:24.098Z</time>
</trkpt>
<trkpt lat="31.3075100" lon="35.3125100">
<ele>261.109985</ele>
<time>2024-11-18T09:15:24.098Z</time>
</trkpt>
<trkpt lat="31.3075700" lon="35.3125400">
<ele>262.010010</ele>
<time>2024-11-18T09:15:24.098Z</time>
</trkpt>
<trkpt lat="31.3076100" lon="35.3126200">
<ele>262.290009</ele>
<time>2024-11-18T09:15:24.098Z</time>
</trkpt>
<trkpt lat="31.3076000" lon="35.3127400">
<ele>261.380005</ele>
<time>2024-11-18T09:15:24.098Z</time>
</trkpt>
<trkpt lat="31.3075900" lon="35.3128500">
<ele>260.070007</ele>
<time>2024-11-18T09:15:24.098Z</time>
</trkpt>
<trkpt lat="31.3076200" lon="35.3129300">
<ele>259.869995</ele>
<time>2024-11-18T09:15:24.098Z</time>
</trkpt>
<trkpt lat="31.3076800" lon="35.3130700">
<ele>259.889984</ele>
<time>2024-11-18T09:15:24.098Z</time>
</trkpt>
<trkpt lat="31.3077700" lon="35.3131900">
<ele>259.889984</ele>
<time>2024-11-18T09:15:24.098Z</time>
</trkpt>
<trkpt lat="31.3077900" lon="35.3133400">
<ele>257.260010</ele>
<time>2024-11-18T09:15:24.098Z</time>
</trkpt>
<trkpt lat="31.3078500" lon="35.3134800">
<ele>257.760010</ele>
<time>2024-11-18T09:15:24.098Z</time>
</trkpt>
<trkpt lat="31.3078500" lon="35.3136100">
<ele>256.829987</ele>
<time>2024-11-18T09:15:24.098Z</time>
</trkpt>
<trkpt lat="31.3078100" lon="35.3137400">
<ele>255.239990</ele>
<time>2024-11-18T09:15:24.098Z</time>
</trkpt>
<trkpt lat="31.3077600" lon="35.3138900">
<ele>253.669998</ele>
<time>2024-11-18T09:15:24.098Z</time>
</trkpt>
<trkpt lat="31.3077300" lon="35.3139800">
<ele>252.380005</ele>
<time>2024-11-18T09:15:24.098Z</time>
</trkpt>
<trkpt lat="31.3076600" lon="35.3140200">
<ele>251.259995</ele>
<time>2024-11-18T09:15:24.098Z</time>
</trkpt>
<trkpt lat="31.3076300" lon="35.3140700">
<ele>250.769989</ele>
<time>2024-11-18T09:15:24.098Z</time>
</trkpt>
<trkpt lat="31.3076200" lon="35.3142300">
<ele>249.650009</ele>
<time>2024-11-18T09:15:24.098Z</time>
</trkpt>
<trkpt lat="31.3076300" lon="35.3143000">
<ele>248.799988</ele>
<time>2024-11-18T09:15:24.098Z</time>
</trkpt>
<trkpt lat="31.3076100" lon="35.3143700">
<ele>247.910004</ele>
<time>2024-11-18T09:15:24.098Z</time>
</trkpt>
<trkpt lat="31.3076100" lon="35.3144900">
<ele>245.889999</ele>
<time>2024-11-18T09:15:24.098Z</time>
</trkpt>
<trkpt lat="31.3076400" lon="35.3145600">
<ele>244.080002</ele>
<time>2024-11-18T09:15:24.098Z</time>
</trkpt>
<trkpt lat="31.3077600" lon="35.3145900">
<ele>242.880005</ele>
<time>2024-11-18T09:15:24.098Z</time>
</trkpt>
<trkpt lat="31.3077900" lon="35.3146800">
<ele>240.190002</ele>
<time>2024-11-18T09:15:24.098Z</time>
</trkpt>
<trkpt lat="31.3077600" lon="35.3147600">
<ele>239.209991</ele>
<time>2024-11-18T09:15:24.098Z</time>
</trkpt>
<trkpt lat="31.3076600" lon="35.3149600">
<ele>238.529999</ele>
<time>2024-11-18T09:15:24.098Z</time>
</trkpt>
<trkpt lat="31.3076300" lon="35.3150200">
<ele>237.630005</ele>
<time>2024-11-18T09:15:24.098Z</time>
</trkpt>
<trkpt lat="31.3075700" lon="35.3150700">
<ele>236.309998</ele>
<time>2024-11-18T09:15:24.098Z</time>
</trkpt>
<trkpt lat="31.3075400" lon="35.3151400">
<ele>235.350006</ele>
<time>2024-11-18T09:15:24.098Z</time>
</trkpt>
<trkpt lat="31.3075900" lon="35.3151400">
<ele>235.800003</ele>
<time>2024-11-18T09:15:24.098Z</time>
</trkpt>
<trkpt lat="31.3076500" lon="35.3151200">
<ele>236.599991</ele>
<time>2024-11-18T09:15:24.098Z</time>
</trkpt>
<trkpt lat="31.3076800" lon="35.3150900">
<ele>237.309998</ele>
<time>2024-11-18T09:15:24.098Z</time>
</trkpt>
<trkpt lat="31.3077100" lon="35.3150900">
<ele>237.639999</ele>
<time>2024-11-18T09:15:24.098Z</time>
</trkpt>
<trkpt lat="31.3077600" lon="35.3151400">
<ele>237.320007</ele>
<time>2024-11-18T09:15:24.098Z</time>
</trkpt>
<trkpt lat="31.3077200" lon="35.3152700">
<ele>234.910004</ele>
<time>2024-11-18T09:15:24.098Z</time>
</trkpt>
<trkpt lat="31.3076700" lon="35.3154400">
<ele>232.729996</ele>
<time>2024-11-18T09:15:24.098Z</time>
</trkpt>
<trkpt lat="31.3076400" lon="35.3155600">
<ele>231.459991</ele>
<time>2024-11-18T09:15:24.098Z</time>
</trkpt>
<trkpt lat="31.3076600" lon="35.3157600">
<ele>229.949997</ele>
<time>2024-11-18T09:15:24.098Z</time>
</trkpt>
<trkpt lat="31.3076200" lon="35.3159200">
<ele>229.299988</ele>
<time>2024-11-18T09:15:24.098Z</time>
</trkpt>
<trkpt lat="31.3075400" lon="35.3159400">
<ele>229.750000</ele>
<time>2024-11-18T09:15:24.098Z</time>
</trkpt>
<trkpt lat="31.3074800" lon="35.3160100">
<ele>229.590012</ele>
<time>2024-11-18T09:15:24.098Z</time>
</trkpt>
<trkpt lat="31.3074000" lon="35.3160600">
<ele>228.070007</ele>
<time>2024-11-18T09:15:24.098Z</time>
</trkpt>
<trkpt lat="31.3073100" lon="35.3159500">
<ele>225.789993</ele>
<time>2024-11-18T09:15:24.098Z</time>
</trkpt>
<trkpt lat="31.3072600" lon="35.3159200">
<ele>224.490005</ele>
<time>2024-11-18T09:15:24.098Z</time>
</trkpt>
<trkpt lat="31.3072200" lon="35.3159500">
<ele>223.859985</ele>
<time>2024-11-18T09:15:24.098Z</time>
</trkpt>
<trkpt lat="31.3071700" lon="35.3159900">
<ele>224.589996</ele>
<time>2024-11-18T09:15:24.098Z</time>
</trkpt>
<trkpt lat="31.3071700" lon="35.3161400">
<ele>225.330002</ele>
<time>2024-11-18T09:15:24.098Z</time>
</trkpt>
<trkpt lat="31.3071300" lon="35.3162800">
<ele>225.659988</ele>
<time>2024-11-18T09:15:24.098Z</time>
</trkpt>
<trkpt lat="31.3071500" lon="35.3165700">
<ele>224.650009</ele>
<time>2024-11-18T09:15:24.098Z</time>
</trkpt>
<trkpt lat="31.3071700" lon="35.3167500">
<ele>223.470001</ele>
<time>2024-11-18T09:15:24.098Z</time>
</trkpt>
<trkpt lat="31.3071900" lon="35.3168300">
<ele>222.789993</ele>
<time>2024-11-18T09:15:24.098Z</time>
</trkpt>
<trkpt lat="31.3071400" lon="35.3170100">
<ele>222.479996</ele>
<time>2024-11-18T09:15:24.098Z</time>
</trkpt>
<trkpt lat="31.3070700" lon="35.3171100">
<ele>222.060013</ele>
<time>2024-11-18T09:15:24.098Z</time>
</trkpt>
<trkpt lat="31.3070100" lon="35.3173100">
<ele>220.540009</ele>
<time>2024-11-18T09:15:24.098Z</time>
</trkpt>
<trkpt lat="31.3069400" lon="35.3173800">
<ele>219.419998</ele>
<time>2024-11-18T09:15:24.098Z</time>
</trkpt>
<trkpt lat="31.3068800" lon="35.3175100">
<ele>218.750000</ele>
<time>2024-11-18T09:15:24.098Z</time>
</trkpt>
<trkpt lat="31.3068100" lon="35.3176600">
<ele>217.959991</ele>
<time>2024-11-18T09:15:24.098Z</time>
</trkpt>
<trkpt lat="31.3066800" lon="35.3177600">
<ele>216.270004</ele>
<time>2024-11-18T09:15:24.098Z</time>
</trkpt>
<trkpt lat="31.3065000" lon="35.3178300">
<ele>215.440002</ele>
<time>2024-11-18T09:15:24.098Z</time>
</trkpt>
<trkpt lat="31.3063500" lon="35.3179400">
<ele>214.940002</ele>
<time>2024-11-18T09:15:24.098Z</time>
</trkpt>
<trkpt lat="31.3062400" lon="35.3179300">
<ele>213.110001</ele>
<time>2024-11-18T09:15:24.098Z</time>
</trkpt>
<trkpt lat="31.3061200" lon="35.3178900">
<ele>211.139999</ele>
<time>2024-11-18T09:15:24.098Z</time>
</trkpt>
<trkpt lat="31.3060700" lon="35.3178500">
<ele>210.919998</ele>
<time>2024-11-18T09:15:24.098Z</time>
</trkpt>
<trkpt lat="31.3060000" lon="35.3177700">
<ele>211.039993</ele>
<time>2024-11-18T09:15:24.098Z</time>
</trkpt>
<trkpt lat="31.3059600" lon="35.3177400">
<ele>211.110001</ele>
<time>2024-11-18T09:15:24.098Z</time>
</trkpt>
<trkpt lat="31.3058800" lon="35.3177700">
<ele>210.990005</ele>
<time>2024-11-18T09:15:24.098Z</time>
</trkpt>
<trkpt lat="31.3058300" lon="35.3178500">
<ele>210.439987</ele>
<time>2024-11-18T09:15:24.098Z</time>
</trkpt>
<trkpt lat="31.3058400" lon="35.3179400">
<ele>209.860016</ele>
<time>2024-11-18T09:15:24.098Z</time>
</trkpt>
<trkpt lat="31.3058400" lon="35.3179400">
<ele>209.860016</ele>
<time>2024-11-18T09:15:24.098Z</time>
</trkpt>
<trkpt lat="31.3058400" lon="35.3179400">
<ele>209.860016</ele>
<time>2024-11-18T09:15:24.098Z</time>
</trkpt>
<trkpt lat="31.3059400" lon="35.3181000">
<ele>209.830002</ele>
<time>2024-11-18T09:15:24.098Z</time>
</trkpt>
<trkpt lat="31.3059200" lon="35.3181900">
<ele>209.779999</ele>
<time>2024-11-18T09:15:24.098Z</time>
</trkpt>
<trkpt lat="31.3058600" lon="35.3182400">
<ele>209.260010</ele>
<time>2024-11-18T09:15:24.098Z</time>
</trkpt>
<trkpt lat="31.3058300" lon="35.3183000">
<ele>208.939987</ele>
<time>2024-11-18T09:15:24.098Z</time>
</trkpt>
<trkpt lat="31.3058500" lon="35.3183800">
<ele>209.169998</ele>
<time>2024-11-18T09:15:24.098Z</time>
</trkpt>
<trkpt lat="31.3059200" lon="35.3185800">
<ele>209.660004</ele>
<time>2024-11-18T09:15:24.098Z</time>
</trkpt>
<trkpt lat="31.3059500" lon="35.3188900">
<ele>206.560013</ele>
<time>2024-11-18T09:15:24.098Z</time>
</trkpt>
<trkpt lat="31.3059200" lon="35.3189900">
<ele>204.980011</ele>
<time>2024-11-18T09:15:24.098Z</time>
</trkpt>
<trkpt lat="31.3058800" lon="35.3191000">
<ele>203.160004</ele>
<time>2024-11-18T09:15:24.098Z</time>
</trkpt>
<trkpt lat="31.3059000" lon="35.3192500">
<ele>200.940002</ele>
<time>2024-11-18T09:15:24.098Z</time>
</trkpt>
<trkpt lat="31.3059700" lon="35.3194100">
<ele>199.360001</ele>
<time>2024-11-18T09:15:24.098Z</time>
</trkpt>
<trkpt lat="31.3060300" lon="35.3194900">
<ele>199.200012</ele>
<time>2024-11-18T09:15:24.098Z</time>
</trkpt>
<trkpt lat="31.3060900" lon="35.3195300">
<ele>199.520004</ele>
<time>2024-11-18T09:15:24.098Z</time>
</trkpt>
<trkpt lat="31.3061200" lon="35.3195900">
<ele>199.509995</ele>
<time>2024-11-18T09:15:24.098Z</time>
</trkpt>
<trkpt lat="31.3060700" lon="35.3196900">
<ele>198.689987</ele>
<time>2024-11-18T09:15:24.098Z</time>
</trkpt>
<trkpt lat="31.3060600" lon="35.3197500">
<ele>198.250000</ele>
<time>2024-11-18T09:15:24.098Z</time>
</trkpt>
<trkpt lat="31.3060200" lon="35.3198400">
<ele>197.169998</ele>
<time>2024-11-18T09:15:24.098Z</time>
</trkpt>
<trkpt lat="31.3060200" lon="35.3199600">
<ele>196.300003</ele>
<time>2024-11-18T09:15:24.098Z</time>
</trkpt>
<trkpt lat="31.3060600" lon="35.3200500">
<ele>195.690002</ele>
<time>2024-11-18T09:15:24.098Z</time>
</trkpt>
<trkpt lat="31.3061900" lon="35.3201800">
<ele>194.510010</ele>
<time>2024-11-18T09:15:24.098Z</time>
</trkpt>
<trkpt lat="31.3063000" lon="35.3202800">
<ele>192.979996</ele>
<time>2024-11-18T09:15:24.098Z</time>
</trkpt>
<trkpt lat="31.3063800" lon="35.3203300">
<ele>192.609985</ele>
<time>2024-11-18T09:15:24.098Z</time>
</trkpt>
<trkpt lat="31.3064900" lon="35.3203500">
<ele>191.929993</ele>
<time>2024-11-18T09:15:24.098Z</time>
</trkpt>
<trkpt lat="31.3066000" lon="35.3203800">
<ele>190.939987</ele>
<time>2024-11-18T09:15:24.098Z</time>
</trkpt>
<trkpt lat="31.3068000" lon="35.3203800">
<ele>191.970001</ele>
<time>2024-11-18T09:15:24.098Z</time>
</trkpt>
<trkpt lat="31.3071000" lon="35.3206000">
<ele>193.789993</ele>
<time>2024-11-18T09:15:24.098Z</time>
</trkpt>
<trkpt lat="31.3073500" lon="35.3207600">
<ele>195.309998</ele>
<time>2024-11-18T09:15:24.098Z</time>
</trkpt>
<trkpt lat="31.3075200" lon="35.3208300">
<ele>196.110001</ele>
<time>2024-11-18T09:15:24.098Z</time>
</trkpt>
<trkpt lat="31.3076900" lon="35.3208200">
<ele>196.959991</ele>
<time>2024-11-18T09:15:24.098Z</time>
</trkpt>
<trkpt lat="31.3078600" lon="35.3208900">
<ele>197.479996</ele>
<time>2024-11-18T09:15:24.098Z</time>
</trkpt>
<trkpt lat="31.3080300" lon="35.3209900">
<ele>198.600006</ele>
<time>2024-11-18T09:15:24.098Z</time>
</trkpt>
<trkpt lat="31.3081800" lon="35.3210600">
<ele>200.240005</ele>
<time>2024-11-18T09:15:24.098Z</time>
</trkpt>
<trkpt lat="31.3082200" lon="35.3212500">
<ele>199.159988</ele>
<time>2024-11-18T09:15:24.098Z</time>
</trkpt>
<trkpt lat="31.3082200" lon="35.3213500">
<ele>198.300003</ele>
<time>2024-11-18T09:15:24.098Z</time>
</trkpt>
<trkpt lat="31.3080800" lon="35.3215700">
<ele>194.850006</ele>
<time>2024-11-18T09:15:24.098Z</time>
</trkpt>
<trkpt lat="31.3080600" lon="35.3217500">
<ele>194.389999</ele>
<time>2024-11-18T09:15:24.098Z</time>
</trkpt>
<trkpt lat="31.3080200" lon="35.3219300">
<ele>194.690002</ele>
<time>2024-11-18T09:15:24.098Z</time>
</trkpt>
<trkpt lat="31.3079900" lon="35.3220000">
<ele>194.830002</ele>
<time>2024-11-18T09:15:24.098Z</time>
</trkpt>
<trkpt lat="31.3079300" lon="35.3220400">
<ele>194.470001</ele>
<time>2024-11-18T09:15:24.098Z</time>
</trkpt>
<trkpt lat="31.3078300" lon="35.3220700">
<ele>193.550003</ele>
<time>2024-11-18T09:15:24.098Z</time>
</trkpt>
<trkpt lat="31.3077900" lon="35.3221200">
<ele>193.139999</ele>
<time>2024-11-18T09:15:24.098Z</time>
</trkpt>
<trkpt lat="31.3077700" lon="35.3222000">
<ele>192.779984</ele>
<time>2024-11-18T09:15:24.098Z</time>
</trkpt>
<trkpt lat="31.3077700" lon="35.3223000">
<ele>192.220001</ele>
<time>2024-11-18T09:15:24.098Z</time>
</trkpt>
<trkpt lat="31.3077500" lon="35.3224200">
<ele>190.850006</ele>
<time>2024-11-18T09:15:24.098Z</time>
</trkpt>
<trkpt lat="31.3077700" lon="35.3225600">
<ele>190.589996</ele>
<time>2024-11-18T09:15:24.098Z</time>
</trkpt>
<trkpt lat="31.3078400" lon="35.3226400">
<ele>190.830002</ele>
<time>2024-11-18T09:15:24.098Z</time>
</trkpt>
<trkpt lat="31.3079200" lon="35.3227100">
<ele>190.619995</ele>
<time>2024-11-18T09:15:24.098Z</time>
</trkpt>
<trkpt lat="31.3079600" lon="35.3228900">
<ele>187.980011</ele>
<time>2024-11-18T09:15:24.098Z</time>
</trkpt>
<trkpt lat="31.3079900" lon="35.3229900">
<ele>186.180008</ele>
<time>2024-11-18T09:15:24.098Z</time>
</trkpt>
<trkpt lat="31.3080500" lon="35.3231000">
<ele>183.889999</ele>
<time>2024-11-18T09:15:24.098Z</time>
</trkpt>
<trkpt lat="31.3081500" lon="35.3231400">
<ele>182.639999</ele>
<time>2024-11-18T09:15:24.098Z</time>
</trkpt>
<trkpt lat="31.3081900" lon="35.3231800">
<ele>181.600006</ele>
<time>2024-11-18T09:15:24.098Z</time>
</trkpt>
<trkpt lat="31.3082000" lon="35.3232500">
<ele>179.939987</ele>
<time>2024-11-18T09:15:24.098Z</time>
</trkpt>
<trkpt lat="31.3081600" lon="35.3233200">
<ele>178.319992</ele>
<time>2024-11-18T09:15:24.098Z</time>
</trkpt>
<trkpt lat="31.3081100" lon="35.3233100">
<ele>178.569992</ele>
<time>2024-11-18T09:15:24.098Z</time>
</trkpt>
<trkpt lat="31.3080600" lon="35.3232500">
<ele>180.100006</ele>
<time>2024-11-18T09:15:24.098Z</time>
</trkpt>
<trkpt lat="31.3080600" lon="35.3232500">
<ele>180.100006</ele>
<time>2024-11-18T09:15:24.098Z</time>
</trkpt>
<trkpt lat="31.3080600" lon="35.3232500">
<ele>180.100006</ele>
<time>2024-11-18T09:15:24.098Z</time>
</trkpt>
<trkpt lat="31.3080400" lon="35.3232200">
<ele>180.920013</ele>
<time>2024-11-18T09:15:24.098Z</time>
</trkpt>
<trkpt lat="31.3080100" lon="35.3231900">
<ele>181.770004</ele>
<time>2024-11-18T09:15:24.098Z</time>
</trkpt>
<trkpt lat="31.3078800" lon="35.3231500">
<ele>183.050003</ele>
<time>2024-11-18T09:15:24.098Z</time>
</trkpt>
<trkpt lat="31.3077500" lon="35.3230500">
<ele>184.889999</ele>
<time>2024-11-18T09:15:24.098Z</time>
</trkpt>
<trkpt lat="31.3076500" lon="35.3229600">
<ele>185.169998</ele>
<time>2024-11-18T09:15:24.098Z</time>
</trkpt>
<trkpt lat="31.3075400" lon="35.3229100">
<ele>184.110016</ele>
<time>2024-11-18T09:15:24.098Z</time>
</trkpt>
<trkpt lat="31.3073800" lon="35.3228500">
<ele>182.010010</ele>
<time>2024-11-18T09:15:24.098Z</time>
</trkpt>
<trkpt lat="31.3071800" lon="35.3227100">
<ele>180.000015</ele>
<time>2024-11-18T09:15:24.098Z</time>
</trkpt>
<trkpt lat="31.3070700" lon="35.3227100">
<ele>180.009995</ele>
<time>2024-11-18T09:15:24.098Z</time>
</trkpt>
<trkpt lat="31.3070100" lon="35.3227400">
<ele>180.349991</ele>
<time>2024-11-18T09:15:24.098Z</time>
</trkpt>
<trkpt lat="31.3068900" lon="35.3227300">
<ele>180.089996</ele>
<time>2024-11-18T09:15:24.098Z</time>
</trkpt>
<trkpt lat="31.3067400" lon="35.3227300">
<ele>179.470001</ele>
<time>2024-11-18T09:15:24.098Z</time>
</trkpt>
<trkpt lat="31.3066700" lon="35.3227500">
<ele>179.120010</ele>
<time>2024-11-18T09:15:24.098Z</time>
</trkpt>
<trkpt lat="31.3066100" lon="35.3228300">
<ele>179.000000</ele>
<time>2024-11-18T09:15:24.098Z</time>
</trkpt>
<trkpt lat="31.3066200" lon="35.3229300">
<ele>179.939987</ele>
<time>2024-11-18T09:15:24.098Z</time>
</trkpt>
<trkpt lat="31.3066400" lon="35.3230200">
<ele>181.090012</ele>
<time>2024-11-18T09:15:24.098Z</time>
</trkpt>
<trkpt lat="31.3066100" lon="35.3231100">
<ele>180.380005</ele>
<time>2024-11-18T09:15:24.098Z</time>
</trkpt>
<trkpt lat="31.3065500" lon="35.3232000">
<ele>178.439987</ele>
<time>2024-11-18T09:15:24.098Z</time>
</trkpt>
<trkpt lat="31.3064300" lon="35.3232300">
<ele>175.630005</ele>
<time>2024-11-18T09:15:24.098Z</time>
</trkpt>
<trkpt lat="31.3062900" lon="35.3232300">
<ele>174.739990</ele>
<time>2024-11-18T09:15:24.098Z</time>
</trkpt>
<trkpt lat="31.3061700" lon="35.3231900">
<ele>175.029999</ele>
<time>2024-11-18T09:15:24.098Z</time>
</trkpt>
<trkpt lat="31.3061000" lon="35.3231400">
<ele>175.270004</ele>
<time>2024-11-18T09:15:24.098Z</time>
</trkpt>
<trkpt lat="31.3060300" lon="35.3231100">
<ele>174.610001</ele>
<time>2024-11-18T09:15:24.098Z</time>
</trkpt>
<trkpt lat="31.3059500" lon="35.3230800">
<ele>173.660004</ele>
<time>2024-11-18T09:15:24.098Z</time>
</trkpt>
<trkpt lat="31.3058500" lon="35.3231300">
<ele>172.460007</ele>
<time>2024-11-18T09:15:24.098Z</time>
</trkpt>
<trkpt lat="31.3058100" lon="35.3231800">
<ele>172.330002</ele>
<time>2024-11-18T09:15:24.098Z</time>
</trkpt>
<trkpt lat="31.3057000" lon="35.3232800">
<ele>171.940002</ele>
<time>2024-11-18T09:15:24.098Z</time>
</trkpt>
<trkpt lat="31.3056100" lon="35.3233600">
<ele>171.449997</ele>
<time>2024-11-18T09:15:24.098Z</time>
</trkpt>
<trkpt lat="31.3055500" lon="35.3235000">
<ele>170.819992</ele>
<time>2024-11-18T09:15:24.098Z</time>
</trkpt>
<trkpt lat="31.3054700" lon="35.3236100">
<ele>168.529999</ele>
<time>2024-11-18T09:15:24.098Z</time>
</trkpt>
<trkpt lat="31.3054100" lon="35.3237500">
<ele>166.570007</ele>
<time>2024-11-18T09:15:24.098Z</time>
</trkpt>
<trkpt lat="31.3054100" lon="35.3237500">
<ele>166.570007</ele>
<time>2024-11-18T09:15:24.098Z</time>
</trkpt>
<trkpt lat="31.3054100" lon="35.3237500">
<ele>166.570007</ele>
<time>2024-11-18T09:15:24.098Z</time>
</trkpt>
<trkpt lat="31.3054300" lon="35.3238300">
<ele>166.949997</ele>
<time>2024-11-18T09:15:24.098Z</time>
</trkpt>
<trkpt lat="31.3054900" lon="35.3239000">
<ele>168.130005</ele>
<time>2024-11-18T09:15:24.098Z</time>
</trkpt>
<trkpt lat="31.3055700" lon="35.3239600">
<ele>168.669998</ele>
<time>2024-11-18T09:15:24.098Z</time>
</trkpt>
<trkpt lat="31.3056700" lon="35.3240200">
<ele>169.179993</ele>
<time>2024-11-18T09:15:24.098Z</time>
</trkpt>
<trkpt lat="31.3058000" lon="35.3241300">
<ele>170.490005</ele>
<time>2024-11-18T09:15:24.098Z</time>
</trkpt>
<trkpt lat="31.3059200" lon="35.3241700">
<ele>169.989990</ele>
<time>2024-11-18T09:15:24.098Z</time>
</trkpt>
<trkpt lat="31.3060100" lon="35.3242200">
<ele>167.990005</ele>
<time>2024-11-18T09:15:24.098Z</time>
</trkpt>
<trkpt lat="31.3060800" lon="35.3242900">
<ele>166.020004</ele>
<time>2024-11-18T09:15:24.098Z</time>
</trkpt>
<trkpt lat="31.3061900" lon="35.3243800">
<ele>164.809998</ele>
<time>2024-11-18T09:15:24.098Z</time>
</trkpt>
<trkpt lat="31.3062700" lon="35.3243900">
<ele>165.360016</ele>
<time>2024-11-18T09:15:24.098Z</time>
</trkpt>
<trkpt lat="31.3063700" lon="35.3243800">
<ele>166.309998</ele>
<time>2024-11-18T09:15:24.098Z</time>
</trkpt>
<trkpt lat="31.3065400" lon="35.3244400">
<ele>167.080002</ele>
<time>2024-11-18T09:15:24.098Z</time>
</trkpt>
<trkpt lat="31.3066800" lon="35.3244700">
<ele>167.739990</ele>
<time>2024-11-18T09:15:24.098Z</time>
</trkpt>
<trkpt lat="31.3067900" lon="35.3245000">
<ele>166.470001</ele>
<time>2024-11-18T09:15:24.098Z</time>
</trkpt>
<trkpt lat="31.3069300" lon="35.3245200">
<ele>165.230011</ele>
<time>2024-11-18T09:15:24.098Z</time>
</trkpt>
<trkpt lat="31.3070600" lon="35.3245000">
<ele>165.380005</ele>
<time>2024-11-18T09:15:24.098Z</time>
</trkpt>
<trkpt lat="31.3071300" lon="35.3244600">
<ele>164.970001</ele>
<time>2024-11-18T09:15:24.098Z</time>
</trkpt>
<trkpt lat="31.3071700" lon="35.3244900">
<ele>165.729996</ele>
<time>2024-11-18T09:15:24.098Z</time>
</trkpt>
<trkpt lat="31.3071600" lon="35.3245300">
<ele>166.490005</ele>
<time>2024-11-18T09:15:24.098Z</time>
</trkpt>
<trkpt lat="31.3071600" lon="35.3245300">
<ele>166.490005</ele>
<time>2024-11-18T09:15:24.098Z</time>
</trkpt>
<trkpt lat="31.3071600" lon="35.3245300">
<ele>166.490005</ele>
<time>2024-11-18T09:15:24.098Z</time>
</trkpt>
<trkpt lat="31.3071600" lon="35.3245600">
<ele>167.090012</ele>
<time>2024-11-18T09:15:24.098Z</time>
</trkpt>
<trkpt lat="31.3070300" lon="35.3245800">
<ele>166.559998</ele>
<time>2024-11-18T09:15:24.098Z</time>
</trkpt>
<trkpt lat="31.3069600" lon="35.3246200">
<ele>166.649994</ele>
<time>2024-11-18T09:15:24.098Z</time>
</trkpt>
<trkpt lat="31.3068500" lon="35.3247100">
<ele>167.559998</ele>
<time>2024-11-18T09:15:24.098Z</time>
</trkpt>
<trkpt lat="31.3067400" lon="35.3247300">
<ele>167.220001</ele>
<time>2024-11-18T09:15:24.098Z</time>
</trkpt>
<trkpt lat="31.3066400" lon="35.3247200">
<ele>166.629990</ele>
<time>2024-11-18T09:15:24.098Z</time>
</trkpt>
<trkpt lat="31.3065600" lon="35.3246900">
<ele>165.669998</ele>
<time>2024-11-18T09:15:24.098Z</time>
</trkpt>
<trkpt lat="31.3065300" lon="35.3247300">
<ele>165.029999</ele>
<time>2024-11-18T09:15:24.098Z</time>
</trkpt>
<trkpt lat="31.3064400" lon="35.3248800">
<ele>164.449997</ele>
<time>2024-11-18T09:15:24.098Z</time>
</trkpt>
<trkpt lat="31.3063200" lon="35.3249200">
<ele>163.219986</ele>
<time>2024-11-18T09:15:24.098Z</time>
</trkpt>
<trkpt lat="31.3061300" lon="35.3249100">
<ele>159.970001</ele>
<time>2024-11-18T09:15:24.098Z</time>
</trkpt>
<trkpt lat="31.3059600" lon="35.3248800">
<ele>157.140015</ele>
<time>2024-11-18T09:15:24.098Z</time>
</trkpt>
<trkpt lat="31.3058900" lon="35.3248000">
<ele>156.459991</ele>
<time>2024-11-18T09:15:24.098Z</time>
</trkpt>
<trkpt lat="31.3058100" lon="35.3247600">
<ele>155.559998</ele>
<time>2024-11-18T09:15:24.098Z</time>
</trkpt>
<trkpt lat="31.3056900" lon="35.3248100">
<ele>154.339996</ele>
<time>2024-11-18T09:15:24.098Z</time>
</trkpt>
<trkpt lat="31.3055600" lon="35.3248300">
<ele>153.260010</ele>
<time>2024-11-18T09:15:24.098Z</time>
</trkpt>
<trkpt lat="31.3054200" lon="35.3248200">
<ele>152.319992</ele>
<time>2024-11-18T09:15:24.098Z</time>
</trkpt>
<trkpt lat="31.3052900" lon="35.3248300">
<ele>151.309998</ele>
<time>2024-11-18T09:15:24.098Z</time>
</trkpt>
<trkpt lat="31.3052000" lon="35.3248200">
<ele>150.459991</ele>
<time>2024-11-18T09:15:24.098Z</time>
</trkpt>
<trkpt lat="31.3050500" lon="35.3247400">
<ele>149.410004</ele>
<time>2024-11-18T09:15:24.098Z</time>
</trkpt>
<trkpt lat="31.3048900" lon="35.3247000">
<ele>147.539993</ele>
<time>2024-11-18T09:15:24.098Z</time>
</trkpt>
<trkpt lat="31.3047300" lon="35.3246600">
<ele>145.339996</ele>
<time>2024-11-18T09:15:24.098Z</time>
</trkpt>
<trkpt lat="31.3046400" lon="35.3246100">
<ele>144.039993</ele>
<time>2024-11-18T09:15:24.098Z</time>
</trkpt>
<trkpt lat="31.3045600" lon="35.3246100">
<ele>142.720001</ele>
<time>2024-11-18T09:15:24.098Z</time>
</trkpt>
<trkpt lat="31.3044900" lon="35.3246900">
<ele>141.029999</ele>
<time>2024-11-18T09:15:24.098Z</time>
</trkpt>
<trkpt lat="31.3044100" lon="35.3247900">
<ele>140.739990</ele>
<time>2024-11-18T09:15:24.098Z</time>
</trkpt>
<trkpt lat="31.3043500" lon="35.3248600">
<ele>141.669998</ele>
<time>2024-11-18T09:15:24.098Z</time>
</trkpt>
<trkpt lat="31.3043500" lon="35.3250000">
<ele>142.679993</ele>
<time>2024-11-18T09:15:24.098Z</time>
</trkpt>
<trkpt lat="31.3043500" lon="35.3251600">
<ele>142.300003</ele>
<time>2024-11-18T09:15:24.098Z</time>
</trkpt>
<trkpt lat="31.3043600" lon="35.3253300">
<ele>141.929993</ele>
<time>2024-11-18T09:15:24.098Z</time>
</trkpt>
<trkpt lat="31.3043800" lon="35.3254200">
<ele>141.850006</ele>
<time>2024-11-18T09:15:24.098Z</time>
</trkpt>
<trkpt lat="31.3043900" lon="35.3255100">
<ele>141.929993</ele>
<time>2024-11-18T09:15:24.098Z</time>
</trkpt>
<trkpt lat="31.3043800" lon="35.3257100">
<ele>142.039993</ele>
<time>2024-11-18T09:15:24.098Z</time>
</trkpt>
<trkpt lat="31.3043500" lon="35.3258000">
<ele>141.680008</ele>
<time>2024-11-18T09:15:24.098Z</time>
</trkpt>
<trkpt lat="31.3043000" lon="35.3259800">
<ele>141.190002</ele>
<time>2024-11-18T09:15:24.098Z</time>
</trkpt>
<trkpt lat="31.3043000" lon="35.3262300">
<ele>140.580002</ele>
<time>2024-11-18T09:15:24.098Z</time>
</trkpt>
<trkpt lat="31.3042900" lon="35.3262800">
<ele>140.119995</ele>
<time>2024-11-18T09:15:24.098Z</time>
</trkpt>
<trkpt lat="31.3042600" lon="35.3263000">
<ele>139.649994</ele>
<time>2024-11-18T09:15:24.098Z</time>
</trkpt>
<trkpt lat="31.3042600" lon="35.3263000">
<ele>139.649994</ele>
<time>2024-11-18T09:15:24.098Z</time>
</trkpt>
<trkpt lat="31.3041900" lon="35.3263100">
<ele>138.820007</ele>
<time>2024-11-18T09:15:24.098Z</time>
</trkpt>
<trkpt lat="31.3041400" lon="35.3262500">
<ele>138.089996</ele>
<time>2024-11-18T09:15:24.098Z</time>
</trkpt>
<trkpt lat="31.3040900" lon="35.3261000">
<ele>137.539993</ele>
<time>2024-11-18T09:15:24.098Z</time>
</trkpt>
<trkpt lat="31.3040400" lon="35.3260200">
<ele>136.470001</ele>
<time>2024-11-18T09:15:24.098Z</time>
</trkpt>
<trkpt lat="31.3038600" lon="35.3259000">
<ele>134.669998</ele>
<time>2024-11-18T09:15:24.098Z</time>
</trkpt>
<trkpt lat="31.3037400" lon="35.3258700">
<ele>134.729996</ele>
<time>2024-11-18T09:15:24.098Z</time>
</trkpt>
<trkpt lat="31.3036100" lon="35.3257700">
<ele>136.130005</ele>
<time>2024-11-18T09:15:24.098Z</time>
</trkpt>
<trkpt lat="31.3034900" lon="35.3256100">
<ele>138.149994</ele>
<time>2024-11-18T09:15:24.098Z</time>
</trkpt>
<trkpt lat="31.3034400" lon="35.3255300">
<ele>139.039993</ele>
<time>2024-11-18T09:15:24.098Z</time>
</trkpt>
<trkpt lat="31.3033900" lon="35.3254500">
<ele>139.550003</ele>
<time>2024-11-18T09:15:24.098Z</time>
</trkpt>
<trkpt lat="31.3033400" lon="35.3253800">
<ele>139.940002</ele>
<time>2024-11-18T09:15:24.098Z</time>
</trkpt>
<trkpt lat="31.3033200" lon="35.3253200">
<ele>140.309998</ele>
<time>2024-11-18T09:15:24.098Z</time>
</trkpt>
<trkpt lat="31.3032000" lon="35.3252700">
<ele>138.650009</ele>
<time>2024-11-18T09:15:24.098Z</time>
</trkpt>
<trkpt lat="31.3030700" lon="35.3252000">
<ele>137.069992</ele>
<time>2024-11-18T09:15:24.098Z</time>
</trkpt>
<trkpt lat="31.3029900" lon="35.3251600">
<ele>135.889999</ele>
<time>2024-11-18T09:15:24.098Z</time>
</trkpt>
<trkpt lat="31.3029200" lon="35.3251400">
<ele>134.559998</ele>
<time>2024-11-18T09:15:24.098Z</time>
</trkpt>
<trkpt lat="31.3028700" lon="35.3251300">
<ele>133.550003</ele>
<time>2024-11-18T09:15:24.098Z</time>
</trkpt>
<trkpt lat="31.3028100" lon="35.3250800">
<ele>132.459991</ele>
<time>2024-11-18T09:15:24.098Z</time>
</trkpt>
<trkpt lat="31.3027400" lon="35.3250900">
<ele>131.139999</ele>
<time>2024-11-18T09:15:24.098Z</time>
</trkpt>
<trkpt lat="31.3027100" lon="35.3251600">
<ele>130.270004</ele>
<time>2024-11-18T09:15:24.098Z</time>
</trkpt>
<trkpt lat="31.3027100" lon="35.3251600">
<ele>130.270004</ele>
<time>2024-11-18T09:15:24.098Z</time>
</trkpt>
<trkpt lat="31.3027100" lon="35.3251600">
<ele>130.270004</ele>
<time>2024-11-18T09:15:24.098Z</time>
</trkpt>
<trkpt lat="31.3027100" lon="35.3251600">
<ele>130.270004</ele>
<time>2024-11-18T09:15:24.098Z</time>
</trkpt>
<trkpt lat="31.3027100" lon="35.3252000">
<ele>130.020004</ele>
<time>2024-11-18T09:15:24.098Z</time>
</trkpt>
<trkpt lat="31.3027700" lon="35.3252300">
<ele>131.020004</ele>
<time>2024-11-18T09:15:24.098Z</time>
</trkpt>
<trkpt lat="31.3028200" lon="35.3251900">
<ele>132.169998</ele>
<time>2024-11-18T09:15:24.098Z</time>
</trkpt>
<trkpt lat="31.3029000" lon="35.3251800">
<ele>133.860001</ele>
<time>2024-11-18T09:15:24.098Z</time>
</trkpt>
<trkpt lat="31.3031800" lon="35.3253100">
<ele>137.959991</ele>
<time>2024-11-18T09:15:24.098Z</time>
</trkpt>
<trkpt lat="31.3032100" lon="35.3254400">
<ele>137.290009</ele>
<time>2024-11-18T09:15:24.098Z</time>
</trkpt>
<trkpt lat="31.3033000" lon="35.3256000">
<ele>136.759995</ele>
<time>2024-11-18T09:15:24.098Z</time>
</trkpt>
<trkpt lat="31.3033500" lon="35.3257000">
<ele>135.520004</ele>
<time>2024-11-18T09:15:24.098Z</time>
</trkpt>
<trkpt lat="31.3033500" lon="35.3258500">
<ele>132.820007</ele>
<time>2024-11-18T09:15:24.098Z</time>
</trkpt>
<trkpt lat="31.3034100" lon="35.3260900">
<ele>128.679993</ele>
<time>2024-11-18T09:15:24.098Z</time>
</trkpt>
<trkpt lat="31.3034800" lon="35.3262900">
<ele>125.949997</ele>
<time>2024-11-18T09:15:24.098Z</time>
</trkpt>
<trkpt lat="31.3034600" lon="35.3264200">
<ele>124.239998</ele>
<time>2024-11-18T09:15:24.098Z</time>
</trkpt>
<trkpt lat="31.3033700" lon="35.3264900">
<ele>123.669998</ele>
<time>2024-11-18T09:15:24.098Z</time>
</trkpt>
<trkpt lat="31.3032700" lon="35.3266100">
<ele>121.650002</ele>
<time>2024-11-18T09:15:24.098Z</time>
</trkpt>
<trkpt lat="31.3032200" lon="35.3267300">
<ele>120.520004</ele>
<time>2024-11-18T09:15:24.098Z</time>
</trkpt>
<trkpt lat="31.3031700" lon="35.3269900">
<ele>121.689995</ele>
<time>2024-11-18T09:15:24.098Z</time>
</trkpt>
<trkpt lat="31.3031300" lon="35.3271900">
<ele>123.629997</ele>
<time>2024-11-18T09:15:24.098Z</time>
</trkpt>
<trkpt lat="31.3031300" lon="35.3274800">
<ele>123.390007</ele>
<time>2024-11-18T09:15:24.098Z</time>
</trkpt>
<trkpt lat="31.3030900" lon="35.3278800">
<ele>121.809998</ele>
<time>2024-11-18T09:15:24.098Z</time>
</trkpt>
<trkpt lat="31.3031700" lon="35.3280800">
<ele>119.029999</ele>
<time>2024-11-18T09:15:24.098Z</time>
</trkpt>
<trkpt lat="31.3032300" lon="35.3282100">
<ele>117.689995</ele>
<time>2024-11-18T09:15:24.098Z</time>
</trkpt>
<trkpt lat="31.3032800" lon="35.3283300">
<ele>117.070000</ele>
<time>2024-11-18T09:15:24.098Z</time>
</trkpt>
<trkpt lat="31.3033800" lon="35.3283800">
<ele>117.890007</ele>
<time>2024-11-18T09:15:24.098Z</time>
</trkpt>
<trkpt lat="31.3035200" lon="35.3283500">
<ele>118.019997</ele>
<time>2024-11-18T09:15:24.098Z</time>
</trkpt>
<trkpt lat="31.3036400" lon="35.3284200">
<ele>118.380005</ele>
<time>2024-11-18T09:15:24.098Z</time>
</trkpt>
<trkpt lat="31.3037100" lon="35.3284200">
<ele>118.559998</ele>
<time>2024-11-18T09:15:24.098Z</time>
</trkpt>
<trkpt lat="31.3037500" lon="35.3284800">
<ele>118.759995</ele>
<time>2024-11-18T09:15:24.098Z</time>
</trkpt>
<trkpt lat="31.3037400" lon="35.3285000">
<ele>118.789993</ele>
<time>2024-11-18T09:15:24.098Z</time>
</trkpt>
<trkpt lat="31.3037400" lon="35.3285000">
<ele>118.789993</ele>
<time>2024-11-18T09:15:24.098Z</time>
</trkpt>
<trkpt lat="31.3037400" lon="35.3285000">
<ele>118.789993</ele>
<time>2024-11-18T09:15:24.098Z</time>
</trkpt>
<trkpt lat="31.3037100" lon="35.3285400">
<ele>118.840004</ele>
<time>2024-11-18T09:15:24.098Z</time>
</trkpt>
<trkpt lat="31.3035500" lon="35.3286200">
<ele>118.430000</ele>
<time>2024-11-18T09:15:24.098Z</time>
</trkpt>
<trkpt lat="31.3034600" lon="35.3286700">
<ele>117.059998</ele>
<time>2024-11-18T09:15:24.098Z</time>
</trkpt>
<trkpt lat="31.3033000" lon="35.3286800">
<ele>115.409996</ele>
<time>2024-11-18T09:15:24.098Z</time>
</trkpt>
<trkpt lat="31.3031300" lon="35.3286700">
<ele>112.379997</ele>
<time>2024-11-18T09:15:24.098Z</time>
</trkpt>
<trkpt lat="31.3030500" lon="35.3285800">
<ele>111.139999</ele>
<time>2024-11-18T09:15:24.098Z</time>
</trkpt>
<trkpt lat="31.3029700" lon="35.3284700">
<ele>110.629997</ele>
<time>2024-11-18T09:15:24.098Z</time>
</trkpt>
<trkpt lat="31.3029200" lon="35.3284200">
<ele>110.089996</ele>
<time>2024-11-18T09:15:24.098Z</time>
</trkpt>
<trkpt lat="31.3027900" lon="35.3284300">
<ele>107.860001</ele>
<time>2024-11-18T09:15:24.098Z</time>
</trkpt>
<trkpt lat="31.3027000" lon="35.3285000">
<ele>106.729996</ele>
<time>2024-11-18T09:15:24.098Z</time>
</trkpt>
<trkpt lat="31.3026600" lon="35.3285900">
<ele>106.200005</ele>
<time>2024-11-18T09:15:24.098Z</time>
</trkpt>
<trkpt lat="31.3026700" lon="35.3286900">
<ele>106.050003</ele>
<time>2024-11-18T09:15:24.098Z</time>
</trkpt>
<trkpt lat="31.3026900" lon="35.3287900">
<ele>105.930000</ele>
<time>2024-11-18T09:15:24.098Z</time>
</trkpt>
<trkpt lat="31.3026700" lon="35.3289600">
<ele>105.000000</ele>
<time>2024-11-18T09:15:24.098Z</time>
</trkpt>
<trkpt lat="31.3026000" lon="35.3290800">
<ele>103.539993</ele>
<time>2024-11-18T09:15:24.098Z</time>
</trkpt>
<trkpt lat="31.3025400" lon="35.3291500">
<ele>102.459999</ele>
<time>2024-11-18T09:15:24.098Z</time>
</trkpt>
<trkpt lat="31.3024900" lon="35.3293400">
<ele>100.750000</ele>
<time>2024-11-18T09:15:24.098Z</time>
</trkpt>
<trkpt lat="31.3024600" lon="35.3294100">
<ele>100.250000</ele>
<time>2024-11-18T09:15:24.098Z</time>
</trkpt>
<trkpt lat="31.3023900" lon="35.3294800">
<ele>99.820000</ele>
<time>2024-11-18T09:15:24.098Z</time>
</trkpt>
<trkpt lat="31.3024000" lon="35.3296500">
<ele>98.990005</ele>
<time>2024-11-18T09:15:24.098Z</time>
</trkpt>
<trkpt lat="31.3024600" lon="35.3299500">
<ele>97.330002</ele>
<time>2024-11-18T09:15:24.098Z</time>
</trkpt>
<trkpt lat="31.3024000" lon="35.3300800">
<ele>96.629997</ele>
<time>2024-11-18T09:15:24.098Z</time>
</trkpt>
<trkpt lat="31.3025300" lon="35.3304200">
<ele>93.820007</ele>
<time>2024-11-18T09:15:24.098Z</time>
</trkpt>
<trkpt lat="31.3025500" lon="35.3306600">
<ele>92.510002</ele>
<time>2024-11-18T09:15:24.098Z</time>
</trkpt>
<trkpt lat="31.3024000" lon="35.3307600">
<ele>92.450005</ele>
<time>2024-11-18T09:15:24.098Z</time>
</trkpt>
<trkpt lat="31.3021000" lon="35.3307800">
<ele>92.300003</ele>
<time>2024-11-18T09:15:24.098Z</time>
</trkpt>
<trkpt lat="31.3018000" lon="35.3309300">
<ele>90.279999</ele>
<time>2024-11-18T09:15:24.098Z</time>
</trkpt>
<trkpt lat="31.3016300" lon="35.3310100">
<ele>89.040001</ele>
<time>2024-11-18T09:15:24.098Z</time>
</trkpt>
<trkpt lat="31.3012800" lon="35.3311200">
<ele>87.989998</ele>
<time>2024-11-18T09:15:24.098Z</time>
</trkpt>
<trkpt lat="31.3010100" lon="35.3313300">
<ele>81.680000</ele>
<time>2024-11-18T09:15:24.098Z</time>
</trkpt>
<trkpt lat="31.3008400" lon="35.3314200">
<ele>79.790001</ele>
<time>2024-11-18T09:15:24.098Z</time>
</trkpt>
<trkpt lat="31.3006500" lon="35.3313200">
<ele>80.420006</ele>
<time>2024-11-18T09:15:24.098Z</time>
</trkpt>
<trkpt lat="31.3005200" lon="35.3312700">
<ele>80.560005</ele>
<time>2024-11-18T09:15:24.098Z</time>
</trkpt>
<trkpt lat="31.3003200" lon="35.3310500">
<ele>82.019997</ele>
<time>2024-11-18T09:15:24.098Z</time>
</trkpt>
<trkpt lat="31.3002100" lon="35.3309700">
<ele>81.030006</ele>
<time>2024-11-18T09:15:24.098Z</time>
</trkpt>
<trkpt lat="31.3000900" lon="35.3310000">
<ele>79.159996</ele>
<time>2024-11-18T09:15:24.098Z</time>
</trkpt>
<trkpt lat="31.3000500" lon="35.3311200">
<ele>77.840004</ele>
<time>2024-11-18T09:15:24.098Z</time>
</trkpt>
<trkpt lat="31.3000500" lon="35.3311200">
<ele>77.840004</ele>
<time>2024-11-18T09:15:24.098Z</time>
</trkpt>
<trkpt lat="31.3000500" lon="35.3311200">
<ele>77.840004</ele>
<time>2024-11-18T09:15:24.098Z</time>
</trkpt>
<trkpt lat="31.3000300" lon="35.3311700">
<ele>77.139999</ele>
<time>2024-11-18T09:15:24.098Z</time>
</trkpt>
<trkpt lat="31.3001300" lon="35.3312000">
<ele>78.849998</ele>
<time>2024-11-18T09:15:24.098Z</time>
</trkpt>
<trkpt lat="31.3002500" lon="35.3312200">
<ele>81.070000</ele>
<time>2024-11-18T09:15:24.098Z</time>
</trkpt>
<trkpt lat="31.3004900" lon="35.3313700">
<ele>80.300003</ele>
<time>2024-11-18T09:15:24.098Z</time>
</trkpt>
<trkpt lat="31.3005300" lon="35.3317300">
<ele>79.640007</ele>
<time>2024-11-18T09:15:24.098Z</time>
</trkpt>
<trkpt lat="31.3005300" lon="35.3318500">
<ele>79.129997</ele>
<time>2024-11-18T09:15:24.098Z</time>
</trkpt>
<trkpt lat="31.3005500" lon="35.3320600">
<ele>76.860001</ele>
<time>2024-11-18T09:15:24.098Z</time>
</trkpt>
<trkpt lat="31.3006400" lon="35.3322700">
<ele>73.970001</ele>
<time>2024-11-18T09:15:24.098Z</time>
</trkpt>
<trkpt lat="31.3007300" lon="35.3324800">
<ele>72.130005</ele>
<time>2024-11-18T09:15:24.098Z</time>
</trkpt>
<trkpt lat="31.3010100" lon="35.3327000">
<ele>71.190002</ele>
<time>2024-11-18T09:15:24.098Z</time>
</trkpt>
<trkpt lat="31.3011700" lon="35.3329100">
<ele>69.430000</ele>
<time>2024-11-18T09:15:24.098Z</time>
</trkpt>
<trkpt lat="31.3012200" lon="35.3331900">
<ele>66.379997</ele>
<time>2024-11-18T09:15:24.098Z</time>
</trkpt>
<trkpt lat="31.3012100" lon="35.3333600">
<ele>64.360001</ele>
<time>2024-11-18T09:15:24.098Z</time>
</trkpt>
<trkpt lat="31.3010300" lon="35.3335900">
<ele>64.709999</ele>
<time>2024-11-18T09:15:24.098Z</time>
</trkpt>
<trkpt lat="31.3008800" lon="35.3340100">
<ele>62.680000</ele>
<time>2024-11-18T09:15:24.098Z</time>
</trkpt>
<trkpt lat="31.3007900" lon="35.3341400">
<ele>59.130001</ele>
<time>2024-11-18T09:15:24.098Z</time>
</trkpt>
<trkpt lat="31.3006400" lon="35.3342800">
<ele>56.380001</ele>
<time>2024-11-18T09:15:24.098Z</time>
</trkpt>
<trkpt lat="31.3006400" lon="35.3342800">
<ele>56.380001</ele>
<time>2024-11-18T09:15:24.098Z</time>
</trkpt>
<trkpt lat="31.3006400" lon="35.3342800">
<ele>56.380001</ele>
<time>2024-11-18T09:15:24.098Z</time>
</trkpt>
<trkpt lat="31.3005900" lon="35.3342000">
<ele>58.820000</ele>
<time>2024-11-18T09:15:24.098Z</time>
</trkpt>
<trkpt lat="31.3006400" lon="35.3341300">
<ele>60.299999</ele>
<time>2024-11-18T09:15:24.098Z</time>
</trkpt>
<trkpt lat="31.3005900" lon="35.3338600">
<ele>66.590004</ele>
<time>2024-11-18T09:15:24.098Z</time>
</trkpt>
<trkpt lat="31.3003900" lon="35.3339300">
<ele>63.410000</ele>
<time>2024-11-18T09:15:24.098Z</time>
</trkpt>
<trkpt lat="31.3002500" lon="35.3338100">
<ele>63.579998</ele>
<time>2024-11-18T09:15:24.098Z</time>
</trkpt>
<trkpt lat="31.2999500" lon="35.3336100">
<ele>58.929996</ele>
<time>2024-11-18T09:15:24.098Z</time>
</trkpt>
<trkpt lat="31.2998600" lon="35.3334300">
<ele>56.630001</ele>
<time>2024-11-18T09:15:24.098Z</time>
</trkpt>
<trkpt lat="31.2997700" lon="35.3331700">
<ele>57.209999</ele>
<time>2024-11-18T09:15:24.098Z</time>
</trkpt>
<trkpt lat="31.2997100" lon="35.3330500">
<ele>59.750000</ele>
<time>2024-11-18T09:15:24.098Z</time>
</trkpt>
<trkpt lat="31.2995800" lon="35.3331200">
<ele>55.910000</ele>
<time>2024-11-18T09:15:24.098Z</time>
</trkpt>
<trkpt lat="31.2996300" lon="35.3332000">
<ele>54.709999</ele>
<time>2024-11-18T09:15:24.098Z</time>
</trkpt>
<trkpt lat="31.2997100" lon="35.3333300">
<ele>50.329998</ele>
<time>2024-11-18T09:15:24.098Z</time>
</trkpt>
<trkpt lat="31.2996000" lon="35.3333900">
<ele>52.390003</ele>
<time>2024-11-18T09:15:24.098Z</time>
</trkpt>
<trkpt lat="31.2994100" lon="35.3335500">
<ele>52.730000</ele>
<time>2024-11-18T09:15:24.098Z</time>
</trkpt>
<trkpt lat="31.2993100" lon="35.3337800">
<ele>51.580002</ele>
<time>2024-11-18T09:15:24.098Z</time>
</trkpt>
<trkpt lat="31.2994000" lon="35.3338700">
<ele>51.079998</ele>
<time>2024-11-18T09:15:24.098Z</time>
</trkpt>
<trkpt lat="31.2995500" lon="35.3338900">
<ele>52.520000</ele>
<time>2024-11-18T09:15:24.098Z</time>
</trkpt>
<trkpt lat="31.2996300" lon="35.3339800">
<ele>53.669998</ele>
<time>2024-11-18T09:15:24.098Z</time>
</trkpt>
<trkpt lat="31.2996400" lon="35.3341200">
<ele>53.820000</ele>
<time>2024-11-18T09:15:24.098Z</time>
</trkpt>
<trkpt lat="31.2996100" lon="35.3342100">
<ele>52.730000</ele>
<time>2024-11-18T09:15:24.098Z</time>
</trkpt>
<trkpt lat="31.2995600" lon="35.3344400">
<ele>48.890003</ele>
<time>2024-11-18T09:15:24.098Z</time>
</trkpt>
<trkpt lat="31.2994700" lon="35.3345600">
<ele>46.709999</ele>
<time>2024-11-18T09:15:24.098Z</time>
</trkpt>
<trkpt lat="31.2992800" lon="35.3345100">
<ele>47.849998</ele>
<time>2024-11-18T09:15:24.098Z</time>
</trkpt>
<trkpt lat="31.2990900" lon="35.3344900">
<ele>49.310001</ele>
<time>2024-11-18T09:15:24.098Z</time>
</trkpt>
<trkpt lat="31.2989900" lon="35.3345400">
<ele>51.110001</ele>
<time>2024-11-18T09:15:24.098Z</time>
</trkpt>
<trkpt lat="31.2988600" lon="35.3344300">
<ele>51.689999</ele>
<time>2024-11-18T09:15:24.098Z</time>
</trkpt>
<trkpt lat="31.2987300" lon="35.3343400">
<ele>50.500000</ele>
<time>2024-11-18T09:15:24.098Z</time>
</trkpt>
<trkpt lat="31.2984900" lon="35.3343700">
<ele>47.290001</ele>
<time>2024-11-18T09:15:24.098Z</time>
</trkpt>
<trkpt lat="31.2984800" lon="35.3342600">
<ele>47.150002</ele>
<time>2024-11-18T09:15:24.098Z</time>
</trkpt>
<trkpt lat="31.2982300" lon="35.3344300">
<ele>43.459999</ele>
<time>2024-11-18T09:15:24.098Z</time>
</trkpt>
<trkpt lat="31.2981500" lon="35.3344500">
<ele>42.459999</ele>
<time>2024-11-18T09:15:24.098Z</time>
</trkpt>
<trkpt lat="31.2979200" lon="35.3344500">
<ele>40.120003</ele>
<time>2024-11-18T09:15:24.098Z</time>
</trkpt>
<trkpt lat="31.2977200" lon="35.3344800">
<ele>38.060001</ele>
<time>2024-11-18T09:15:24.098Z</time>
</trkpt>
<trkpt lat="31.2976500" lon="35.3344700">
<ele>36.150002</ele>
<time>2024-11-18T09:15:24.098Z</time>
</trkpt>
<trkpt lat="31.2975600" lon="35.3344300">
<ele>33.340000</ele>
<time>2024-11-18T09:15:24.098Z</time>
</trkpt>
<trkpt lat="31.2974900" lon="35.3344200">
<ele>31.559999</ele>
<time>2024-11-18T09:15:24.098Z</time>
</trkpt>
<trkpt lat="31.2974900" lon="35.3344200">
<ele>31.559999</ele>
<time>2024-11-18T09:15:24.098Z</time>
</trkpt>
<trkpt lat="31.2974900" lon="35.3344200">
<ele>31.559999</ele>
<time>2024-11-18T09:15:24.098Z</time>
</trkpt>
<trkpt lat="31.2973500" lon="35.3344500">
<ele>29.389999</ele>
<time>2024-11-18T09:15:24.098Z</time>
</trkpt>
<trkpt lat="31.2971800" lon="35.3344000">
<ele>26.360001</ele>
<time>2024-11-18T09:15:24.098Z</time>
</trkpt>
<trkpt lat="31.2971100" lon="35.3343900">
<ele>25.510000</ele>
<time>2024-11-18T09:15:24.098Z</time>
</trkpt>
<trkpt lat="31.2969900" lon="35.3342900">
<ele>23.469999</ele>
<time>2024-11-18T09:15:24.098Z</time>
</trkpt>
<trkpt lat="31.2968400" lon="35.3342900">
<ele>22.180000</ele>
<time>2024-11-18T09:15:24.098Z</time>
</trkpt>
<trkpt lat="31.2965700" lon="35.3343300">
<ele>19.590000</ele>
<time>2024-11-18T09:15:24.098Z</time>
</trkpt>
<trkpt lat="31.2962700" lon="35.3343700">
<ele>16.610001</ele>
<time>2024-11-18T09:15:24.098Z</time>
</trkpt>
<trkpt lat="31.2959600" lon="35.3345300">
<ele>16.520000</ele>
<time>2024-11-18T09:15:24.098Z</time>
</trkpt>
<trkpt lat="31.2955700" lon="35.3344400">
<ele>13.969999</ele>
<time>2024-11-18T09:15:24.098Z</time>
</trkpt>
<trkpt lat="31.2950600" lon="35.3343700">
<ele>3.380000</ele>
<time>2024-11-18T09:15:24.098Z</time>
</trkpt>
<trkpt lat="31.2949100" lon="35.3345000">
<ele>1.330000</ele>
<time>2024-11-18T09:15:24.098Z</time>
</trkpt>
<trkpt lat="31.2949800" lon="35.3349600">
<ele>5.160000</ele>
<time>2024-11-18T09:15:24.098Z</time>
</trkpt>
<trkpt lat="31.2951600" lon="35.3352200">
<ele>11.450000</ele>
<time>2024-11-18T09:15:24.098Z</time>
</trkpt>
<trkpt lat="31.2952400" lon="35.3353900">
<ele>14.770000</ele>
<time>2024-11-18T09:15:24.098Z</time>
</trkpt>
<trkpt lat="31.2952100" lon="35.3355200">
<ele>12.309999</ele>
<time>2024-11-18T09:15:24.098Z</time>
</trkpt>
<trkpt lat="31.2952500" lon="35.3356200">
<ele>14.740001</ele>
<time>2024-11-18T09:15:24.098Z</time>
</trkpt>
<trkpt lat="31.2953000" lon="35.3356800">
<ele>17.719999</ele>
<time>2024-11-18T09:15:24.098Z</time>
</trkpt>
<trkpt lat="31.2952800" lon="35.3358700">
<ele>16.110001</ele>
<time>2024-11-18T09:15:24.098Z</time>
</trkpt>
<trkpt lat="31.2952000" lon="35.3361800">
<ele>9.969999</ele>
<time>2024-11-18T09:15:24.098Z</time>
</trkpt>
<trkpt lat="31.2952900" lon="35.3367100">
<ele>10.480000</ele>
<time>2024-11-18T09:15:24.098Z</time>
</trkpt>
<trkpt lat="31.2952900" lon="35.3368100">
<ele>9.270000</ele>
<time>2024-11-18T09:15:24.098Z</time>
</trkpt>
<trkpt lat="31.2953200" lon="35.3368800">
<ele>7.760000</ele>
<time>2024-11-18T09:15:24.098Z</time>
</trkpt>
<trkpt lat="31.2956800" lon="35.3368900">
<ele>-0.180000</ele>
<time>2024-11-18T09:15:24.098Z</time>
</trkpt>
<trkpt lat="31.2959000" lon="35.3369500">
<ele>-7.870000</ele>
<time>2024-11-18T09:15:24.098Z</time>
</trkpt>
<trkpt lat="31.2960700" lon="35.3369700">
<ele>-12.429999</ele>
<time>2024-11-18T09:15:24.098Z</time>
</trkpt>
<trkpt lat="31.2961200" lon="35.3368900">
<ele>-10.650000</ele>
<time>2024-11-18T09:15:24.098Z</time>
</trkpt>
<trkpt lat="31.2961800" lon="35.3370100">
<ele>-13.700000</ele>
<time>2024-11-18T09:15:24.098Z</time>
</trkpt>
<trkpt lat="31.2961800" lon="35.3370600">
<ele>-14.420000</ele>
<time>2024-11-18T09:15:24.098Z</time>
</trkpt>
<trkpt lat="31.2964100" lon="35.3369000">
<ele>-10.290000</ele>
<time>2024-11-18T09:15:24.098Z</time>
</trkpt>
<trkpt lat="31.2964700" lon="35.3369900">
<ele>-10.900000</ele>
<time>2024-11-18T09:15:24.098Z</time>
</trkpt>
<trkpt lat="31.2965200" lon="35.3370500">
<ele>-11.290000</ele>
<time>2024-11-18T09:15:24.098Z</time>
</trkpt>
<trkpt lat="31.2966400" lon="35.3373100">
<ele>-17.250000</ele>
<time>2024-11-18T09:15:24.098Z</time>
</trkpt>
<trkpt lat="31.2967000" lon="35.3373600">
<ele>-18.050001</ele>
<time>2024-11-18T09:15:24.098Z</time>
</trkpt>
<trkpt lat="31.2969400" lon="35.3374800">
<ele>-20.160000</ele>
<time>2024-11-18T09:15:24.098Z</time>
</trkpt>
<trkpt lat="31.2970000" lon="35.3375000">
<ele>-20.199999</ele>
<time>2024-11-18T09:15:24.098Z</time>
</trkpt>
<trkpt lat="31.2971000" lon="35.3375000">
<ele>-18.760000</ele>
<time>2024-11-18T09:15:24.098Z</time>
</trkpt>
<trkpt lat="31.2973600" lon="35.3374100">
<ele>-12.620000</ele>
<time>2024-11-18T09:15:24.098Z</time>
</trkpt>
<trkpt lat="31.2977600" lon="35.3373400">
<ele>-13.540000</ele>
<time>2024-11-18T09:15:24.098Z</time>
</trkpt>
<trkpt lat="31.2979900" lon="35.3372300">
<ele>-13.240000</ele>
<time>2024-11-18T09:15:24.098Z</time>
</trkpt>
<trkpt lat="31.2982500" lon="35.3371900">
<ele>-14.980000</ele>
<time>2024-11-18T09:15:24.098Z</time>
</trkpt>
<trkpt lat="31.2983100" lon="35.3371500">
<ele>-15.010000</ele>
<time>2024-11-18T09:15:24.098Z</time>
</trkpt>
<trkpt lat="31.2983700" lon="35.3371000">
<ele>-15.300000</ele>
<time>2024-11-18T09:15:24.098Z</time>
</trkpt>
<trkpt lat="31.2984300" lon="35.3370100">
<ele>-15.000000</ele>
<time>2024-11-18T09:15:24.098Z</time>
</trkpt>
<trkpt lat="31.2984800" lon="35.3368500">
<ele>-13.220000</ele>
<time>2024-11-18T09:15:24.098Z</time>
</trkpt>
<trkpt lat="31.2985800" lon="35.3369000">
<ele>-15.020000</ele>
<time>2024-11-18T09:15:24.098Z</time>
</trkpt>
<trkpt lat="31.2985700" lon="35.3370600">
<ele>-17.870001</ele>
<time>2024-11-18T09:15:24.098Z</time>
</trkpt>
<trkpt lat="31.2986000" lon="35.3371700">
<ele>-20.650000</ele>
<time>2024-11-18T09:15:24.098Z</time>
</trkpt>
<trkpt lat="31.2987700" lon="35.3370800">
<ele>-20.640001</ele>
<time>2024-11-18T09:15:24.098Z</time>
</trkpt>
<trkpt lat="31.2992100" lon="35.3367400">
<ele>-13.030000</ele>
<time>2024-11-18T09:15:24.098Z</time>
</trkpt>
<trkpt lat="31.2993400" lon="35.3367100">
<ele>-10.870001</ele>
<time>2024-11-18T09:15:24.098Z</time>
</trkpt>
<trkpt lat="31.2994200" lon="35.3367300">
<ele>-10.219999</ele>
<time>2024-11-18T09:15:24.098Z</time>
</trkpt>
<trkpt lat="31.2994600" lon="35.3367800">
<ele>-10.730000</ele>
<time>2024-11-18T09:15:24.098Z</time>
</trkpt>
<trkpt lat="31.2995100" lon="35.3368800">
<ele>-12.670000</ele>
<time>2024-11-18T09:15:24.098Z</time>
</trkpt>
<trkpt lat="31.2995500" lon="35.3369200">
<ele>-13.719999</ele>
<time>2024-11-18T09:15:24.098Z</time>
</trkpt>
<trkpt lat="31.2996600" lon="35.3369500">
<ele>-15.490000</ele>
<time>2024-11-18T09:15:24.098Z</time>
</trkpt>
<trkpt lat="31.2997100" lon="35.3369400">
<ele>-15.770000</ele>
<time>2024-11-18T09:15:24.098Z</time>
</trkpt>
<trkpt lat="31.3001000" lon="35.3367500">
<ele>-17.949999</ele>
<time>2024-11-18T09:15:24.098Z</time>
</trkpt>
<trkpt lat="31.3003000" lon="35.3365100">
<ele>-20.240000</ele>
<time>2024-11-18T09:15:24.098Z</time>
</trkpt>
<trkpt lat="31.3002800" lon="35.3361200">
<ele>-16.110001</ele>
<time>2024-11-18T09:15:24.098Z</time>
</trkpt>
<trkpt lat="31.3002800" lon="35.3361200">
<ele>-16.110001</ele>
<time>2024-11-18T09:15:24.098Z</time>
</trkpt>
<trkpt lat="31.3002800" lon="35.3361200">
<ele>-16.110001</ele>
<time>2024-11-18T09:15:24.098Z</time>
</trkpt>
<trkpt lat="31.3002800" lon="35.3360300">
<ele>-14.250000</ele>
<time>2024-11-18T09:15:24.098Z</time>
</trkpt>
<trkpt lat="31.3005100" lon="35.3359700">
<ele>-12.940000</ele>
<time>2024-11-18T09:15:24.098Z</time>
</trkpt>
<trkpt lat="31.3007300" lon="35.3361200">
<ele>-17.160000</ele>
<time>2024-11-18T09:15:24.098Z</time>
</trkpt>
<trkpt lat="31.3008500" lon="35.3360500">
<ele>-14.470000</ele>
<time>2024-11-18T09:15:24.098Z</time>
</trkpt>
<trkpt lat="31.3010900" lon="35.3361900">
<ele>-15.759999</ele>
<time>2024-11-18T09:15:24.098Z</time>
</trkpt>
<trkpt lat="31.3009500" lon="35.3359500">
<ele>-10.020000</ele>
<time>2024-11-18T09:15:24.098Z</time>
</trkpt>
<trkpt lat="31.3010000" lon="35.3358600">
<ele>-6.400000</ele>
<time>2024-11-18T09:15:24.098Z</time>
</trkpt>
<trkpt lat="31.3018600" lon="35.3363200">
<ele>-19.360001</ele>
<time>2024-11-18T09:15:24.098Z</time>
</trkpt>
<trkpt lat="31.3020800" lon="35.3364700">
<ele>-21.550001</ele>
<time>2024-11-18T09:15:24.098Z</time>
</trkpt>
<trkpt lat="31.3021200" lon="35.3366000">
<ele>-22.860001</ele>
<time>2024-11-18T09:15:24.098Z</time>
</trkpt>
<trkpt lat="31.3020100" lon="35.3367400">
<ele>-25.119999</ele>
<time>2024-11-18T09:15:24.098Z</time>
</trkpt>
<trkpt lat="31.3020300" lon="35.3368500">
<ele>-25.910000</ele>
<time>2024-11-18T09:15:24.098Z</time>
</trkpt>
<trkpt lat="31.3020300" lon="35.3368500">
<ele>-25.910000</ele>
<time>2024-11-18T09:15:24.098Z</time>
</trkpt>
<trkpt lat="31.3020300" lon="35.3368600">
<ele>-25.990000</ele>
<time>2024-11-18T09:15:24.098Z</time>
</trkpt>
<trkpt lat="31.3020400" lon="35.3369000">
<ele>-26.280001</ele>
<time>2024-11-18T09:15:24.098Z</time>
</trkpt>
<trkpt lat="31.3021500" lon="35.3370000">
<ele>-26.510000</ele>
<time>2024-11-18T09:15:24.098Z</time>
</trkpt>
<trkpt lat="31.3022400" lon="35.3368900">
<ele>-25.299999</ele>
<time>2024-11-18T09:15:24.098Z</time>
</trkpt>
<trkpt lat="31.3025600" lon="35.3368900">
<ele>-24.209999</ele>
<time>2024-11-18T09:15:24.098Z</time>
</trkpt>
<trkpt lat="31.3029200" lon="35.3369200">
<ele>-26.920000</ele>
<time>2024-11-18T09:15:24.098Z</time>
</trkpt>
<trkpt lat="31.3031100" lon="35.3370200">
<ele>-25.970001</ele>
<time>2024-11-18T09:15:24.098Z</time>
</trkpt>
<trkpt lat="31.3032600" lon="35.3373000">
<ele>-22.379999</ele>
<time>2024-11-18T09:15:24.098Z</time>
</trkpt>
<trkpt lat="31.3032800" lon="35.3372600">
<ele>-22.039999</ele>
<time>2024-11-18T09:15:24.098Z</time>
</trkpt>
<trkpt lat="31.3033800" lon="35.3371400">
<ele>-21.000000</ele>
<time>2024-11-18T09:15:24.098Z</time>
</trkpt>
<trkpt lat="31.3034700" lon="35.3371000">
<ele>-20.140001</ele>
<time>2024-11-18T09:15:24.098Z</time>
</trkpt>
<trkpt lat="31.3037200" lon="35.3370700">
<ele>-19.610001</ele>
<time>2024-11-18T09:15:24.098Z</time>
</trkpt>
<trkpt lat="31.3039000" lon="35.3370000">
<ele>-20.389999</ele>
<time>2024-11-18T09:15:24.098Z</time>
</trkpt>
<trkpt lat="31.3039700" lon="35.3369400">
<ele>-20.389999</ele>
<time>2024-11-18T09:15:24.098Z</time>
</trkpt>
<trkpt lat="31.3041800" lon="35.3367000">
<ele>-22.500002</ele>
<time>2024-11-18T09:15:24.098Z</time>
</trkpt>
<trkpt lat="31.3042600" lon="35.3366000">
<ele>-24.330002</ele>
<time>2024-11-18T09:15:24.098Z</time>
</trkpt>
<trkpt lat="31.3043300" lon="35.3365700">
<ele>-25.809999</ele>
<time>2024-11-18T09:15:24.098Z</time>
</trkpt>
<trkpt lat="31.3044800" lon="35.3365900">
<ele>-28.000000</ele>
<time>2024-11-18T09:15:24.098Z</time>
</trkpt>
<trkpt lat="31.3045200" lon="35.3366300">
<ele>-28.000000</ele>
<time>2024-11-18T09:15:24.098Z</time>
</trkpt>
<trkpt lat="31.3045900" lon="35.3367700">
<ele>-27.840000</ele>
<time>2024-11-18T09:15:24.098Z</time>
</trkpt>
<trkpt lat="31.3046800" lon="35.3369000">
<ele>-28.460001</ele>
<time>2024-11-18T09:15:24.098Z</time>
</trkpt>
<trkpt lat="31.3047600" lon="35.3369900">
<ele>-27.889999</ele>
<time>2024-11-18T09:15:24.098Z</time>
</trkpt>
<trkpt lat="31.3048600" lon="35.3369800">
<ele>-26.330000</ele>
<time>2024-11-18T09:15:24.098Z</time>
</trkpt>
<trkpt lat="31.3048700" lon="35.3369300">
<ele>-26.320000</ele>
<time>2024-11-18T09:15:24.098Z</time>
</trkpt>
<trkpt lat="31.3048000" lon="35.3368700">
<ele>-27.410000</ele>
<time>2024-11-18T09:15:24.098Z</time>
</trkpt>
<trkpt lat="31.3047000" lon="35.3367700">
<ele>-28.279999</ele>
<time>2024-11-18T09:15:24.098Z</time>
</trkpt>
<trkpt lat="31.3046800" lon="35.3366400">
<ele>-28.000000</ele>
<time>2024-11-18T09:15:24.098Z</time>
</trkpt>
<trkpt lat="31.3046100" lon="35.3363500">
<ele>-27.720001</ele>
<time>2024-11-18T09:15:24.098Z</time>
</trkpt>
<trkpt lat="31.3045500" lon="35.3363100">
<ele>-27.740000</ele>
<time>2024-11-18T09:15:24.098Z</time>
</trkpt>
<trkpt lat="31.3045400" lon="35.3362600">
<ele>-27.670000</ele>
<time>2024-11-18T09:15:24.098Z</time>
</trkpt>
<trkpt lat="31.3045400" lon="35.3361400">
<ele>-27.350000</ele>
<time>2024-11-18T09:15:24.098Z</time>
</trkpt>
<trkpt lat="31.3046000" lon="35.3358800">
<ele>-21.570000</ele>
<time>2024-11-18T09:15:24.098Z</time>
</trkpt>
<trkpt lat="31.3046600" lon="35.3355600">
<ele>-11.470000</ele>
<time>2024-11-18T09:15:24.098Z</time>
</trkpt>
<trkpt lat="31.3046800" lon="35.3355100">
<ele>-8.340000</ele>
<time>2024-11-18T09:15:24.098Z</time>
</trkpt>
<trkpt lat="31.3048300" lon="35.3356600">
<ele>-9.950000</ele>
<time>2024-11-18T09:15:24.098Z</time>
</trkpt>
<trkpt lat="31.3051800" lon="35.3359000">
<ele>-6.500000</ele>
<time>2024-11-18T09:15:24.098Z</time>
</trkpt>
<trkpt lat="31.3056400" lon="35.3361500">
<ele>-8.320000</ele>
<time>2024-11-18T09:15:24.098Z</time>
</trkpt>
<trkpt lat="31.3059800" lon="35.3364000">
<ele>-12.020000</ele>
<time>2024-11-18T09:15:24.098Z</time>
</trkpt>
<trkpt lat="31.3062500" lon="35.3365500">
<ele>-12.660001</ele>
<time>2024-11-18T09:15:24.098Z</time>
</trkpt>
<trkpt lat="31.3063300" lon="35.3365100">
<ele>-12.590000</ele>
<time>2024-11-18T09:15:24.098Z</time>
</trkpt>
<trkpt lat="31.3063900" lon="35.3363200">
<ele>-10.260000</ele>
<time>2024-11-18T09:15:24.098Z</time>
</trkpt>
<trkpt lat="31.3064000" lon="35.3362100">
<ele>-9.040000</ele>
<time>2024-11-18T09:15:24.098Z</time>
</trkpt>
<trkpt lat="31.3065500" lon="35.3362800">
<ele>-9.600000</ele>
<time>2024-11-18T09:15:24.098Z</time>
</trkpt>
<trkpt lat="31.3066100" lon="35.3362500">
<ele>-9.099999</ele>
<time>2024-11-18T09:15:24.098Z</time>
</trkpt>
<trkpt lat="31.3066600" lon="35.3361700">
<ele>-7.870000</ele>
<time>2024-11-18T09:15:24.098Z</time>
</trkpt>
<trkpt lat="31.3068400" lon="35.3360800">
<ele>-7.060000</ele>
<time>2024-11-18T09:15:24.098Z</time>
</trkpt>
<trkpt lat="31.3069500" lon="35.3360000">
<ele>-6.020000</ele>
<time>2024-11-18T09:15:24.098Z</time>
</trkpt>
<trkpt lat="31.3070800" lon="35.3359900">
<ele>-6.310000</ele>
<time>2024-11-18T09:15:24.098Z</time>
</trkpt>
<trkpt lat="31.3072600" lon="35.3359500">
<ele>-6.180000</ele>
<time>2024-11-18T09:15:24.098Z</time>
</trkpt>
<trkpt lat="31.3074300" lon="35.3359300">
<ele>-6.230000</ele>
<time>2024-11-18T09:15:24.098Z</time>
</trkpt>
<trkpt lat="31.3075600" lon="35.3359400">
<ele>-6.070000</ele>
<time>2024-11-18T09:15:24.098Z</time>
</trkpt>
<trkpt lat="31.3076800" lon="35.3358600">
<ele>-4.550000</ele>
<time>2024-11-18T09:15:24.098Z</time>
</trkpt>
<trkpt lat="31.3078100" lon="35.3357800">
<ele>-2.750000</ele>
<time>2024-11-18T09:15:24.098Z</time>
</trkpt>
<trkpt lat="31.3080300" lon="35.3357900">
<ele>0.400000</ele>
<time>2024-11-18T09:15:24.098Z</time>
</trkpt>
<trkpt lat="31.3081800" lon="35.3358000">
<ele>0.260000</ele>
<time>2024-11-18T09:15:24.098Z</time>
</trkpt>
<trkpt lat="31.3083900" lon="35.3357400">
<ele>1.290000</ele>
<time>2024-11-18T09:15:24.098Z</time>
</trkpt>
<trkpt lat="31.3086100" lon="35.3357600">
<ele>0.380000</ele>
<time>2024-11-18T09:15:24.098Z</time>
</trkpt>
<trkpt lat="31.3086700" lon="35.3358300">
<ele>-1.670000</ele>
<time>2024-11-18T09:15:24.098Z</time>
</trkpt>
<trkpt lat="31.3086700" lon="35.3358300">
<ele>-1.670000</ele>
<time>2024-11-18T09:15:24.098Z</time>
</trkpt>
<trkpt lat="31.3086700" lon="35.3358300">
<ele>-1.670000</ele>
<time>2024-11-18T09:15:24.098Z</time>
</trkpt>
<trkpt lat="31.3086700" lon="35.3358300">
<ele>-1.670000</ele>
<time>2024-11-18T09:15:24.098Z</time>
</trkpt>
<trkpt lat="31.3087300" lon="35.3358900">
<ele>-1.750000</ele>
<time>2024-11-18T09:15:24.098Z</time>
</trkpt>
<trkpt lat="31.3089400" lon="35.3359100">
<ele>-1.000000</ele>
<time>2024-11-18T09:15:24.098Z</time>
</trkpt>
<trkpt lat="31.3090300" lon="35.3358600">
<ele>0.330000</ele>
<time>2024-11-18T09:15:24.098Z</time>
</trkpt>
<trkpt lat="31.3091500" lon="35.3358800">
<ele>1.480000</ele>
<time>2024-11-18T09:15:24.098Z</time>
</trkpt>
<trkpt lat="31.3092800" lon="35.3358000">
<ele>5.640000</ele>
<time>2024-11-18T09:15:24.098Z</time>
</trkpt>
<trkpt lat="31.3093900" lon="35.3357800">
<ele>8.360001</ele>
<time>2024-11-18T09:15:24.098Z</time>
</trkpt>
<trkpt lat="31.3095500" lon="35.3357600">
<ele>10.490001</ele>
<time>2024-11-18T09:15:24.098Z</time>
</trkpt>
<trkpt lat="31.3097100" lon="35.3357500">
<ele>11.530000</ele>
<time>2024-11-18T09:15:24.098Z</time>
</trkpt>
<trkpt lat="31.3098300" lon="35.3357000">
<ele>13.500000</ele>
<time>2024-11-18T09:15:24.098Z</time>
</trkpt>
<trkpt lat="31.3099100" lon="35.3357500">
<ele>14.030000</ele>
<time>2024-11-18T09:15:24.098Z</time>
</trkpt>
<trkpt lat="31.3100400" lon="35.3357200">
<ele>15.740000</ele>
<time>2024-11-18T09:15:24.098Z</time>
</trkpt>
<trkpt lat="31.3102000" lon="35.3356900">
<ele>16.389999</ele>
<time>2024-11-18T09:15:24.098Z</time>
</trkpt>
<trkpt lat="31.3103000" lon="35.3356300">
<ele>16.629999</ele>
<time>2024-11-18T09:15:24.098Z</time>
</trkpt>
<trkpt lat="31.3103800" lon="35.3355800">
<ele>16.510000</ele>
<time>2024-11-18T09:15:24.098Z</time>
</trkpt>
<trkpt lat="31.3105000" lon="35.3355800">
<ele>16.040001</ele>
<time>2024-11-18T09:15:24.098Z</time>
</trkpt>
<trkpt lat="31.3107100" lon="35.3356200">
<ele>15.660000</ele>
<time>2024-11-18T09:15:24.098Z</time>
</trkpt>
<trkpt lat="31.3111100" lon="35.3359000">
<ele>14.760000</ele>
<time>2024-11-18T09:15:24.098Z</time>
</trkpt>
<trkpt lat="31.3111900" lon="35.3359800">
<ele>14.309999</ele>
<time>2024-11-18T09:15:24.098Z</time>
</trkpt>
<trkpt lat="31.3112500" lon="35.3359600">
<ele>14.360001</ele>
<time>2024-11-18T09:15:24.098Z</time>
</trkpt>
<trkpt lat="31.3113000" lon="35.3359000">
<ele>14.950000</ele>
<time>2024-11-18T09:15:24.098Z</time>
</trkpt>
<trkpt lat="31.3111200" lon="35.3356600">
<ele>15.719999</ele>
<time>2024-11-18T09:15:24.098Z</time>
</trkpt>
<trkpt lat="31.3110300" lon="35.3354300">
<ele>17.809999</ele>
<time>2024-11-18T09:15:24.098Z</time>
</trkpt>
<trkpt lat="31.3108900" lon="35.3353100">
<ele>19.540001</ele>
<time>2024-11-18T09:15:24.098Z</time>
</trkpt>
<trkpt lat="31.3106700" lon="35.3352600">
<ele>20.320000</ele>
<time>2024-11-18T09:15:24.098Z</time>
</trkpt>
<trkpt lat="31.3105600" lon="35.3351900">
<ele>21.580000</ele>
<time>2024-11-18T09:15:24.098Z</time>
</trkpt>
<trkpt lat="31.3106000" lon="35.3351400">
<ele>22.480000</ele>
<time>2024-11-18T09:15:24.098Z</time>
</trkpt>
<trkpt lat="31.3107700" lon="35.3351800">
<ele>21.760000</ele>
<time>2024-11-18T09:15:24.098Z</time>
</trkpt>
<trkpt lat="31.3109600" lon="35.3352400">
<ele>20.870001</ele>
<time>2024-11-18T09:15:24.098Z</time>
</trkpt>
<trkpt lat="31.3112100" lon="35.3353700">
<ele>20.570000</ele>
<time>2024-11-18T09:15:24.098Z</time>
</trkpt>
<trkpt lat="31.3114800" lon="35.3354500">
<ele>23.090000</ele>
<time>2024-11-18T09:15:24.098Z</time>
</trkpt>
<trkpt lat="31.3118100" lon="35.3354700">
<ele>26.880001</ele>
<time>2024-11-18T09:15:24.098Z</time>
</trkpt>
<trkpt lat="31.3119900" lon="35.3353000">
<ele>28.710001</ele>
<time>2024-11-18T09:15:24.098Z</time>
</trkpt>
<trkpt lat="31.3121800" lon="35.3352700">
<ele>27.369999</ele>
<time>2024-11-18T09:15:24.098Z</time>
</trkpt>
<trkpt lat="31.3123100" lon="35.3354200">
<ele>30.740000</ele>
<time>2024-11-18T09:15:24.098Z</time>
</trkpt>
<trkpt lat="31.3124000" lon="35.3354300">
<ele>33.060001</ele>
<time>2024-11-18T09:15:24.098Z</time>
</trkpt>
<trkpt lat="31.3125700" lon="35.3354100">
<ele>36.760002</ele>
<time>2024-11-18T09:15:24.098Z</time>
</trkpt>
<trkpt lat="31.3125600" lon="35.3353600">
<ele>36.549999</ele>
<time>2024-11-18T09:15:24.098Z</time>
</trkpt>
<trkpt lat="31.3123000" lon="35.3352200">
<ele>29.809999</ele>
<time>2024-11-18T09:15:24.098Z</time>
</trkpt>
<trkpt lat="31.3123100" lon="35.3351700">
<ele>30.570000</ele>
<time>2024-11-18T09:15:24.098Z</time>
</trkpt>
<trkpt lat="31.3123800" lon="35.3351700">
<ele>32.490002</ele>
<time>2024-11-18T09:15:24.098Z</time>
</trkpt>
<trkpt lat="31.3126900" lon="35.3352800">
<ele>39.770000</ele>
<time>2024-11-18T09:15:24.098Z</time>
</trkpt>
<trkpt lat="31.3128100" lon="35.3352700">
<ele>42.660000</ele>
<time>2024-11-18T09:15:24.098Z</time>
</trkpt>
<trkpt lat="31.3127000" lon="35.3351600">
<ele>40.890003</ele>
<time>2024-11-18T09:15:24.098Z</time>
</trkpt>
<trkpt lat="31.3125800" lon="35.3350800">
<ele>38.439999</ele>
<time>2024-11-18T09:15:24.098Z</time>
</trkpt>
<trkpt lat="31.3124900" lon="35.3349400">
<ele>37.410000</ele>
<time>2024-11-18T09:15:24.098Z</time>
</trkpt>
<trkpt lat="31.3125300" lon="35.3349000">
<ele>38.799999</ele>
<time>2024-11-18T09:15:24.098Z</time>
</trkpt>
<trkpt lat="31.3126200" lon="35.3350000">
<ele>40.020000</ele>
<time>2024-11-18T09:15:24.098Z</time>
</trkpt>
<trkpt lat="31.3127800" lon="35.3350700">
<ele>43.570000</ele>
<time>2024-11-18T09:15:24.098Z</time>
</trkpt>
<trkpt lat="31.3129500" lon="35.3350900">
<ele>48.970001</ele>
<time>2024-11-18T09:15:24.098Z</time>
</trkpt>
<trkpt lat="31.3131800" lon="35.3351500">
<ele>51.130001</ele>
<time>2024-11-18T09:15:24.098Z</time>
</trkpt>
<trkpt lat="31.3132000" lon="35.3351000">
<ele>52.639999</ele>
<time>2024-11-18T09:15:24.098Z</time>
</trkpt>
<trkpt lat="31.3131000" lon="35.3349800">
<ele>55.210003</ele>
<time>2024-11-18T09:15:24.098Z</time>
</trkpt>
<trkpt lat="31.3128700" lon="35.3348200">
<ele>48.520000</ele>
<time>2024-11-18T09:15:24.098Z</time>
</trkpt>
<trkpt lat="31.3127400" lon="35.3346800">
<ele>46.570000</ele>
<time>2024-11-18T09:15:24.098Z</time>
</trkpt>
<trkpt lat="31.3127800" lon="35.3346400">
<ele>48.719997</ele>
<time>2024-11-18T09:15:24.098Z</time>
</trkpt>
<trkpt lat="31.3128700" lon="35.3346700">
<ele>50.309998</ele>
<time>2024-11-18T09:15:24.098Z</time>
</trkpt>
<trkpt lat="31.3129600" lon="35.3347500">
<ele>51.840000</ele>
<time>2024-11-18T09:15:24.098Z</time>
</trkpt>
<trkpt lat="31.3132900" lon="35.3348600">
<ele>57.549999</ele>
<time>2024-11-18T09:15:24.098Z</time>
</trkpt>
<trkpt lat="31.3133200" lon="35.3348400">
<ele>58.149998</ele>
<time>2024-11-18T09:15:24.098Z</time>
</trkpt>
<trkpt lat="31.3131300" lon="35.3346700">
<ele>57.109997</ele>
<time>2024-11-18T09:15:24.098Z</time>
</trkpt>
<trkpt lat="31.3129800" lon="35.3345400">
<ele>55.590004</ele>
<time>2024-11-18T09:15:24.098Z</time>
</trkpt>
<trkpt lat="31.3130400" lon="35.3345200">
<ele>56.920002</ele>
<time>2024-11-18T09:15:24.098Z</time>
</trkpt>
<trkpt lat="31.3132000" lon="35.3346000">
<ele>59.840000</ele>
<time>2024-11-18T09:15:24.098Z</time>
</trkpt>
<trkpt lat="31.3134400" lon="35.3346300">
<ele>63.990002</ele>
<time>2024-11-18T09:15:24.098Z</time>
</trkpt>
<trkpt lat="31.3134800" lon="35.3346300">
<ele>64.610001</ele>
<time>2024-11-18T09:15:24.098Z</time>
</trkpt>
<trkpt lat="31.3135100" lon="35.3345500">
<ele>67.279999</ele>
<time>2024-11-18T09:15:24.098Z</time>
</trkpt>
<trkpt lat="31.3133200" lon="35.3344600">
<ele>66.190002</ele>
<time>2024-11-18T09:15:24.098Z</time>
</trkpt>
<trkpt lat="31.3133500" lon="35.3344200">
<ele>67.839996</ele>
<time>2024-11-18T09:15:24.098Z</time>
</trkpt>
<trkpt lat="31.3134400" lon="35.3343900">
<ele>70.320000</ele>
<time>2024-11-18T09:15:24.098Z</time>
</trkpt>
<trkpt lat="31.3135400" lon="35.3344600">
<ele>70.290001</ele>
<time>2024-11-18T09:15:24.098Z</time>
</trkpt>
<trkpt lat="31.3136600" lon="35.3344500">
<ele>72.370003</ele>
<time>2024-11-18T09:15:24.098Z</time>
</trkpt>
<trkpt lat="31.3138400" lon="35.3344700">
<ele>73.739998</ele>
<time>2024-11-18T09:15:24.098Z</time>
</trkpt>
<trkpt lat="31.3142200" lon="35.3346600">
<ele>72.160004</ele>
<time>2024-11-18T09:15:24.098Z</time>
</trkpt>
<trkpt lat="31.3143400" lon="35.3347000">
<ele>72.860001</ele>
<time>2024-11-18T09:15:24.098Z</time>
</trkpt>
<trkpt lat="31.3143600" lon="35.3347500">
<ele>72.510002</ele>
<time>2024-11-18T09:15:24.098Z</time>
</trkpt>
<trkpt lat="31.3143000" lon="35.3349000">
<ele>70.330002</ele>
<time>2024-11-18T09:15:24.098Z</time>
</trkpt>
<trkpt lat="31.3144100" lon="35.3350800">
<ele>70.739998</ele>
<time>2024-11-18T09:15:24.098Z</time>
</trkpt>
<trkpt lat="31.3146500" lon="35.3353600">
<ele>70.410004</ele>
<time>2024-11-18T09:15:24.098Z</time>
</trkpt>
<trkpt lat="31.3150000" lon="35.3354200">
<ele>69.459999</ele>
<time>2024-11-18T09:15:24.098Z</time>
</trkpt>
<trkpt lat="31.3152700" lon="35.3354900">
<ele>69.400002</ele>
<time>2024-11-18T09:15:24.098Z</time>
</trkpt>
<trkpt lat="31.3153800" lon="35.3355200">
<ele>68.349998</ele>
<time>2024-11-18T09:15:24.098Z</time>
</trkpt>
<trkpt lat="31.3157700" lon="35.3357300">
<ele>61.509998</ele>
<time>2024-11-18T09:15:24.098Z</time>
</trkpt>
<trkpt lat="31.3159700" lon="35.3360500">
<ele>61.770000</ele>
<time>2024-11-18T09:15:24.098Z</time>
</trkpt>
<trkpt lat="31.3160600" lon="35.3361200">
<ele>62.649998</ele>
<time>2024-11-18T09:15:24.098Z</time>
</trkpt>
<trkpt lat="31.3162600" lon="35.3360700">
<ele>62.779999</ele>
<time>2024-11-18T09:15:24.098Z</time>
</trkpt>
<trkpt lat="31.3164700" lon="35.3361600">
<ele>61.739998</ele>
<time>2024-11-18T09:15:24.098Z</time>
</trkpt>
<trkpt lat="31.3167800" lon="35.3363800">
<ele>53.940002</ele>
<time>2024-11-18T09:15:24.098Z</time>
</trkpt>
<trkpt lat="31.3169600" lon="35.3366400">
<ele>52.289997</ele>
<time>2024-11-18T09:15:24.098Z</time>
</trkpt>
<trkpt lat="31.3170200" lon="35.3369000">
<ele>52.599998</ele>
<time>2024-11-18T09:15:24.098Z</time>
</trkpt>
<trkpt lat="31.3170200" lon="35.3369000">
<ele>52.599998</ele>
<time>2024-11-18T09:15:24.098Z</time>
</trkpt>
<trkpt lat="31.3170200" lon="35.3369000">
<ele>52.599998</ele>
<time>2024-11-18T09:15:24.098Z</time>
</trkpt>
<trkpt lat="31.3170400" lon="35.3370300">
<ele>51.899998</ele>
<time>2024-11-18T09:15:24.098Z</time>
</trkpt>
<trkpt lat="31.3170100" lon="35.3373200">
<ele>49.619999</ele>
<time>2024-11-18T09:15:24.098Z</time>
</trkpt>
<trkpt lat="31.3169000" lon="35.3375200">
<ele>47.549999</ele>
<time>2024-11-18T09:15:24.098Z</time>
</trkpt>
<trkpt lat="31.3168000" lon="35.3379400">
<ele>47.160000</ele>
<time>2024-11-18T09:15:24.098Z</time>
</trkpt>
<trkpt lat="31.3167200" lon="35.3380200">
<ele>49.459999</ele>
<time>2024-11-18T09:15:24.098Z</time>
</trkpt>
<trkpt lat="31.3166600" lon="35.3383800">
<ele>46.660000</ele>
<time>2024-11-18T09:15:24.098Z</time>
</trkpt>
<trkpt lat="31.3165800" lon="35.3386100">
<ele>40.649998</ele>
<time>2024-11-18T09:15:24.098Z</time>
</trkpt>
<trkpt lat="31.3164800" lon="35.3388700">
<ele>35.770000</ele>
<time>2024-11-18T09:15:24.098Z</time>
</trkpt>
<trkpt lat="31.3164600" lon="35.3391900">
<ele>32.270000</ele>
<time>2024-11-18T09:15:24.098Z</time>
</trkpt>
<trkpt lat="31.3163500" lon="35.3394100">
<ele>33.469997</ele>
<time>2024-11-18T09:15:24.098Z</time>
</trkpt>
<trkpt lat="31.3164700" lon="35.3393300">
<ele>30.900000</ele>
<time>2024-11-18T09:15:24.098Z</time>
</trkpt>
<trkpt lat="31.3165100" lon="35.3392800">
<ele>30.390001</ele>
<time>2024-11-18T09:15:24.098Z</time>
</trkpt>
<trkpt lat="31.3166200" lon="35.3390700">
<ele>30.340000</ele>
<time>2024-11-18T09:15:24.098Z</time>
</trkpt>
<trkpt lat="31.3167200" lon="35.3386800">
<ele>37.820000</ele>
<time>2024-11-18T09:15:24.098Z</time>
</trkpt>
<trkpt lat="31.3167800" lon="35.3386500">
<ele>38.110001</ele>
<time>2024-11-18T09:15:24.098Z</time>
</trkpt>
<trkpt lat="31.3167500" lon="35.3388600">
<ele>34.079998</ele>
<time>2024-11-18T09:15:24.098Z</time>
</trkpt>
<trkpt lat="31.3167100" lon="35.3390700">
<ele>30.170000</ele>
<time>2024-11-18T09:15:24.098Z</time>
</trkpt>
<trkpt lat="31.3166200" lon="35.3393400">
<ele>27.240000</ele>
<time>2024-11-18T09:15:24.098Z</time>
</trkpt>
<trkpt lat="31.3165300" lon="35.3395200">
<ele>28.990000</ele>
<time>2024-11-18T09:15:24.098Z</time>
</trkpt>
<trkpt lat="31.3162900" lon="35.3396800">
<ele>35.690002</ele>
<time>2024-11-18T09:15:24.098Z</time>
</trkpt>
<trkpt lat="31.3160700" lon="35.3398200">
<ele>37.730000</ele>
<time>2024-11-18T09:15:24.098Z</time>
</trkpt>
<trkpt lat="31.3158900" lon="35.3399100">
<ele>36.270000</ele>
<time>2024-11-18T09:15:24.098Z</time>
</trkpt>
<trkpt lat="31.3158600" lon="35.3401900">
<ele>29.309999</ele>
<time>2024-11-18T09:15:24.098Z</time>
</trkpt>
<trkpt lat="31.3158200" lon="35.3401800">
<ele>29.590000</ele>
<time>2024-11-18T09:15:24.098Z</time>
</trkpt>
<trkpt lat="31.3157900" lon="35.3398100">
<ele>38.360001</ele>
<time>2024-11-18T09:15:24.098Z</time>
</trkpt>
<trkpt lat="31.3157500" lon="35.3398100">
<ele>37.970001</ele>
<time>2024-11-18T09:15:24.098Z</time>
</trkpt>
<trkpt lat="31.3157200" lon="35.3398800">
<ele>36.320000</ele>
<time>2024-11-18T09:15:24.098Z</time>
</trkpt>
<trkpt lat="31.3157500" lon="35.3401000">
<ele>31.910002</ele>
<time>2024-11-18T09:15:24.098Z</time>
</trkpt>
<trkpt lat="31.3157100" lon="35.3402700">
<ele>28.920000</ele>
<time>2024-11-18T09:15:24.098Z</time>
</trkpt>
<trkpt lat="31.3155100" lon="35.3406000">
<ele>31.730000</ele>
<time>2024-11-18T09:15:24.098Z</time>
</trkpt>
<trkpt lat="31.3153600" lon="35.3407400">
<ele>33.040001</ele>
<time>2024-11-18T09:15:24.098Z</time>
</trkpt>
<trkpt lat="31.3154300" lon="35.3407900">
<ele>32.900002</ele>
<time>2024-11-18T09:15:24.098Z</time>
</trkpt>
<trkpt lat="31.3155200" lon="35.3408200">
<ele>32.919998</ele>
<time>2024-11-18T09:15:24.098Z</time>
</trkpt>
<trkpt lat="31.3156800" lon="35.3407900">
<ele>30.379999</ele>
<time>2024-11-18T09:15:24.098Z</time>
</trkpt>
<trkpt lat="31.3159400" lon="35.3406800">
<ele>26.440001</ele>
<time>2024-11-18T09:15:24.098Z</time>
</trkpt>
<trkpt lat="31.3159700" lon="35.3406700">
<ele>26.270000</ele>
<time>2024-11-18T09:15:24.098Z</time>
</trkpt>
<trkpt lat="31.3160400" lon="35.3406500">
<ele>25.799999</ele>
<time>2024-11-18T09:15:24.098Z</time>
</trkpt>
<trkpt lat="31.3160700" lon="35.3406700">
<ele>26.289999</ele>
<time>2024-11-18T09:15:24.098Z</time>
</trkpt>
<trkpt lat="31.3161100" lon="35.3407200">
<ele>27.730000</ele>
<time>2024-11-18T09:15:24.098Z</time>
</trkpt>
<trkpt lat="31.3161100" lon="35.3408000">
<ele>30.029999</ele>
<time>2024-11-18T09:15:24.098Z</time>
</trkpt>
<trkpt lat="31.3160600" lon="35.3409700">
<ele>31.789999</ele>
<time>2024-11-18T09:15:24.098Z</time>
</trkpt>
<trkpt lat="31.3159100" lon="35.3410400">
<ele>32.470001</ele>
<time>2024-11-18T09:15:24.098Z</time>
</trkpt>
<trkpt lat="31.3158700" lon="35.3411200">
<ele>33.770000</ele>
<time>2024-11-18T09:15:24.098Z</time>
</trkpt>
<trkpt lat="31.3158400" lon="35.3412800">
<ele>31.650002</ele>
<time>2024-11-18T09:15:24.098Z</time>
</trkpt>
<trkpt lat="31.3157500" lon="35.3415100">
<ele>30.730001</ele>
<time>2024-11-18T09:15:24.098Z</time>
</trkpt>
<trkpt lat="31.3157700" lon="35.3416700">
<ele>30.799999</ele>
<time>2024-11-18T09:15:24.098Z</time>
</trkpt>
<trkpt lat="31.3157700" lon="35.3418500">
<ele>27.500000</ele>
<time>2024-11-18T09:15:24.098Z</time>
</trkpt>
<trkpt lat="31.3157800" lon="35.3418800">
<ele>27.020000</ele>
<time>2024-11-18T09:15:24.098Z</time>
</trkpt>
<trkpt lat="31.3157800" lon="35.3418800">
<ele>27.020000</ele>
<time>2024-11-18T09:15:24.098Z</time>
</trkpt>
<trkpt lat="31.3157800" lon="35.3418800">
<ele>27.020000</ele>
<time>2024-11-18T09:15:24.098Z</time>
</trkpt>
<trkpt lat="31.3158300" lon="35.3420800">
<ele>19.680000</ele>
<time>2024-11-18T09:15:24.098Z</time>
</trkpt>
<trkpt lat="31.3159600" lon="35.3422200">
<ele>15.379999</ele>
<time>2024-11-18T09:15:24.098Z</time>
</trkpt>
<trkpt lat="31.3162000" lon="35.3421800">
<ele>22.949999</ele>
<time>2024-11-18T09:15:24.098Z</time>
</trkpt>
<trkpt lat="31.3164600" lon="35.3421400">
<ele>30.080002</ele>
<time>2024-11-18T09:15:24.098Z</time>
</trkpt>
<trkpt lat="31.3165900" lon="35.3421500">
<ele>29.689999</ele>
<time>2024-11-18T09:15:24.098Z</time>
</trkpt>
<trkpt lat="31.3166500" lon="35.3421500">
<ele>29.590000</ele>
<time>2024-11-18T09:15:24.098Z</time>
</trkpt>
<trkpt lat="31.3167200" lon="35.3421000">
<ele>31.010000</ele>
<time>2024-11-18T09:15:24.098Z</time>
</trkpt>
<trkpt lat="31.3167700" lon="35.3420600">
<ele>31.840000</ele>
<time>2024-11-18T09:15:24.098Z</time>
</trkpt>
<trkpt lat="31.3168200" lon="35.3420400">
<ele>32.160000</ele>
<time>2024-11-18T09:15:24.098Z</time>
</trkpt>
<trkpt lat="31.3168600" lon="35.3420500">
<ele>32.180000</ele>
<time>2024-11-18T09:15:24.098Z</time>
</trkpt>
<trkpt lat="31.3169100" lon="35.3421400">
<ele>32.340000</ele>
<time>2024-11-18T09:15:24.098Z</time>
</trkpt>
<trkpt lat="31.3170400" lon="35.3421200">
<ele>33.410000</ele>
<time>2024-11-18T09:15:24.098Z</time>
</trkpt>
<trkpt lat="31.3170900" lon="35.3420500">
<ele>33.299999</ele>
<time>2024-11-18T09:15:24.098Z</time>
</trkpt>
<trkpt lat="31.3170800" lon="35.3419300">
<ele>32.490002</ele>
<time>2024-11-18T09:15:24.098Z</time>
</trkpt>
<trkpt lat="31.3171100" lon="35.3418800">
<ele>32.549999</ele>
<time>2024-11-18T09:15:24.098Z</time>
</trkpt>
<trkpt lat="31.3171900" lon="35.3418700">
<ele>32.680000</ele>
<time>2024-11-18T09:15:24.098Z</time>
</trkpt>
<trkpt lat="31.3172700" lon="35.3418200">
<ele>33.410000</ele>
<time>2024-11-18T09:15:24.098Z</time>
</trkpt>
<trkpt lat="31.3173400" lon="35.3417100">
<ele>34.279999</ele>
<time>2024-11-18T09:15:24.098Z</time>
</trkpt>
<trkpt lat="31.3174900" lon="35.3415100">
<ele>36.840000</ele>
<time>2024-11-18T09:15:24.098Z</time>
</trkpt>
<trkpt lat="31.3176400" lon="35.3412100">
<ele>40.020000</ele>
<time>2024-11-18T09:15:24.098Z</time>
</trkpt>
<trkpt lat="31.3178000" lon="35.3410200">
<ele>41.910000</ele>
<time>2024-11-18T09:15:24.098Z</time>
</trkpt>
<trkpt lat="31.3181700" lon="35.3409700">
<ele>44.710003</ele>
<time>2024-11-18T09:15:24.098Z</time>
</trkpt>
<trkpt lat="31.3184900" lon="35.3409800">
<ele>44.920002</ele>
<time>2024-11-18T09:15:24.098Z</time>
</trkpt>
<trkpt lat="31.3187400" lon="35.3410300">
<ele>45.380001</ele>
<time>2024-11-18T09:15:24.098Z</time>
</trkpt>
<trkpt lat="31.3187800" lon="35.3410400">
<ele>45.570000</ele>
<time>2024-11-18T09:15:24.098Z</time>
</trkpt>
<trkpt lat="31.3187800" lon="35.3410400">
<ele>45.570000</ele>
<time>2024-11-18T09:15:24.098Z</time>
</trkpt>
<trkpt lat="31.3187800" lon="35.3410400">
<ele>45.570000</ele>
<time>2024-11-18T09:15:24.098Z</time>
</trkpt>
<trkpt lat="31.3193700" lon="35.3411800">
<ele>49.480000</ele>
<time>2024-11-18T09:15:24.098Z</time>
</trkpt>
<trkpt lat="31.3194600" lon="35.3412200">
<ele>49.779999</ele>
<time>2024-11-18T09:15:24.098Z</time>
</trkpt>
<trkpt lat="31.3195800" lon="35.3412900">
<ele>50.820000</ele>
<time>2024-11-18T09:15:24.098Z</time>
</trkpt>
<trkpt lat="31.3197200" lon="35.3414000">
<ele>51.940002</ele>
<time>2024-11-18T09:15:24.098Z</time>
</trkpt>
<trkpt lat="31.3198300" lon="35.3414500">
<ele>51.000000</ele>
<time>2024-11-18T09:15:24.098Z</time>
</trkpt>
<trkpt lat="31.3199000" lon="35.3414500">
<ele>50.500000</ele>
<time>2024-11-18T09:15:24.098Z</time>
</trkpt>
<trkpt lat="31.3199800" lon="35.3414200">
<ele>50.030003</ele>
<time>2024-11-18T09:15:24.098Z</time>
</trkpt>
<trkpt lat="31.3201100" lon="35.3413000">
<ele>51.430000</ele>
<time>2024-11-18T09:15:24.098Z</time>
</trkpt>
<trkpt lat="31.3203200" lon="35.3411700">
<ele>53.909996</ele>
<time>2024-11-18T09:15:24.098Z</time>
</trkpt>
<trkpt lat="31.3204700" lon="35.3411300">
<ele>55.300003</ele>
<time>2024-11-18T09:15:24.098Z</time>
</trkpt>
<trkpt lat="31.3212800" lon="35.3411300">
<ele>57.290001</ele>
<time>2024-11-18T09:15:24.098Z</time>
</trkpt>
<trkpt lat="31.3214400" lon="35.3412000">
<ele>60.219997</ele>
<time>2024-11-18T09:15:24.098Z</time>
</trkpt>
<trkpt lat="31.3217800" lon="35.3412600">
<ele>60.200001</ele>
<time>2024-11-18T09:15:24.098Z</time>
</trkpt>
<trkpt lat="31.3223800" lon="35.3412700">
<ele>60.570000</ele>
<time>2024-11-18T09:15:24.098Z</time>
</trkpt>
<trkpt lat="31.3225600" lon="35.3413100">
<ele>60.780003</ele>
<time>2024-11-18T09:15:24.098Z</time>
</trkpt>
<trkpt lat="31.3227400" lon="35.3413900">
<ele>61.010002</ele>
<time>2024-11-18T09:15:24.098Z</time>
</trkpt>
<trkpt lat="31.3228900" lon="35.3414800">
<ele>61.599998</ele>
<time>2024-11-18T09:15:24.098Z</time>
</trkpt>
<trkpt lat="31.3230500" lon="35.3416200">
<ele>62.000000</ele>
<time>2024-11-18T09:15:24.098Z</time>
</trkpt>
<trkpt lat="31.3231800" lon="35.3418200">
<ele>60.100002</ele>
<time>2024-11-18T09:15:24.098Z</time>
</trkpt>
<trkpt lat="31.3233500" lon="35.3423100">
<ele>59.119999</ele>
<time>2024-11-18T09:15:24.098Z</time>
</trkpt>
<trkpt lat="31.3234600" lon="35.3427800">
<ele>59.660000</ele>
<time>2024-11-18T09:15:24.098Z</time>
</trkpt>
<trkpt lat="31.3236100" lon="35.3430400">
<ele>60.839996</ele>
<time>2024-11-18T09:15:24.098Z</time>
</trkpt>
<trkpt lat="31.3237300" lon="35.3431600">
<ele>61.059998</ele>
<time>2024-11-18T09:15:24.098Z</time>
</trkpt>
<trkpt lat="31.3239200" lon="35.3432400">
<ele>59.689999</ele>
<time>2024-11-18T09:15:24.098Z</time>
</trkpt>
<trkpt lat="31.3251600" lon="35.3434900">
<ele>52.889999</ele>
<time>2024-11-18T09:15:24.098Z</time>
</trkpt>
<trkpt lat="31.3252800" lon="35.3435500">
<ele>51.740002</ele>
<time>2024-11-18T09:15:24.098Z</time>
</trkpt>
<trkpt lat="31.3253700" lon="35.3436500">
<ele>50.249996</ele>
<time>2024-11-18T09:15:24.098Z</time>
</trkpt>
<trkpt lat="31.3259100" lon="35.3445600">
<ele>46.250000</ele>
<time>2024-11-18T09:15:24.098Z</time>
</trkpt>
<trkpt lat="31.3259500" lon="35.3447000">
<ele>46.310001</ele>
<time>2024-11-18T09:15:24.098Z</time>
</trkpt>
<trkpt lat="31.3259800" lon="35.3449300">
<ele>46.579998</ele>
<time>2024-11-18T09:15:24.098Z</time>
</trkpt>
<trkpt lat="31.3259000" lon="35.3451500">
<ele>45.330002</ele>
<time>2024-11-18T09:15:24.098Z</time>
</trkpt>
<trkpt lat="31.3259300" lon="35.3452400">
<ele>45.139999</ele>
<time>2024-11-18T09:15:24.098Z</time>
</trkpt>
<trkpt lat="31.3260800" lon="35.3453200">
<ele>44.119999</ele>
<time>2024-11-18T09:15:24.098Z</time>
</trkpt>
<trkpt lat="31.3262500" lon="35.3454100">
<ele>41.380001</ele>
<time>2024-11-18T09:15:24.098Z</time>
</trkpt>
<trkpt lat="31.3262500" lon="35.3455800">
<ele>38.189999</ele>
<time>2024-11-18T09:15:24.098Z</time>
</trkpt>
<trkpt lat="31.3262900" lon="35.3456400">
<ele>37.160000</ele>
<time>2024-11-18T09:15:24.098Z</time>
</trkpt>
<trkpt lat="31.3263800" lon="35.3456700">
<ele>36.009998</ele>
<time>2024-11-18T09:15:24.098Z</time>
</trkpt>
<trkpt lat="31.3264500" lon="35.3456800">
<ele>34.779999</ele>
<time>2024-11-18T09:15:24.098Z</time>
</trkpt>
<trkpt lat="31.3264700" lon="35.3458600">
<ele>31.179998</ele>
<time>2024-11-18T09:15:24.098Z</time>
</trkpt>
<trkpt lat="31.3266400" lon="35.3460700">
<ele>25.840000</ele>
<time>2024-11-18T09:15:24.098Z</time>
</trkpt>
<trkpt lat="31.3266400" lon="35.3461800">
<ele>25.039999</ele>
<time>2024-11-18T09:15:24.098Z</time>
</trkpt>
<trkpt lat="31.3266100" lon="35.3463700">
<ele>24.119999</ele>
<time>2024-11-18T09:15:24.098Z</time>
</trkpt>
<trkpt lat="31.3266000" lon="35.3465300">
<ele>21.459999</ele>
<time>2024-11-18T09:15:24.098Z</time>
</trkpt>
<trkpt lat="31.3268200" lon="35.3467800">
<ele>-3.020000</ele>
<time>2024-11-18T09:15:24.098Z</time>
</trkpt>
<trkpt lat="31.3268200" lon="35.3467800">
<ele>-3.020000</ele>
<time>2024-11-18T09:15:24.098Z</time>
</trkpt>
<trkpt lat="31.3268200" lon="35.3467800">
<ele>-3.020000</ele>
<time>2024-11-18T09:15:24.098Z</time>
</trkpt>
<trkpt lat="31.3266000" lon="35.3465300">
<ele>21.459999</ele>
<time>2024-11-18T09:15:24.098Z</time>
</trkpt>
<trkpt lat="31.3266100" lon="35.3463700">
<ele>24.119999</ele>
<time>2024-11-18T09:15:24.098Z</time>
</trkpt>
<trkpt lat="31.3266400" lon="35.3461800">
<ele>25.039999</ele>
<time>2024-11-18T09:15:24.098Z</time>
</trkpt>
<trkpt lat="31.3266400" lon="35.3460700">
<ele>25.840000</ele>
<time>2024-11-18T09:15:24.098Z</time>
</trkpt>
<trkpt lat="31.3264700" lon="35.3458600">
<ele>31.179998</ele>
<time>2024-11-18T09:15:24.098Z</time>
</trkpt>
<trkpt lat="31.3264500" lon="35.3456800">
<ele>34.779999</ele>
<time>2024-11-18T09:15:24.098Z</time>
</trkpt>
<trkpt lat="31.3263800" lon="35.3456700">
<ele>36.009998</ele>
<time>2024-11-18T09:15:24.098Z</time>
</trkpt>
<trkpt lat="31.3262900" lon="35.3456400">
<ele>37.160000</ele>
<time>2024-11-18T09:15:24.098Z</time>
</trkpt>
<trkpt lat="31.3262500" lon="35.3455800">
<ele>38.189999</ele>
<time>2024-11-18T09:15:24.098Z</time>
</trkpt>
<trkpt lat="31.3262500" lon="35.3454100">
<ele>41.380001</ele>
<time>2024-11-18T09:15:24.098Z</time>
</trkpt>
<trkpt lat="31.3260800" lon="35.3453200">
<ele>44.119999</ele>
<time>2024-11-18T09:15:24.098Z</time>
</trkpt>
<trkpt lat="31.3259300" lon="35.3452400">
<ele>45.139999</ele>
<time>2024-11-18T09:15:24.098Z</time>
</trkpt>
<trkpt lat="31.3259000" lon="35.3451500">
<ele>45.330002</ele>
<time>2024-11-18T09:15:24.098Z</time>
</trkpt>
<trkpt lat="31.3259800" lon="35.3449300">
<ele>46.579998</ele>
<time>2024-11-18T09:15:24.098Z</time>
</trkpt>
<trkpt lat="31.3259500" lon="35.3447000">
<ele>46.310001</ele>
<time>2024-11-18T09:15:24.098Z</time>
</trkpt>
<trkpt lat="31.3259100" lon="35.3445600">
<ele>46.250000</ele>
<time>2024-11-18T09:15:24.098Z</time>
</trkpt>
<trkpt lat="31.3253700" lon="35.3436500">
<ele>50.249996</ele>
<time>2024-11-18T09:15:24.098Z</time>
</trkpt>
<trkpt lat="31.3252800" lon="35.3435500">
<ele>51.740002</ele>
<time>2024-11-18T09:15:24.098Z</time>
</trkpt>
<trkpt lat="31.3251600" lon="35.3434900">
<ele>52.889999</ele>
<time>2024-11-18T09:15:24.098Z</time>
</trkpt>
<trkpt lat="31.3239200" lon="35.3432400">
<ele>59.689999</ele>
<time>2024-11-18T09:15:24.098Z</time>
</trkpt>
<trkpt lat="31.3237300" lon="35.3431600">
<ele>61.059998</ele>
<time>2024-11-18T09:15:24.098Z</time>
</trkpt>
<trkpt lat="31.3236100" lon="35.3430400">
<ele>60.839996</ele>
<time>2024-11-18T09:15:24.098Z</time>
</trkpt>
<trkpt lat="31.3234600" lon="35.3427800">
<ele>59.660000</ele>
<time>2024-11-18T09:15:24.098Z</time>
</trkpt>
<trkpt lat="31.3233500" lon="35.3423100">
<ele>59.119999</ele>
<time>2024-11-18T09:15:24.098Z</time>
</trkpt>
<trkpt lat="31.3231800" lon="35.3418200">
<ele>60.100002</ele>
<time>2024-11-18T09:15:24.098Z</time>
</trkpt>
<trkpt lat="31.3230500" lon="35.3416200">
<ele>62.000000</ele>
<time>2024-11-18T09:15:24.098Z</time>
</trkpt>
<trkpt lat="31.3228900" lon="35.3414800">
<ele>61.599998</ele>
<time>2024-11-18T09:15:24.098Z</time>
</trkpt>
<trkpt lat="31.3227400" lon="35.3413900">
<ele>61.010002</ele>
<time>2024-11-18T09:15:24.098Z</time>
</trkpt>
<trkpt lat="31.3225600" lon="35.3413100">
<ele>60.780003</ele>
<time>2024-11-18T09:15:24.098Z</time>
</trkpt>
<trkpt lat="31.3223800" lon="35.3412700">
<ele>60.570000</ele>
<time>2024-11-18T09:15:24.098Z</time>
</trkpt>
<trkpt lat="31.3217800" lon="35.3412600">
<ele>60.200001</ele>
<time>2024-11-18T09:15:24.098Z</time>
</trkpt>
<trkpt lat="31.3214400" lon="35.3412000">
<ele>60.219997</ele>
<time>2024-11-18T09:15:24.098Z</time>
</trkpt>
<trkpt lat="31.3212800" lon="35.3411300">
<ele>57.290001</ele>
<time>2024-11-18T09:15:24.098Z</time>
</trkpt>
<trkpt lat="31.3204700" lon="35.3411300">
<ele>55.300003</ele>
<time>2024-11-18T09:15:24.098Z</time>
</trkpt>
<trkpt lat="31.3203200" lon="35.3411700">
<ele>53.909996</ele>
<time>2024-11-18T09:15:24.098Z</time>
</trkpt>
<trkpt lat="31.3201100" lon="35.3413000">
<ele>51.430000</ele>
<time>2024-11-18T09:15:24.098Z</time>
</trkpt>
<trkpt lat="31.3199800" lon="35.3414200">
<ele>50.030003</ele>
<time>2024-11-18T09:15:24.098Z</time>
</trkpt>
<trkpt lat="31.3199000" lon="35.3414500">
<ele>50.500000</ele>
<time>2024-11-18T09:15:24.098Z</time>
</trkpt>
<trkpt lat="31.3198300" lon="35.3414500">
<ele>51.000000</ele>
<time>2024-11-18T09:15:24.098Z</time>
</trkpt>
<trkpt lat="31.3197200" lon="35.3414000">
<ele>51.940002</ele>
<time>2024-11-18T09:15:24.098Z</time>
</trkpt>
<trkpt lat="31.3195800" lon="35.3412900">
<ele>50.820000</ele>
<time>2024-11-18T09:15:24.098Z</time>
</trkpt>
<trkpt lat="31.3184500" lon="35.3429500">
<ele>39.760002</ele>
<time>2024-11-18T09:15:24.098Z</time>
</trkpt>
<trkpt lat="31.3182700" lon="35.3432600">
<ele>38.799999</ele>
<time>2024-11-18T09:15:24.098Z</time>
</trkpt>
<trkpt lat="31.3179800" lon="35.3438700">
<ele>31.040001</ele>
<time>2024-11-18T09:15:24.098Z</time>
</trkpt>
<trkpt lat="31.3179800" lon="35.3438700">
<ele>31.040001</ele>
<time>2024-11-18T09:15:24.098Z</time>
</trkpt>
<trkpt lat="31.3179800" lon="35.3438700">
<ele>31.040001</ele>
<time>2024-11-18T09:15:24.098Z</time>
</trkpt>
<trkpt lat="31.3174800" lon="35.3449400">
<ele>12.650000</ele>
<time>2024-11-18T09:15:24.098Z</time>
</trkpt>
<trkpt lat="31.3172600" lon="35.3454500">
<ele>3.720000</ele>
<time>2024-11-18T09:15:24.098Z</time>
</trkpt>
<trkpt lat="31.3171300" lon="35.3458200">
<ele>-1.040000</ele>
<time>2024-11-18T09:15:24.098Z</time>
</trkpt>
<trkpt lat="31.3170300" lon="35.3462600">
<ele>-2.920000</ele>
<time>2024-11-18T09:15:24.098Z</time>
</trkpt>
<trkpt lat="31.3170100" lon="35.3466700">
<ele>-4.170000</ele>
<time>2024-11-18T09:15:24.098Z</time>
</trkpt>
<trkpt lat="31.3169900" lon="35.3470100">
<ele>-3.290000</ele>
<time>2024-11-18T09:15:24.098Z</time>
</trkpt>
<trkpt lat="31.3170000" lon="35.3471300">
<ele>-3.070000</ele>
<time>2024-11-18T09:15:24.098Z</time>
</trkpt>
<trkpt lat="31.3170200" lon="35.3472100">
<ele>-3.120000</ele>
<time>2024-11-18T09:15:24.098Z</time>
</trkpt>
<trkpt lat="31.3170700" lon="35.3472900">
<ele>-4.780000</ele>
<time>2024-11-18T09:15:24.098Z</time>
</trkpt>
<trkpt lat="31.3171500" lon="35.3473200">
<ele>-6.370000</ele>
<time>2024-11-18T09:15:24.098Z</time>
</trkpt>
<trkpt lat="31.3172100" lon="35.3473100">
<ele>-7.090000</ele>
<time>2024-11-18T09:15:24.098Z</time>
</trkpt>
<trkpt lat="31.3172600" lon="35.3472800">
<ele>-6.990000</ele>
<time>2024-11-18T09:15:24.098Z</time>
</trkpt>
<trkpt lat="31.3173300" lon="35.3472100">
<ele>-6.790000</ele>
<time>2024-11-18T09:15:24.098Z</time>
</trkpt>
<trkpt lat="31.3174000" lon="35.3470700">
<ele>-7.630000</ele>
<time>2024-11-18T09:15:24.098Z</time>
</trkpt>
<trkpt lat="31.3174600" lon="35.3470000">
<ele>-8.400000</ele>
<time>2024-11-18T09:15:24.098Z</time>
</trkpt>
<trkpt lat="31.3175400" lon="35.3469600">
<ele>-9.090000</ele>
<time>2024-11-18T09:15:24.098Z</time>
</trkpt>
<trkpt lat="31.3175800" lon="35.3469700">
<ele>-9.200000</ele>
<time>2024-11-18T09:15:24.098Z</time>
</trkpt>
<trkpt lat="31.3176600" lon="35.3470100">
<ele>-9.340000</ele>
<time>2024-11-18T09:15:24.098Z</time>
</trkpt>
<trkpt lat="31.3176800" lon="35.3470700">
<ele>-9.200000</ele>
<time>2024-11-18T09:15:24.098Z</time>
</trkpt>
<trkpt lat="31.3176900" lon="35.3471300">
<ele>-9.020000</ele>
<time>2024-11-18T09:15:24.098Z</time>
</trkpt>
<trkpt lat="31.3176600" lon="35.3474500">
<ele>-9.050000</ele>
<time>2024-11-18T09:15:24.098Z</time>
</trkpt>
<trkpt lat="31.3176500" lon="35.3475600">
<ele>-9.490000</ele>
<time>2024-11-18T09:15:24.098Z</time>
</trkpt>
<trkpt lat="31.3176700" lon="35.3476200">
<ele>-9.990000</ele>
<time>2024-11-18T09:15:24.098Z</time>
</trkpt>
<trkpt lat="31.3177100" lon="35.3476500">
<ele>-10.320001</ele>
<time>2024-11-18T09:15:24.098Z</time>
</trkpt>
<trkpt lat="31.3177700" lon="35.3476700">
<ele>-10.590000</ele>
<time>2024-11-18T09:15:24.098Z</time>
</trkpt>
<trkpt lat="31.3180200" lon="35.3476700">
<ele>-14.630000</ele>
<time>2024-11-18T09:15:24.098Z</time>
</trkpt>
<trkpt lat="31.3181100" lon="35.3476900">
<ele>-15.560000</ele>
<time>2024-11-18T09:15:24.098Z</time>
</trkpt>
<trkpt lat="31.3181700" lon="35.3477100">
<ele>-15.920000</ele>
<time>2024-11-18T09:15:24.098Z</time>
</trkpt>
<trkpt lat="31.3182800" lon="35.3477900">
<ele>-16.900000</ele>
<time>2024-11-18T09:15:24.098Z</time>
</trkpt>
<trkpt lat="31.3183200" lon="35.3478200">
<ele>-17.260000</ele>
<time>2024-11-18T09:15:24.098Z</time>
</trkpt>
<trkpt lat="31.3184100" lon="35.3478300">
<ele>-16.980000</ele>
<time>2024-11-18T09:15:24.098Z</time>
</trkpt>
<trkpt lat="31.3184100" lon="35.3478300">
<ele>-16.980000</ele>
<time>2024-11-18T09:15:24.098Z</time>
</trkpt>
<trkpt lat="31.3185400" lon="35.3478400">
<ele>-16.459999</ele>
<time>2024-11-18T09:15:24.098Z</time>
</trkpt>
<trkpt lat="31.3185400" lon="35.3478400">
<ele>-16.459999</ele>
<time>2024-11-18T09:15:24.098Z</time>
</trkpt>
</trkseg>
</trk>
</gpx>
